GFSSE_700_spd_000.txt.gz
Wind_Speed
2 3 5 8 10 10 10 11 10 10 11 12 13 12 11 8 6 4 3 2 2 1 1 1 2 3 2 3 5 6 7 8 9 10 10 9 10 11 11 10 9 9 7
3 2 7 7 8 8 9 10 9 9 10 11 11 11 9 8 7 4 1 0 1 2 2 2 2 3 4 4 5 7 8 9 9 9 10 11 12 12 13 13 12 10 10
3 2 5 6 6 7 8 10 11 12 11 10 9 8 8 7 5 3 2 1 1 1 2 2 3 4 5 6 7 8 9 10 11 12 13 13 13 14 15 14 13 13 12
1 3 5 5 5 5 7 10 11 12 13 12 10 9 6 5 4 3 2 1 1 2 3 3 4 5 7 7 9 10 11 12 12 14 15 15 15 15 16 16 15 14 14
2 2 3 3 4 5 6 9 10 12 14 13 12 10 7 4 3 2 1 2 3 3 4 5 6 7 8 9 9 11 13 14 14 14 14 15 15 15 16 16 16 16 15
4 2 2 2 2 4 5 8 10 12 14 15 15 13 11 6 3 2 1 1 2 3 4 5 7 8 8 8 9 10 12 12 12 13 13 13 14 14 15 16 17 18 17
6 4 3 3 1 2 5 8 10 11 14 15 15 14 13 9 5 3 2 2 2 3 4 5 6 7 8 8 9 10 11 12 13 14 14 15 15 16 17 17 17 18 18
10 9 6 6 3 2 3 6 8 10 12 14 14 14 13 11 8 5 2 1 1 2 3 5 6 7 7 8 8 9 11 12 14 15 16 17 17 17 17 17 18 18 18
13 12 9 9 6 4 2 4 7 8 10 12 13 12 12 10 9 8 6 4 4 4 4 5 6 6 7 8 9 10 11 12 14 15 17 18 18 18 19 18 18 19 19
16 14 12 11 9 7 5 2 5 7 9 11 12 12 11 9 8 6 5 5 6 7 8 8 8 8 8 8 9 10 11 12 13 14 16 17 18 18 18 19 20 21 22
16 15 14 13 12 10 8 4 3 6 8 9 11 11 11 10 9 8 8 8 8 9 10 9 8 9 9 10 11 12 13 14 15 16 18 19 20 20 20 20 21 21 20
15 15 16 16 16 13 11 8 6 6 9 10 11 12 12 12 12 10 11 11 12 12 11 10 11 10 11 13 15 15 16 18 19 20 21 22 23 24 23 23 23 24 24
19 18 16 18 17 16 14 13 9 9 10 11 11 13 13 13 13 12 13 13 13 14 13 13 14 16 15 16 17 18 19 20 20 21 22 24 24 24 25 25 26 27 28
20 21 20 17 18 18 18 16 13 12 12 13 14 14 15 15 13 13 14 14 15 15 15 15 16 19 19 19 19 21 21 22 23 24 24 24 23 23 24 25 26 26 28
26 21 19 19 18 19 19 18 17 16 16 16 15 17 16 16 14 15 15 15 15 15 17 18 20 21 21 21 22 23 24 24 22 20 20 20 21 22 24 25 25 25 26
27 24 21 19 18 20 21 21 20 20 20 19 18 18 18 17 17 18 18 17 17 18 19 21 21 22 22 23 24 23 20 18 19 19 20 21 22 23 25 26 26 26 28
29 27 24 22 21 23 24 24 23 22 24 22 20 20 19 18 19 19 19 19 20 21 21 22 23 23 23 23 19 18 20 20 20 21 22 24 25 25 26 27 27 28 28
33 31 28 27 27 28 28 27 25 25 26 24 22 21 20 20 21 20 20 21 21 22 23 23 25 26 24 19 19 20 20 21 22 24 25 25 26 26 27 27 28 29 30
29 29 31 31 30 32 31 29 28 28 27 24 23 22 22 20 20 19 21 21 22 23 25 27 27 24 19 20 20 21 22 23 25 26 26 27 27 27 28 30 30 31 31
30 29 29 26 25 28 30 29 27 26 26 24 22 22 20 18 17 20 20 21 23 26 28 28 25 23 21 21 21 22 24 25 27 28 29 28 28 28 31 31 33 34 34
29 28 27 22 21 24 25 27 27 25 25 22 22 20 17 15 17 17 19 22 26 27 26 25 24 23 23 23 24 24 26 28 30 31 30 29 30 32 32 35 35 36 37
26 26 25 24 23 23 23 24 24 24 23 22 20 16 14 13 14 17 21 25 26 26 25 25 25 24 25 26 27 29 30 30 30 31 31 32 32 33 33 35 36 37 40
24 21 21 22 23 22 23 24 23 22 21 19 15 13 11 11 15 19 22 24 25 26 26 25 25 26 27 29 32 35 38 41 43 38 34 31 33 33 34 35 38 41 43
22 19 18 21 22 22 22 21 20 17 16 16 14 10 9 12 16 20 22 23 25 26 27 27 27 28 31 33 35 38 41 44 47 49 44 37 36 37 39 40 43 46 48
23 20 19 20 20 20 19 19 17 17 17 15 11 9 9 13 16 20 23 26 28 29 29 29 30 32 34 37 40 41 42 42 42 46 49 44 40 41 45 49 52 55 55
27 22 18 18 20 20 19 18 17 16 15 12 9 8 11 14 18 21 25 28 30 31 32 32 33 34 37 39 42 44 44 45 44 46 50 52 55 54 55 55 56 58 59

GFSSE_700_spd_003.txt.gz
Wind_Speed
5 0 3 7 9 9 8 9 9 9 8 8 8 8 7 6 3 2 3 3 3 3 2 2 3 3 4 5 6 8 9 9 10 10 10 10 11 12 12 12 13 12 11
6 3 4 6 6 6 7 8 8 9 8 8 7 8 7 5 5 2 3 4 4 4 4 3 3 3 4 5 6 7 8 8 9 10 11 12 14 14 15 15 14 15 14
5 2 3 4 4 5 6 7 8 9 9 8 7 6 5 4 3 3 4 4 3 3 3 2 2 2 4 4 6 7 8 9 11 12 13 14 15 17 17 17 17 17 17
6 2 3 4 4 5 6 6 7 9 11 10 9 7 5 2 1 1 3 4 3 2 2 2 3 4 5 6 7 8 10 12 13 14 15 17 16 17 18 18 18 18 18
6 6 4 3 3 4 5 6 7 9 11 13 12 9 4 1 0 1 2 3 4 3 3 3 4 6 7 8 9 10 12 12 13 14 15 16 15 16 16 16 17 17 17
11 5 2 3 1 2 4 5 7 9 11 13 13 12 9 3 1 2 2 1 1 2 2 3 4 5 6 7 8 9 10 11 12 12 13 13 13 15 15 16 17 17 17
17 9 4 2 2 1 2 4 6 8 10 12 12 12 11 8 3 2 1 2 1 1 1 2 3 5 5 6 7 8 10 10 11 12 13 13 13 14 14 15 15 15 16
15 11 5 5 5 4 1 1 4 6 9 11 12 12 11 10 8 5 2 1 1 1 2 2 2 3 4 5 6 8 9 9 11 12 13 14 13 14 14 14 15 15 15
17 14 10 9 8 8 6 2 1 3 7 10 11 11 9 9 8 7 6 3 3 3 3 3 4 4 5 6 7 8 10 11 12 13 14 15 15 15 15 16 17 18 18
19 17 14 13 11 11 9 5 2 2 5 8 10 11 11 8 6 4 3 4 4 4 5 6 6 7 8 9 9 10 10 12 13 13 15 16 16 16 17 18 18 19 19
19 19 17 15 14 12 13 9 6 4 5 7 9 11 11 10 8 7 6 6 6 7 7 8 9 9 9 10 11 11 13 14 16 17 19 20 21 21 21 20 20 21 21
17 17 19 17 17 18 16 14 11 8 7 8 9 10 11 11 10 10 9 9 9 10 10 11 11 12 12 14 17 17 18 19 20 21 22 23 23 23 22 23 23 23 23
20 18 20 21 21 19 18 17 15 12 11 11 11 12 12 12 11 12 13 12 12 13 12 12 13 15 17 18 19 20 21 21 22 22 23 24 24 24 24 25 24 25 25
21 22 20 20 21 21 21 20 19 16 14 14 14 14 14 13 13 14 14 15 14 14 14 15 15 18 19 20 20 22 22 22 23 23 21 19 19 20 21 22 22 23 24
22 22 21 21 20 20 21 22 21 20 17 16 16 16 16 15 16 16 16 16 15 16 16 17 19 20 20 21 22 23 22 19 16 16 16 17 18 20 21 22 23 23 24
25 26 22 20 20 20 20 19 22 22 20 20 19 19 19 18 18 18 19 17 18 18 17 19 20 21 21 21 23 21 16 15 16 16 16 17 19 21 23 23 24 25 25
26 28 26 24 20 20 20 20 20 23 22 22 21 21 22 21 20 19 19 19 19 19 20 21 21 22 22 20 19 16 17 17 16 18 19 20 22 23 25 25 26 26 26
30 30 31 32 26 24 24 24 22 23 26 26 25 25 23 22 21 20 20 20 19 20 21 21 23 23 21 17 18 18 18 18 18 20 22 24 25 27 28 29 28 29 30
30 29 29 32 31 29 30 29 26 26 27 28 28 26 23 22 21 19 18 18 19 21 23 25 24 22 19 18 18 18 18 19 21 23 25 27 29 29 30 31 32 34 33
31 31 28 28 30 31 34 32 28 28 29 28 28 25 22 20 19 17 17 17 18 22 25 25 24 21 19 18 18 18 20 21 23 25 27 28 29 30 32 33 34 34 35
31 28 28 27 28 30 29 28 26 25 27 27 25 22 22 19 16 15 15 16 20 23 24 24 23 22 21 20 19 20 21 22 24 25 27 30 30 31 32 34 35 35 36
30 28 28 29 30 29 26 25 24 24 26 25 22 22 20 16 15 13 14 17 21 23 24 25 25 24 23 22 23 24 24 25 25 27 28 29 31 31 33 33 34 35 37
32 28 27 28 28 28 26 25 25 25 26 23 21 19 17 15 13 12 14 17 21 24 26 27 26 25 25 25 26 28 31 33 35 33 31 29 29 29 30 33 35 37 40
33 28 26 28 27 25 24 26 27 25 22 19 18 17 16 13 11 12 14 18 22 26 28 29 28 27 27 27 28 30 33 36 40 44 42 40 40 36 36 38 40 43 45
35 30 28 25 23 23 25 27 27 21 20 19 18 17 15 11 11 12 16 19 23 27 29 30 30 29 29 29 31 33 35 38 41 44 47 43 40 39 40 43 46 48 50
38 34 30 25 23 23 24 25 22 21 19 17 17 16 12 11 11 13 17 20 24 28 31 32 32 32 31 32 35 37 39 41 43 46 49 48 49 48 47 48 48 51 54

GFSSE_700_spd_006.txt.gz
Wind_Speed
6 2 1 6 10 9 7 7 8 7 6 5 5 4 2 1 3 3 5 4 5 5 6 5 5 5 5 5 6 7 9 9 10 10 11 12 13 14 14 15 14 15 15
8 5 3 4 4 3 4 5 6 8 8 7 6 4 3 1 0 2 3 4 5 5 5 5 5 5 5 4 5 6 8 9 9 10 12 13 14 16 16 17 17 17 17
9 6 3 0 0 2 4 5 6 7 8 7 6 4 3 2 1 1 3 4 5 5 5 4 4 4 4 5 6 7 8 10 11 13 14 15 17 17 18 18 18 18 18
9 4 3 1 1 3 4 5 6 7 9 10 9 6 4 3 2 2 4 5 5 4 4 4 4 4 5 6 8 9 11 12 13 14 16 17 17 17 18 18 17 18 17
7 5 3 3 1 1 3 4 4 6 8 10 11 9 4 3 3 3 3 3 3 4 3 4 4 5 6 7 9 10 12 13 14 15 16 16 16 16 16 15 15 16 17
9 4 5 10 8 2 1 2 3 6 8 10 11 10 8 3 3 3 3 3 2 3 2 3 4 6 6 8 9 10 11 12 12 12 13 13 13 14 15 16 16 16 17
21 13 13 13 5 3 1 1 2 4 7 9 11 11 10 8 2 3 2 1 1 2 2 3 5 5 5 7 7 8 9 10 11 11 12 12 13 13 13 14 14 15 15
21 17 18 13 7 7 6 4 2 2 6 8 10 11 10 9 8 4 2 1 1 2 2 3 3 4 5 6 7 9 10 10 11 12 12 13 13 13 14 15 15 16 17
20 21 20 16 13 12 10 7 4 3 4 7 9 11 11 8 7 6 4 4 3 2 3 5 5 6 8 9 10 11 12 13 13 13 14 14 14 15 16 17 17 17 18
20 21 21 18 16 15 13 11 8 5 5 7 9 10 10 10 8 6 5 3 4 5 6 8 8 9 9 10 11 11 12 13 14 15 16 16 17 18 18 19 20 20 20
21 23 23 21 18 16 15 14 13 9 7 7 9 10 10 9 9 8 7 7 8 9 9 10 11 11 11 11 12 13 15 16 17 19 21 22 21 22 22 22 22 23 22
22 22 22 23 21 19 18 16 18 14 11 9 10 11 11 11 10 10 10 10 10 10 11 12 13 13 13 15 16 18 19 20 21 23 24 24 24 24 24 24 24 23 22
23 23 23 25 24 23 22 20 18 19 15 13 12 12 13 13 13 13 12 13 13 13 13 14 15 16 17 19 20 20 21 22 22 24 24 24 25 24 22 20 20 20 23
24 23 24 23 25 26 24 22 21 22 19 17 14 14 15 16 16 16 15 14 14 15 16 17 18 19 20 21 22 22 22 22 23 22 19 17 17 17 18 18 19 21 22
25 22 21 23 23 24 24 23 24 24 22 20 17 16 17 18 19 19 17 16 16 17 17 19 19 20 22 23 23 23 22 19 15 15 16 16 16 17 18 19 20 21 22
27 25 24 23 23 24 23 23 23 24 22 21 21 19 19 20 21 21 19 18 18 18 18 19 20 21 23 24 24 23 18 14 15 15 15 16 18 19 20 21 22 23 25
28 28 27 25 24 22 23 23 22 20 20 21 22 23 22 22 22 22 20 20 19 19 19 20 21 22 25 25 22 18 15 15 15 16 17 19 21 22 23 25 26 27 28
29 31 30 30 28 26 24 23 22 24 23 23 23 24 26 25 24 23 20 19 19 19 19 19 22 24 24 22 19 17 16 16 16 18 20 22 24 26 27 29 29 30 31
35 34 33 33 33 34 31 27 27 25 26 26 27 27 28 26 24 22 20 18 17 18 19 21 22 22 21 21 18 17 16 17 18 20 22 24 26 28 29 31 33 34 35
40 37 35 33 34 35 38 34 31 30 30 32 32 30 28 25 22 20 18 16 16 17 20 21 21 21 21 20 19 17 17 18 20 22 23 25 27 30 32 33 34 36 37
44 40 37 35 32 31 33 32 33 32 30 32 31 27 26 23 21 18 15 15 14 17 19 21 23 22 22 21 20 20 20 20 22 23 24 28 29 31 34 35 36 37 38
46 43 39 37 33 30 30 31 31 29 30 30 30 28 24 23 19 17 14 13 14 16 19 22 24 25 23 22 21 20 21 23 24 25 27 28 31 32 33 36 37 39 40
48 45 40 33 34 31 31 32 32 31 30 29 29 26 21 25 18 16 13 13 13 16 19 22 23 24 24 23 23 24 27 28 28 28 30 32 33 33 33 33 34 37 40
44 45 42 34 33 33 32 32 31 30 27 28 27 22 24 21 18 15 13 12 13 16 19 21 23 24 24 24 24 25 28 31 34 37 37 39 40 38 36 36 36 38 40
42 43 43 35 33 33 31 30 31 30 29 28 26 24 24 22 18 15 12 12 14 18 20 22 25 27 28 28 28 28 31 33 36 39 41 41 44 43 44 43 42 43 46
47 45 42 37 34 32 31 30 30 30 29 28 26 24 23 20 18 15 13 14 16 19 22 25 28 30 32 32 32 33 34 36 39 42 46 46 47 45 46 45 46 47 50

GFSSE_700_spd_009.txt.gz
Wind_Speed
7 5 2 4 9 9 8 8 8 8 9 9 8 6 6 7 7 6 5 5 4 4 5 5 5 4 5 5 6 6 8 9 9 10 10 11 12 13 13 14 14 16 15
9 7 2 3 7 6 6 7 9 9 9 9 9 8 7 6 6 4 4 4 4 5 5 5 5 4 3 4 4 5 6 7 9 10 11 12 13 14 15 15 15 16 16
11 8 2 2 5 4 6 6 7 8 9 9 8 8 8 7 6 4 3 4 5 5 5 5 4 4 4 4 4 6 7 8 9 11 12 14 15 16 16 17 17 18 18
11 6 3 1 4 4 4 4 5 7 8 9 9 8 6 6 6 4 3 3 3 3 3 4 4 4 4 5 6 7 8 9 11 12 13 15 16 15 16 17 18 17 18
11 8 5 2 3 8 4 2 3 5 7 8 9 10 8 5 5 4 3 3 3 3 4 5 5 4 6 7 8 9 10 11 12 13 14 14 15 14 15 14 15 14 15
10 9 6 3 12 10 3 3 2 4 7 9 11 11 11 8 4 4 3 2 2 3 4 4 4 5 6 7 8 9 10 11 12 13 14 14 14 14 14 15 15 15 16
18 19 11 11 12 9 5 4 3 3 5 8 10 11 11 10 8 3 2 2 2 2 3 4 4 5 6 6 7 8 9 10 12 12 14 14 13 14 14 14 15 14 15
20 22 18 15 15 13 9 7 5 4 4 7 9 11 11 10 10 8 3 2 2 3 4 5 6 6 7 8 8 9 9 10 11 12 13 14 13 15 15 16 16 17 17
23 26 23 22 17 16 14 10 8 6 5 6 8 10 11 11 10 8 6 5 4 5 6 7 9 10 11 11 11 11 12 12 13 13 14 15 15 16 17 17 17 18 18
22 21 22 23 19 18 17 13 10 9 7 7 7 8 10 11 11 10 8 7 7 8 9 9 10 10 11 11 12 12 13 14 15 16 17 16 18 19 20 21 22 22 21
21 22 23 23 22 21 19 17 14 12 11 10 9 9 10 10 11 12 11 10 9 10 11 11 12 12 12 13 14 15 17 18 19 19 22 21 22 22 22 22 22 21 22
23 23 22 23 24 23 22 20 18 15 15 14 11 11 10 10 12 13 13 13 12 12 12 14 14 14 15 16 17 18 20 21 22 22 23 23 24 24 25 23 20 21 21
27 26 24 26 26 25 25 24 22 19 19 17 15 13 12 11 13 14 15 15 14 15 15 15 16 17 17 19 20 23 22 23 24 25 23 24 24 22 19 16 17 18 18
29 28 26 25 26 28 28 27 26 23 22 20 19 15 14 13 14 16 16 16 16 16 17 18 18 19 18 21 22 24 24 25 25 24 20 17 15 16 16 16 17 17 19
31 29 27 25 25 25 28 29 28 26 25 22 21 19 17 16 16 17 18 18 18 19 19 19 20 21 21 22 23 24 25 24 22 18 16 16 15 15 16 18 18 19 21
31 30 28 25 24 23 23 25 25 26 27 24 23 23 21 19 18 19 19 20 20 21 21 20 20 21 23 23 24 25 24 21 18 17 18 16 16 17 18 20 21 22 24
31 29 31 30 28 25 23 22 23 22 23 21 22 22 23 22 20 21 21 21 21 21 21 21 21 22 23 25 24 23 20 18 17 17 17 17 17 19 21 22 24 26 27
33 31 32 32 32 30 26 24 23 22 21 21 22 22 23 23 22 22 23 23 22 22 20 20 21 23 24 23 21 19 18 17 17 18 18 19 20 22 23 25 27 28 31
38 37 36 34 32 33 30 29 27 26 24 23 24 25 25 25 24 25 24 23 21 20 19 19 20 22 22 21 20 18 18 18 18 19 20 21 23 25 26 28 30 31 33
36 43 41 39 35 35 34 34 32 32 29 27 28 29 29 30 29 26 24 22 20 17 17 18 19 20 21 21 21 19 19 19 20 21 23 24 25 28 29 30 32 34 35
41 49 47 45 40 38 38 33 35 35 34 32 32 32 31 29 27 26 22 20 18 16 16 16 18 20 21 22 22 22 22 22 23 24 25 26 29 30 32 33 35 37 38
52 51 50 48 45 42 39 33 32 33 30 34 32 32 30 29 29 25 20 18 16 15 14 15 18 19 20 22 22 21 22 25 24 26 27 29 30 32 35 36 38 40 41
47 51 53 51 49 46 41 35 34 31 34 32 31 30 30 29 28 23 20 18 16 14 13 14 17 19 21 22 23 23 25 25 26 27 29 31 33 34 37 38 38 39 40
46 50 53 52 52 47 41 37 34 32 29 29 30 29 29 28 23 24 22 19 16 13 13 15 17 19 22 25 26 26 27 29 31 32 32 34 36 37 38 38 36 36 37
43 48 48 51 51 48 39 34 33 33 34 33 32 28 28 28 27 29 22 20 16 14 14 16 19 21 24 27 29 30 31 32 34 35 35 36 40 41 44 45 44 42 43
44 45 50 48 50 49 39 35 34 37 36 33 31 29 29 25 27 27 23 20 17 16 17 19 22 25 28 30 33 34 35 35 36 39 42 41 42 41 43 44 44 46 48

GFSSE_700_spd_012.txt.gz
Wind_Speed
8 5 3 3 7 10 9 10 10 10 10 9 7 6 7 7 8 10 8 5 2 3 4 4 3 3 3 4 3 4 5 6 8 8 9 10 11 11 11 12 12 13 13
9 7 5 1 6 9 9 9 9 10 11 11 10 8 6 6 6 6 5 3 3 3 3 3 3 2 2 2 2 3 3 4 6 7 9 9 11 11 12 12 14 15 14
10 9 5 1 3 6 7 8 8 9 10 11 12 10 8 8 6 6 4 2 3 3 2 3 3 3 4 4 3 3 3 5 7 9 10 10 11 12 13 13 14 15 16
12 9 5 2 1 6 8 7 7 8 10 12 12 12 11 8 6 5 3 2 3 3 3 3 2 3 4 4 4 4 6 7 8 10 12 13 13 14 14 14 15 15 15
12 11 7 4 2 6 8 5 5 6 8 10 12 13 13 10 7 5 3 2 2 2 2 3 3 4 5 6 6 6 7 8 9 10 12 13 13 13 14 14 14 13 15
14 12 9 8 3 7 5 3 4 5 7 9 12 13 12 12 9 5 3 2 2 2 2 2 3 3 5 5 6 7 8 9 10 10 11 11 11 12 13 13 14 15 15
14 11 8 11 11 8 8 5 4 4 4 7 10 12 12 12 11 7 4 3 2 3 4 4 5 5 5 6 7 8 9 10 10 11 11 12 11 13 13 13 14 15 15
16 15 17 14 13 11 11 9 7 6 4 5 8 10 12 13 12 10 9 7 6 6 6 6 7 7 8 8 8 9 10 11 12 11 13 11 12 13 13 14 15 15 15
20 16 18 20 19 16 15 11 11 8 6 4 6 9 11 13 13 12 9 8 7 7 8 8 9 9 10 10 11 11 11 12 13 14 14 13 14 14 15 16 16 17 18
23 22 21 22 22 21 18 14 13 12 8 6 6 6 8 10 12 13 13 11 10 10 10 10 10 10 10 10 11 12 13 14 15 17 16 17 18 19 19 20 20 20 21
25 27 25 23 21 21 19 17 16 15 12 10 9 8 7 7 10 11 13 13 13 12 12 12 12 12 12 12 14 14 15 17 18 20 18 19 20 20 21 20 20 21 21
22 23 23 25 24 23 22 20 18 18 17 14 13 11 11 8 8 10 12 13 14 14 15 15 15 15 15 15 15 17 17 19 21 21 19 21 21 22 22 20 20 18 16
25 25 25 25 28 25 23 23 22 21 20 19 16 15 12 12 11 11 13 14 14 16 17 17 17 18 18 18 18 21 21 21 22 22 21 22 21 18 16 16 14 14 16
33 29 28 27 29 26 26 27 26 24 22 21 19 17 14 13 13 12 13 14 16 17 19 20 20 19 20 20 21 21 22 22 24 23 21 19 16 15 15 14 14 15 15
27 35 33 27 28 28 28 28 28 26 24 23 22 20 18 15 17 15 13 15 16 19 20 21 22 22 21 22 23 22 23 23 25 24 18 17 15 15 14 15 15 16 17
28 34 33 29 29 27 28 27 26 26 27 25 23 20 20 19 20 18 17 16 17 19 21 23 23 22 23 23 23 24 24 24 23 23 17 17 17 16 16 16 18 19 20
30 34 34 31 30 28 25 25 24 23 26 22 22 20 22 21 19 19 19 19 18 20 21 23 23 23 23 23 24 24 22 22 20 20 19 17 18 18 18 19 19 21 22
28 30 35 35 32 31 29 28 25 22 25 19 20 19 21 18 19 20 21 21 21 22 21 22 22 22 22 22 22 21 20 19 19 19 19 19 19 19 20 22 22 23 25
33 30 28 36 37 32 30 30 28 27 25 23 22 22 22 20 22 22 22 22 23 23 22 21 20 21 21 21 21 20 19 19 19 20 20 21 21 23 24 24 26 27 28
43 34 34 33 38 36 31 32 32 33 31 29 29 24 22 24 24 25 27 25 26 23 21 20 19 19 20 19 20 19 19 19 20 21 22 25 25 25 26 28 29 31 32
44 41 39 43 43 43 38 34 34 34 33 34 34 32 31 29 27 28 28 26 26 23 20 18 17 17 17 17 19 20 19 21 22 23 24 27 29 29 30 30 32 35 35
40 44 45 44 49 47 46 37 36 34 32 33 31 31 32 31 30 29 28 25 24 22 20 17 16 14 15 16 18 19 21 21 20 24 26 27 30 31 33 34 35 37 39
37 43 53 54 52 50 50 43 40 37 35 32 31 32 30 29 29 27 27 25 23 21 19 16 15 14 14 16 19 21 24 25 26 26 28 29 31 32 34 35 37 38 40
40 39 48 52 54 53 53 48 44 41 38 30 29 28 29 28 26 27 27 25 20 21 19 16 14 15 16 19 21 24 27 29 30 30 30 31 32 34 36 37 36 36 37
40 41 40 45 46 54 54 49 46 44 40 31 28 29 29 27 27 28 27 24 23 22 19 17 16 17 19 22 25 28 31 33 35 35 33 32 33 35 38 39 39 39 39
30 45 43 41 47 53 51 48 48 46 40 32 33 33 30 29 28 28 26 29 27 23 20 19 18 19 22 26 29 32 35 37 39 40 41 38 39 36 38 38 38 40 44

GFSSE_700_spd_015.txt.gz
Wind_Speed
11 7 4 1 3 6 10 9 8 8 9 9 8 7 6 6 7 7 5 4 2 1 3 3 3 3 2 1 1 3 5 6 8 8 8 8 9 9 9 9 11 10 11
11 8 7 3 1 4 8 7 8 8 8 10 10 9 7 6 6 7 6 3 2 0 2 3 3 4 2 2 2 3 5 5 6 7 6 8 8 9 10 11 12 12 13
10 9 8 6 2 3 6 6 7 8 9 10 11 12 10 5 4 5 5 3 1 1 1 1 2 2 2 2 2 4 4 5 6 7 7 8 10 11 12 12 14 14 14
9 9 9 7 5 0 4 5 5 7 9 10 12 12 13 10 5 4 4 4 2 1 1 1 1 2 2 2 3 4 6 7 8 8 10 9 11 12 13 13 14 14 14
11 12 12 8 5 1 5 3 5 5 7 10 11 13 13 12 10 6 4 3 2 2 2 2 3 3 3 4 4 5 7 8 8 9 11 11 11 12 12 11 12 12 13
13 13 12 8 6 5 4 4 7 5 6 8 11 12 13 14 13 9 5 3 3 2 2 2 2 3 4 4 4 6 7 7 7 8 9 10 11 11 11 11 12 12 12
14 15 13 9 8 7 7 5 7 7 5 7 9 12 14 14 13 12 9 6 4 3 2 2 3 3 3 4 4 5 6 7 7 8 8 8 10 11 11 11 11 12 12
12 14 12 10 11 8 10 9 8 8 8 6 7 10 12 13 13 12 10 9 8 7 6 5 4 4 4 4 5 6 8 9 10 10 10 10 11 11 12 12 11 12 13
15 17 18 16 14 15 13 12 11 8 9 7 5 6 8 10 11 12 11 10 8 7 7 7 7 7 8 7 8 9 9 11 12 12 12 13 13 14 14 16 15 16 18
20 19 19 17 17 16 16 17 14 11 9 10 7 5 4 6 7 9 10 10 11 11 10 10 9 9 9 10 11 10 11 14 14 14 14 15 16 16 17 17 18 20 19
21 22 22 22 21 19 18 18 17 14 12 12 11 9 7 5 7 7 9 10 11 12 13 12 12 12 12 13 14 14 14 16 15 15 16 16 18 18 18 17 19 19 19
21 24 25 25 25 22 19 19 19 17 16 16 15 12 11 7 7 6 8 9 11 12 14 14 14 15 15 14 15 16 16 19 19 17 16 17 19 19 19 18 16 14 13
25 23 24 26 27 23 22 22 22 20 19 19 18 17 12 11 9 8 7 7 10 11 14 15 17 18 18 19 18 19 20 21 20 19 17 19 19 18 15 13 13 12 12
29 28 26 27 27 25 25 23 23 24 23 22 20 19 16 15 14 12 11 11 11 11 14 16 17 19 20 20 20 21 22 24 21 20 19 19 17 16 15 14 13 13 13
32 32 32 32 29 28 26 27 27 25 25 23 22 20 19 18 16 16 13 14 12 12 15 16 18 20 21 21 21 21 22 24 23 21 19 18 16 16 16 15 15 15 15
22 30 32 33 29 28 27 28 28 26 26 27 25 23 21 20 18 18 17 17 17 17 17 17 17 19 22 22 22 21 22 22 23 20 18 16 17 17 17 17 17 18 18
26 26 33 35 31 28 28 28 28 27 27 28 26 24 22 21 19 19 19 18 18 19 20 21 20 20 21 22 22 21 21 21 21 19 17 16 17 18 18 19 20 20 20
36 27 31 36 36 30 28 28 28 26 26 26 23 23 20 18 17 19 18 18 19 19 21 22 21 21 21 21 21 21 21 20 20 19 17 16 17 18 19 20 22 23 24
44 39 30 36 39 36 31 29 27 28 27 25 25 24 21 20 20 22 20 19 21 22 23 24 23 22 20 19 19 18 18 18 18 19 18 18 20 20 21 22 24 26 28
42 42 33 35 35 37 33 31 31 30 28 27 27 27 22 20 22 22 22 23 23 24 25 24 23 21 18 17 16 16 15 16 17 18 19 20 21 23 24 25 28 30 31
34 44 41 39 39 40 41 36 35 34 32 31 30 28 27 28 28 26 27 26 25 26 25 23 22 19 17 15 14 14 15 16 18 20 22 23 24 26 26 28 30 32 33
34 37 47 44 42 43 45 42 38 35 33 32 29 27 27 28 31 31 27 27 24 23 23 22 20 18 16 14 14 14 15 17 19 21 23 25 26 27 29 30 32 33 35
39 38 40 49 48 45 45 48 44 41 39 36 31 29 28 30 31 29 25 25 25 24 21 20 19 18 16 15 15 17 19 20 23 24 25 27 29 29 31 32 34 35 37
39 43 40 45 53 50 49 49 53 47 43 41 33 30 28 28 29 27 25 26 24 22 20 20 20 19 18 17 18 19 22 24 27 29 29 31 31 33 33 34 36 37 38
36 42 47 43 52 57 52 51 51 50 45 41 35 33 30 30 30 28 27 28 24 22 20 20 21 20 20 20 20 23 25 29 31 32 31 32 33 34 35 36 37 37 37
28 32 42 41 51 52 57 54 57 56 46 43 39 35 33 33 32 30 29 29 26 24 21 23 24 22 21 21 23 25 28 32 35 37 38 38 38 34 36 35 36 37 39

GFSSE_700_spd_018.txt.gz
Wind_Speed
14 11 8 2 1 5 7 9 8 8 8 8 9 8 7 6 6 7 7 5 3 2 2 3 3 3 2 2 4 6 8 8 6 8 9 9 9 9 9 9 10 10 10
18 13 9 4 2 4 7 7 7 8 8 8 9 10 8 5 5 5 6 4 2 1 1 3 3 3 2 2 3 3 4 3 4 5 7 7 8 9 10 11 11 12 13
18 13 11 10 4 2 5 5 6 7 8 8 9 9 9 6 3 3 4 3 2 2 2 2 2 2 1 1 2 2 3 3 4 5 7 9 10 10 11 13 14 14 14
15 13 12 11 9 3 2 4 6 7 7 9 10 10 10 9 5 3 4 4 3 3 2 2 2 2 2 2 3 4 5 6 7 7 8 10 11 12 13 14 14 14 13
15 14 13 12 9 5 2 1 6 7 6 8 11 11 11 11 10 5 4 5 4 3 3 3 3 3 3 4 5 6 6 7 8 8 8 9 11 12 12 12 12 12 12
13 13 14 12 9 3 0 2 3 5 6 7 9 10 11 11 11 11 8 6 6 5 5 4 3 3 3 4 5 6 5 6 6 7 8 8 9 10 10 11 11 11 11
13 14 16 14 11 5 2 4 4 4 5 5 7 9 11 12 12 12 11 10 8 7 6 5 4 4 4 4 4 5 5 6 6 6 8 8 9 9 9 9 10 10 10
12 16 17 15 13 9 6 7 7 7 6 6 4 5 9 11 12 12 11 9 8 7 6 4 4 4 4 5 5 6 7 7 7 7 8 9 10 11 11 11 11 12 12
16 16 17 17 11 13 11 10 10 9 7 6 7 4 5 8 9 10 10 10 9 8 7 6 6 6 6 7 8 9 9 10 11 12 13 13 14 14 14 14 15 16 16
19 20 20 20 18 17 14 13 14 14 11 8 7 7 4 4 5 7 8 9 9 9 9 8 8 8 9 9 10 11 12 12 14 15 16 16 17 17 15 16 17 17 18
21 23 23 22 19 19 17 16 15 16 14 12 10 9 7 6 4 4 4 6 8 9 9 10 10 11 12 13 13 14 15 14 15 15 17 17 18 18 17 17 18 18 20
18 20 21 22 23 20 19 17 17 17 16 15 14 13 11 9 8 7 5 5 7 10 10 11 13 13 13 14 15 15 17 17 18 18 18 19 19 18 18 17 16 16 13
22 21 19 20 22 22 23 21 20 20 19 18 18 17 15 13 12 12 11 9 8 8 11 13 14 15 16 16 16 17 18 18 18 19 19 20 19 19 15 14 14 13 12
27 26 25 23 24 21 21 21 21 21 21 21 21 20 18 17 16 15 15 13 12 12 11 13 14 15 16 18 18 19 19 19 19 19 19 19 18 17 15 14 13 14 14
30 31 30 28 27 25 23 24 23 21 22 23 24 23 21 20 19 18 17 15 15 14 14 15 16 16 17 19 20 20 20 19 19 19 19 18 17 16 14 14 14 15 16
31 32 33 34 31 31 28 25 25 26 25 25 26 25 23 22 21 20 19 19 17 16 16 17 17 18 18 18 19 20 21 19 18 18 18 17 16 16 15 15 15 17 18
33 30 31 31 31 31 28 26 25 25 24 25 26 25 24 24 22 20 21 21 19 18 17 17 18 19 20 20 20 20 21 19 18 17 17 17 16 16 16 17 17 19 20
36 35 36 35 31 29 29 27 28 27 23 26 25 21 23 22 21 20 20 19 19 18 18 19 21 22 22 22 21 19 19 18 17 16 15 16 16 17 18 19 20 22 23
41 37 35 40 36 31 31 31 28 29 27 28 24 21 23 21 19 18 20 20 19 19 20 21 23 24 23 22 20 18 17 16 14 14 15 15 16 18 20 22 23 24 27
50 43 43 37 41 36 32 32 31 33 30 29 26 24 22 20 20 20 21 22 21 22 23 24 25 24 22 20 18 16 15 15 14 14 15 17 18 20 22 24 26 28 30
53 54 53 46 45 45 39 37 34 33 32 31 29 27 25 23 23 23 25 25 25 24 23 25 24 23 21 19 17 16 15 15 16 16 18 20 21 23 24 27 29 30 32
37 43 46 51 52 46 44 39 37 38 32 34 32 30 28 25 25 25 26 27 27 24 24 24 23 21 20 19 17 17 16 16 18 19 21 23 25 26 28 29 31 33 34
37 36 37 45 54 50 46 44 43 40 37 38 37 34 31 27 25 26 26 28 27 25 23 22 20 21 20 19 18 18 18 19 21 22 24 26 28 29 31 32 34 35 36
40 42 41 42 48 58 53 50 50 46 45 40 37 35 33 29 26 26 27 28 27 26 26 20 19 20 21 20 20 20 20 21 22 25 27 29 31 32 33 35 37 38 38
31 37 47 48 48 49 52 58 52 49 47 43 40 39 38 35 30 29 29 28 28 28 27 24 20 22 23 23 22 22 23 24 26 27 30 33 34 35 36 37 39 40 40
28 33 36 45 52 51 52 51 49 50 49 45 43 41 38 37 34 30 31 30 31 30 28 28 22 21 27 26 25 25 26 27 29 31 33 35 37 35 37 37 39 40 39

GFSSE_700_spd_021.txt.gz
Wind_Speed
11 10 7 5 3 3 8 8 10 10 10 10 10 10 9 7 6 7 8 6 5 4 2 2 1 1 3 3 4 4 5 6 7 8 8 7 7 9 9 9 9 9 11
14 10 10 7 4 1 6 7 10 10 10 11 11 10 10 8 6 6 7 6 6 5 3 2 2 1 2 3 3 2 2 3 4 5 5 6 6 8 9 10 11 12 12
16 15 12 10 6 0 3 6 9 9 10 11 12 11 11 10 6 6 6 7 6 5 5 4 3 2 2 2 2 1 1 1 2 3 5 6 7 9 10 11 12 13 14
17 15 13 11 10 4 3 5 7 7 8 9 10 11 10 10 7 4 4 5 5 5 4 4 3 3 3 3 3 3 4 5 5 7 8 9 10 11 12 13 13 12 12
17 16 14 12 10 7 3 2 4 6 8 9 10 10 9 9 9 6 4 4 5 5 4 4 4 4 4 5 5 6 6 6 6 7 9 10 11 11 11 11 11 11 11
15 16 15 14 12 7 3 4 1 2 5 8 9 10 11 10 9 9 7 6 6 5 5 5 5 5 5 6 5 5 5 6 6 7 8 9 10 11 11 11 10 10 9
9 16 16 15 14 9 4 4 3 1 2 5 6 8 10 12 12 10 10 10 9 9 8 7 6 6 6 6 6 6 6 6 7 8 8 9 10 11 10 11 11 10 10
10 14 17 17 16 10 5 5 5 3 3 3 4 3 7 9 11 11 12 11 10 8 8 7 7 7 7 7 7 6 7 7 7 9 10 11 12 13 12 12 13 14 13
13 14 17 18 18 11 8 8 7 7 7 5 4 4 4 6 7 10 11 11 11 11 10 10 9 8 8 8 8 7 8 9 10 11 12 13 14 14 14 14 15 17 18
16 17 19 20 17 12 13 13 11 11 11 10 7 6 4 4 5 5 6 8 10 10 10 10 10 11 10 10 10 10 10 11 12 13 15 16 16 15 15 16 17 19 20
17 21 21 20 19 17 17 16 14 14 14 13 11 9 8 5 5 4 3 4 5 7 9 11 11 12 12 12 13 12 11 12 13 15 16 17 18 17 16 17 18 19 20
21 21 23 25 24 22 19 18 16 17 16 15 13 12 11 10 8 7 6 5 4 4 7 9 11 12 13 14 15 14 14 14 15 16 17 18 18 18 17 17 17 14 14
19 18 19 22 24 24 22 19 19 19 19 18 16 15 14 13 12 11 11 10 8 6 7 8 10 12 13 15 16 17 16 16 16 17 17 18 19 18 17 17 16 15 12
23 22 22 21 21 22 22 21 21 22 20 20 18 17 16 16 16 15 14 13 11 11 11 10 11 12 13 15 17 18 19 18 17 17 17 17 18 17 16 16 16 15 14
32 30 28 26 26 25 23 21 21 21 20 21 21 20 19 19 19 18 18 17 15 16 14 14 14 14 14 16 17 18 20 19 18 17 18 17 16 16 15 15 16 16 16
35 33 31 30 30 30 27 26 25 23 23 22 21 22 22 21 22 21 19 19 19 19 18 17 16 15 16 18 20 20 20 19 18 18 18 17 16 15 15 15 16 18 19
38 36 34 31 30 31 30 29 26 25 26 25 26 25 23 23 23 22 21 20 21 21 19 18 18 17 18 20 21 21 20 19 18 17 17 16 16 16 17 17 18 19 20
40 40 40 36 34 30 29 28 27 26 25 24 25 24 22 24 24 23 22 23 22 21 19 19 19 19 20 22 22 21 19 17 16 15 15 15 15 16 17 18 20 21 23
41 41 39 37 35 34 32 29 27 26 27 24 23 23 23 23 22 21 22 21 21 21 19 20 19 21 22 22 22 20 18 16 15 14 13 14 14 16 17 19 21 23 24
48 44 43 40 37 38 38 34 32 32 30 28 25 25 25 23 22 22 22 20 21 21 21 21 22 22 23 22 20 19 18 16 14 14 13 15 17 19 20 22 24 26 27
56 58 52 47 44 40 39 40 38 36 31 30 27 27 27 24 25 25 23 22 22 23 25 24 24 24 22 21 20 18 18 16 15 15 15 17 19 21 23 25 27 28 29
45 52 55 56 52 50 48 42 43 38 37 34 29 27 30 29 27 27 25 24 24 25 26 24 24 23 21 20 20 19 19 18 17 17 18 19 21 23 26 29 30 31 32
38 39 43 44 50 58 56 52 48 41 43 41 37 34 33 33 30 28 27 25 25 26 25 25 23 23 20 20 20 20 20 20 20 20 21 22 24 26 28 31 34 35 36
39 40 41 40 41 45 47 55 59 55 47 45 37 34 34 33 33 32 30 27 26 25 26 25 24 22 20 19 21 22 23 23 23 23 23 24 26 29 31 34 37 38 40
33 41 44 46 46 45 47 46 49 56 54 47 41 40 38 37 34 33 31 30 28 26 28 28 27 25 21 20 22 25 25 26 26 26 27 27 29 31 34 38 40 42 43
22 25 30 34 42 50 50 50 48 49 50 51 47 45 43 41 36 34 34 33 31 30 27 31 29 27 25 24 24 28 29 29 29 29 29 30 31 33 37 40 43 44 44

GFSSE_700_spd_024.txt.gz
Wind_Speed
12 8 5 5 3 5 9 10 12 11 12 12 12 12 11 9 7 7 9 8 8 8 5 4 4 7 6 4 3 2 3 4 5 6 7 7 7 8 7 7 7 9 10
14 9 9 7 4 6 7 10 11 10 11 12 12 12 11 9 7 6 7 6 6 6 6 7 7 8 8 6 6 3 1 1 1 2 4 4 4 5 6 8 9 10 11
11 14 11 9 5 4 5 9 9 10 11 12 12 12 12 11 8 6 5 5 6 7 7 7 7 6 5 5 5 4 3 2 1 1 2 4 5 7 8 10 11 12 12
17 17 13 11 8 5 4 7 8 9 11 12 13 13 11 10 8 6 5 6 6 6 6 6 6 6 6 5 5 4 4 3 3 3 4 6 7 9 9 11 11 12 11
16 18 15 12 10 7 3 4 5 7 9 12 12 13 13 11 10 9 7 7 7 7 6 6 6 6 6 6 5 5 4 3 3 4 5 7 8 10 10 11 12 12 11
13 16 15 14 13 9 5 5 2 3 5 7 10 12 13 14 13 12 11 9 8 8 8 8 8 8 8 7 6 5 5 4 4 4 5 6 8 9 10 11 11 11 11
9 14 15 15 14 10 7 5 3 2 2 5 6 9 12 13 13 13 12 11 11 11 10 10 9 9 8 7 7 6 6 5 5 6 6 7 8 9 9 11 11 11 11
12 13 15 17 16 13 9 5 6 3 1 2 3 4 7 11 11 13 13 13 13 13 12 11 11 10 10 9 8 6 6 6 6 6 8 9 10 10 11 12 13 13 13
17 14 15 17 18 16 10 7 6 5 3 4 2 1 2 5 7 8 10 11 12 12 12 12 12 12 11 10 9 8 8 8 9 9 9 10 11 12 13 13 15 15 14
16 17 16 19 18 17 12 9 9 8 7 6 6 4 2 1 1 3 4 6 7 9 11 12 12 12 11 11 10 10 10 10 10 11 12 13 13 13 13 14 16 17 17
18 19 18 19 20 20 14 12 14 12 11 10 10 8 7 5 4 3 3 1 2 4 6 7 8 9 10 11 12 12 12 12 13 13 13 13 13 13 14 15 15 16 16
17 16 19 21 20 22 18 15 16 15 14 13 12 11 11 9 8 8 7 5 4 3 3 4 7 9 9 10 11 13 14 14 14 14 15 14 15 15 15 15 15 14 14
16 18 20 21 24 26 24 21 18 16 17 17 16 14 13 13 12 11 11 10 9 8 7 7 7 8 9 10 11 13 14 15 15 15 15 16 15 15 15 15 15 14 13
21 21 21 20 20 23 24 23 21 19 18 20 18 17 16 16 15 15 14 14 13 12 12 11 11 11 11 11 12 14 16 17 17 16 15 15 15 14 14 14 14 13 13
25 27 26 26 26 24 22 21 21 21 18 17 18 19 20 19 18 18 18 18 16 15 16 15 14 14 14 13 13 16 18 19 18 16 16 15 15 15 14 13 13 14 14
28 28 31 31 31 30 28 25 23 22 20 21 21 20 20 21 21 21 20 21 20 19 18 18 17 16 16 15 16 18 19 18 17 15 14 14 14 14 14 14 14 14 15
31 30 33 32 29 30 31 30 28 27 26 25 24 23 23 22 22 23 23 22 23 22 21 20 19 18 18 18 18 20 19 17 16 15 14 13 13 12 12 13 15 15 16
37 35 32 34 33 32 32 30 31 30 28 26 26 26 26 24 24 23 23 24 25 25 23 22 20 19 19 20 20 20 19 17 15 14 14 13 12 12 13 14 15 16 18
39 39 38 36 37 36 35 32 31 30 29 29 28 27 27 25 23 23 24 25 26 25 24 23 21 20 21 22 22 21 18 16 14 14 13 12 12 12 14 16 17 19 20
46 44 44 42 40 39 39 37 36 34 31 31 28 27 26 26 24 23 24 24 24 24 24 22 22 22 23 24 24 21 18 16 14 14 14 14 14 15 16 17 19 21 23
49 52 51 49 45 42 42 43 41 39 35 33 32 30 27 28 27 25 24 25 24 24 24 24 23 24 25 25 23 21 18 16 16 16 16 15 16 17 18 19 21 23 25
38 40 45 53 55 51 47 46 46 42 42 39 34 33 30 30 30 27 27 27 27 27 26 25 26 25 24 23 22 21 20 19 18 18 18 18 18 20 20 21 23 25 27
35 37 39 39 43 51 53 54 52 51 48 47 44 40 35 32 31 31 29 30 31 29 28 27 27 25 24 23 22 22 22 21 20 20 21 21 22 22 23 24 26 28 30
26 39 39 37 37 38 40 49 57 58 57 53 48 41 41 38 38 35 33 34 33 31 29 28 27 26 24 23 23 21 21 23 24 24 24 25 25 25 26 27 29 31 34
22 16 27 41 41 41 41 41 42 48 55 58 54 50 45 43 38 37 34 34 34 32 31 30 26 30 26 25 23 21 22 24 26 28 28 28 27 27 28 30 32 35 38
19 19 17 19 25 32 40 45 48 45 44 46 47 47 48 43 41 40 37 35 34 34 32 30 29 30 31 29 25 24 26 28 28 30 31 31 31 30 31 32 34 37 40

GFSSE_700_spd_027.txt.gz
Wind_Speed
11 9 3 3 6 9 10 12 11 11 11 11 12 12 11 8 6 6 7 7 7 7 7 8 9 9 8 6 5 4 4 4 3 4 5 5 5 5 6 5 6 6 8
15 10 7 5 5 8 8 10 11 11 12 13 13 13 12 11 7 6 6 6 6 8 9 10 9 10 9 9 7 6 4 3 1 1 2 2 3 3 5 6 7 8 9
16 14 11 8 5 7 6 7 10 12 12 12 13 13 12 12 9 7 7 7 7 8 8 9 9 10 9 8 7 6 5 4 2 1 1 1 3 4 6 7 8 9 9
14 17 14 10 7 7 7 8 9 10 13 14 13 14 14 13 12 9 9 8 8 8 8 8 8 8 7 7 7 5 4 3 2 2 1 2 3 4 5 6 8 9 9
17 19 16 12 10 8 5 5 7 7 10 12 14 15 16 15 14 12 10 9 9 8 8 7 7 7 7 6 6 5 4 3 2 1 0 1 3 4 5 6 7 8 8
16 17 17 14 12 9 1 1 3 4 7 8 10 13 15 15 15 14 13 12 11 11 10 10 10 9 8 7 6 5 4 3 3 2 1 2 4 5 7 7 7 8 8
13 14 16 15 15 12 7 3 3 4 4 5 6 8 11 13 14 15 15 14 13 12 11 11 10 9 8 7 7 6 5 5 4 5 5 6 6 7 8 9 9 10 11
11 13 15 16 17 14 11 8 5 5 4 3 3 4 5 8 10 12 13 13 13 14 13 13 12 11 9 8 6 5 5 4 5 6 7 8 8 8 9 11 12 12 13
16 14 16 16 18 16 12 11 8 7 5 2 2 0 1 3 5 6 8 9 10 11 11 11 11 11 10 9 9 8 7 7 7 7 8 9 9 10 10 11 13 13 12
15 17 17 19 19 19 15 11 10 8 8 6 5 4 3 2 1 1 2 4 5 6 7 8 8 9 9 9 9 10 10 9 9 10 10 10 10 12 12 13 14 14 12
13 15 16 17 20 20 19 15 12 12 11 10 9 8 7 7 5 5 4 3 1 0 1 3 5 7 7 8 8 9 10 11 11 11 11 11 12 12 13 14 14 14 13
13 13 16 17 18 20 20 16 13 14 14 14 12 12 11 9 9 8 8 7 7 6 5 4 2 1 3 5 7 8 10 11 12 12 12 12 12 12 12 12 12 12 11
14 16 16 16 17 19 22 20 17 15 17 17 17 15 15 13 12 12 11 11 11 11 10 9 8 7 6 6 7 8 11 13 14 14 13 11 11 11 12 12 11 10 10
17 19 19 19 19 21 23 23 22 20 19 19 19 19 18 16 16 15 15 15 15 15 15 14 13 12 11 10 10 10 12 14 16 15 13 12 11 11 11 11 10 10 9
20 20 21 22 22 22 21 21 22 21 21 21 22 22 21 21 20 19 18 19 18 18 18 18 17 16 15 14 13 13 14 16 17 15 14 12 11 10 10 10 10 10 10
25 24 23 24 26 28 28 26 24 23 23 23 22 22 22 23 23 22 22 22 21 21 21 21 20 19 18 17 15 15 16 18 18 15 13 12 10 9 8 8 9 9 10
30 31 31 31 30 30 30 31 30 27 26 26 24 25 24 24 24 24 25 25 25 24 24 23 23 21 20 19 17 17 18 19 18 16 14 12 10 9 8 8 8 9 10
37 36 33 31 31 31 29 29 30 29 29 29 28 29 29 28 27 26 27 27 27 26 25 25 24 23 22 21 19 19 19 20 18 16 14 12 11 10 9 9 10 11 12
41 40 38 36 34 32 31 33 33 31 30 30 32 32 30 30 30 29 29 29 27 26 27 27 26 25 23 21 21 21 21 21 19 16 15 13 12 12 11 11 12 13 15
44 44 43 42 40 38 37 36 36 34 31 31 31 31 32 31 31 30 30 28 27 27 28 27 27 26 24 23 23 23 23 22 20 18 16 15 15 14 14 14 14 14 16
49 50 50 48 46 45 44 44 42 40 35 33 30 32 32 31 30 33 31 30 29 27 27 28 28 27 26 25 25 25 24 22 21 19 18 18 18 17 17 17 16 16 17
40 44 48 47 46 49 52 47 46 43 43 39 37 33 33 33 32 34 35 32 31 28 28 28 29 29 28 27 26 25 24 22 21 21 21 21 21 21 20 20 19 19 20
33 34 36 38 39 39 40 45 51 52 50 47 46 41 39 37 34 34 34 34 33 32 30 30 32 31 30 29 27 26 24 24 22 22 22 24 24 25 24 23 22 22 23
27 32 33 36 40 38 37 38 39 45 52 54 53 49 47 45 42 39 37 34 34 37 35 33 34 34 33 30 29 26 25 25 23 23 24 26 27 28 28 27 27 26 28
20 24 28 29 29 39 37 37 38 38 38 41 48 51 53 51 49 44 40 38 39 38 38 35 34 33 33 32 29 28 27 26 24 24 26 27 29 31 32 31 30 31 32
21 23 26 26 23 27 39 41 43 44 42 42 41 42 42 44 48 50 48 45 43 38 38 36 35 34 32 30 30 31 33 26 25 27 28 31 31 33 35 34 34 35 35

GFSSE_700_spd_030.txt.gz
Wind_Speed
10 9 4 5 9 9 10 11 11 11 11 11 11 11 10 8 6 7 7 6 7 7 6 8 9 8 7 7 6 5 5 6 6 7 7 7 6 6 5 5 5 6 7
14 11 7 5 7 7 9 10 11 10 10 11 11 10 10 9 7 6 6 6 7 7 9 10 10 10 9 7 7 6 5 5 4 4 5 5 4 4 5 6 6 7 8
16 15 11 7 7 8 8 9 10 12 12 11 11 11 10 10 8 6 6 6 7 8 9 9 9 8 7 6 6 6 6 5 4 3 3 4 4 5 6 7 7 8 8
18 18 15 10 8 9 8 8 9 10 12 13 12 12 11 11 10 8 7 7 7 7 7 7 7 7 6 5 5 4 4 4 3 3 4 4 4 5 5 6 6 7 7
19 21 17 14 10 10 7 7 6 6 8 9 13 12 12 11 11 10 9 9 8 8 7 7 6 5 5 4 4 3 2 1 1 2 2 3 3 4 5 5 6 6 6
19 21 18 15 13 11 6 2 4 4 5 7 8 11 13 12 13 13 12 12 11 10 10 9 7 7 6 5 5 4 3 2 1 1 2 3 4 5 6 6 7 8 8
16 16 18 17 16 13 8 3 2 3 3 5 6 7 10 11 12 13 14 13 12 11 10 9 8 7 7 6 5 4 3 2 1 2 4 5 6 8 9 9 9 10 9
13 15 17 17 17 15 12 7 6 5 5 3 3 3 5 6 7 9 10 11 12 11 11 11 10 9 8 7 5 4 3 3 4 4 5 7 8 9 10 11 11 12 12
13 14 17 18 18 18 15 13 12 9 8 5 1 1 1 2 3 5 6 7 8 8 8 8 8 7 7 6 6 5 5 4 4 5 6 7 8 10 11 11 12 12 11
13 15 16 19 19 20 18 15 14 12 10 9 7 5 4 3 3 3 2 2 3 3 4 5 6 5 5 6 5 5 5 6 6 7 7 8 9 10 10 11 13 11 11
12 13 13 17 20 21 20 17 16 14 13 12 10 10 9 8 7 5 6 5 4 3 2 1 1 3 5 5 6 7 7 8 8 9 10 10 10 11 11 11 11 10 10
13 13 14 15 17 20 21 19 17 17 16 15 14 14 14 13 11 10 9 9 9 9 8 7 6 5 5 5 6 8 10 11 12 13 13 13 12 11 11 11 11 10 9
16 19 17 17 17 18 21 22 19 16 17 18 18 18 17 16 16 15 13 13 13 13 12 12 12 11 10 10 10 10 10 12 14 15 15 14 13 11 10 10 9 9 8
20 19 21 20 20 19 20 22 23 22 20 20 20 21 21 20 19 19 18 17 17 17 16 16 16 15 15 15 14 14 13 14 15 16 15 14 13 11 10 9 8 8 7
23 21 22 23 23 22 22 23 23 24 22 23 24 23 24 24 23 24 23 22 21 20 20 20 19 19 19 18 17 16 16 15 16 18 17 14 12 11 10 8 8 6 6
27 26 24 24 25 25 25 24 24 24 24 25 25 24 26 27 28 28 27 26 26 24 23 23 22 23 22 21 20 19 17 17 18 18 17 15 12 11 10 8 7 6 6
31 30 28 26 27 27 27 29 31 30 29 28 27 27 27 28 29 30 30 29 29 28 27 26 26 26 25 23 22 21 20 19 19 20 18 16 13 12 11 10 8 8 7
34 34 33 33 33 34 33 31 31 31 32 32 32 31 31 31 31 31 31 31 31 31 30 29 29 28 27 25 24 23 22 21 21 21 19 17 15 14 13 12 11 11 10
39 39 39 39 38 37 34 34 33 32 31 31 33 33 35 36 34 34 33 32 33 33 33 32 32 31 29 28 27 25 23 23 24 23 21 19 17 17 16 16 15 14 13
42 43 43 43 41 39 39 38 36 35 34 36 35 34 35 36 37 36 35 34 36 34 34 33 33 32 31 29 28 26 25 25 26 24 22 21 20 19 19 19 18 17 17
45 46 46 47 45 44 45 43 42 41 37 37 35 33 35 36 35 37 37 36 35 34 33 34 33 33 32 30 29 28 27 28 28 26 24 23 22 22 22 22 21 21 20
41 45 46 47 48 49 50 50 50 49 48 45 41 39 35 37 36 36 36 36 37 36 35 35 34 33 32 31 31 31 31 30 29 27 26 25 25 25 25 25 25 24 24
36 37 38 39 40 43 44 47 49 49 50 50 49 46 41 39 37 37 37 37 37 37 38 37 34 34 32 31 32 34 34 33 29 28 27 26 26 27 28 28 28 28 28
26 29 33 35 36 36 37 39 40 43 44 42 44 48 48 46 44 44 43 43 41 39 37 39 38 36 36 34 35 36 36 34 32 31 29 27 27 27 29 31 32 32 32
19 21 23 27 31 34 36 38 42 44 41 38 36 37 43 49 51 50 49 48 45 43 41 38 40 41 40 39 35 36 37 35 34 32 31 28 27 28 30 33 34 35 36
23 24 25 26 29 31 32 31 34 42 40 40 38 37 36 38 40 44 49 52 51 50 46 43 43 43 41 42 37 33 35 36 34 33 32 32 30 30 33 34 35 38 38

GFSSE_700_spd_033.txt.gz
Wind_Speed
8 4 3 5 8 9 11 12 11 10 9 10 10 10 9 8 6 6 6 7 7 5 7 9 8 6 6 6 5 6 5 4 5 6 7 7 7 7 6 6 6 7 7
11 7 6 5 7 9 10 11 12 11 10 10 10 9 8 7 6 5 6 6 8 8 10 10 9 9 7 6 5 5 5 5 4 5 6 5 5 5 5 6 7 8 8
14 12 9 6 6 8 9 10 11 12 12 11 9 9 8 8 6 5 5 6 8 9 9 8 8 7 7 6 5 5 4 3 3 3 3 3 4 5 6 7 8 7 7
15 17 13 10 7 7 8 8 9 10 11 11 10 11 10 8 7 6 6 6 6 7 7 6 6 6 5 4 4 4 3 3 2 2 3 4 5 6 6 6 7 7 6
19 20 17 14 10 9 8 7 7 7 9 9 11 10 11 11 10 9 8 7 7 7 6 6 5 5 4 3 3 2 2 0 1 2 3 4 4 5 6 6 7 7 7
18 23 19 17 12 11 8 6 5 5 5 8 8 10 11 12 12 11 10 10 9 8 7 7 7 5 5 4 4 3 2 2 1 0 1 3 4 5 6 7 8 9 8
18 21 20 18 16 14 11 9 6 4 3 5 7 7 9 10 11 11 12 11 10 9 8 7 6 5 5 4 3 3 2 1 2 3 4 5 7 8 8 9 10 10 10
14 16 19 19 17 16 14 11 8 6 5 2 4 5 5 7 8 9 10 10 9 9 9 9 8 8 7 6 5 4 3 3 4 5 6 7 8 9 10 10 11 10 10
7 12 16 18 18 18 17 14 12 9 8 6 2 1 1 3 4 5 5 5 6 7 7 7 7 7 7 7 6 6 6 6 6 7 8 9 9 10 10 10 11 10 9
12 12 13 17 19 20 19 17 15 13 12 11 8 6 4 3 2 3 4 3 1 1 2 2 4 6 7 6 7 7 7 8 8 9 10 11 11 11 11 11 11 9 9
17 13 12 16 19 20 21 19 18 16 16 15 13 11 10 9 7 7 6 7 6 5 4 3 2 2 3 4 6 7 8 10 11 12 12 12 13 13 13 12 11 11 10
15 16 15 13 15 19 21 20 19 19 18 17 15 14 14 14 13 12 11 10 11 11 10 9 8 8 7 7 8 8 10 11 13 15 15 15 14 14 13 13 12 10 9
17 18 17 17 16 16 19 21 21 21 20 19 19 18 18 18 17 16 16 16 15 15 14 14 14 13 13 13 12 12 12 13 14 16 16 17 14 14 13 12 11 10 9
17 18 21 22 20 18 18 20 21 21 20 19 19 21 21 22 21 21 20 20 19 18 18 18 18 17 17 17 17 16 16 16 16 17 17 18 17 14 12 12 11 9 9
24 23 22 23 24 22 21 21 22 23 24 24 24 24 24 25 25 25 25 24 23 22 22 22 21 21 21 21 20 19 19 18 18 19 18 19 17 15 13 12 10 9 8
28 26 25 23 24 24 24 23 24 24 24 25 27 26 26 27 28 29 28 28 27 26 26 26 25 24 24 25 24 23 22 21 21 20 20 20 18 16 15 12 11 10 9
28 28 28 27 26 25 26 27 27 26 26 27 28 28 28 29 30 31 33 30 30 30 30 29 29 28 28 27 27 26 25 24 22 22 22 20 19 18 17 14 13 12 11
34 33 32 32 30 29 29 29 31 30 31 31 32 33 33 31 33 33 33 32 31 34 34 33 32 32 31 30 30 29 28 26 24 24 23 23 21 19 19 17 15 15 14
34 36 37 37 36 34 34 34 35 34 35 33 35 36 35 34 34 34 35 38 35 34 36 35 34 34 34 34 32 31 30 29 27 26 25 24 24 22 21 20 19 18 18
37 39 40 42 42 40 40 42 40 40 38 37 36 34 32 34 33 36 37 39 38 38 37 37 37 36 36 36 34 33 32 31 29 28 28 26 25 24 24 23 22 21 21
38 39 40 41 42 43 43 46 43 42 40 40 39 38 36 34 36 36 37 39 41 40 39 37 37 36 36 37 37 35 34 33 31 30 29 28 27 26 26 25 25 24 25
38 39 40 42 43 44 46 47 48 46 44 44 43 43 42 41 39 38 38 38 40 40 40 39 38 36 35 37 37 37 37 35 33 32 31 30 29 28 28 28 28 28 28
36 36 37 37 38 39 41 43 45 48 49 47 46 46 46 46 44 43 42 39 39 40 40 40 38 38 37 36 36 38 38 36 33 34 33 32 31 30 30 30 30 30 31
32 32 33 34 35 36 37 39 40 40 42 41 41 40 41 43 45 46 47 47 43 44 44 42 41 39 39 40 37 38 38 38 35 37 36 34 33 32 31 30 30 31 33
25 25 24 25 27 30 33 37 39 39 39 40 41 41 41 41 43 47 51 51 51 50 49 47 46 44 43 42 41 39 38 39 39 40 40 37 35 33 33 31 32 34 35
26 26 26 27 27 28 30 32 34 36 37 39 40 43 42 42 41 40 42 50 53 55 54 52 50 48 45 45 43 42 42 44 41 40 40 39 35 37 34 35 41 36 36

GFSSE_700_spd_036.txt.gz
Wind_Speed
9 8 7 7 9 10 10 12 12 11 10 10 9 9 8 7 6 7 6 7 7 8 9 9 8 8 7 7 6 6 6 5 5 6 6 5 6 6 6 5 5 6 7
11 9 8 7 9 10 11 13 13 13 12 11 11 10 9 8 8 7 7 7 8 9 10 10 9 8 7 7 7 6 6 4 3 4 3 4 4 4 5 6 7 7 8
14 10 9 7 8 9 10 11 12 13 15 14 12 11 10 10 9 7 8 8 9 10 10 9 8 8 7 6 5 5 4 2 1 1 1 2 3 4 5 7 7 7 8
14 13 11 10 8 7 8 8 11 11 13 13 12 13 13 12 10 9 8 8 8 8 8 8 8 7 7 6 5 4 3 1 1 1 2 2 5 5 5 6 6 7 7
14 15 14 12 9 7 6 7 8 9 11 13 12 13 13 13 12 10 9 8 8 8 8 8 7 7 6 5 3 2 1 1 1 2 4 3 3 4 5 6 7 7 7
14 16 18 15 12 10 7 5 5 7 8 11 11 11 12 13 13 12 11 10 10 10 9 8 8 8 7 6 5 4 3 3 3 3 4 5 5 6 7 8 8 8 7
16 17 20 18 15 13 10 8 5 4 5 6 9 9 9 11 12 12 12 12 12 12 11 10 10 9 8 7 7 6 5 5 6 6 6 7 7 8 8 9 9 9 8
16 15 20 18 17 15 14 11 8 6 3 2 4 7 6 7 9 10 10 11 11 10 10 10 9 9 9 8 8 7 7 7 7 8 8 8 9 9 10 10 10 9 9
9 12 16 18 18 17 16 15 12 10 7 4 1 1 4 5 5 6 7 7 7 7 8 8 8 8 7 7 6 7 7 8 9 9 10 10 11 11 11 11 10 10 10
10 11 13 16 18 19 18 18 16 13 11 9 7 5 3 1 2 2 3 4 4 4 4 4 4 6 7 7 7 7 8 9 10 11 12 13 13 12 12 12 10 9 9
13 14 14 14 17 19 20 20 18 17 15 14 12 10 8 8 7 5 5 5 5 6 5 5 5 5 5 5 6 7 8 9 10 12 13 14 15 15 15 13 12 11 10
15 17 18 16 15 18 19 20 19 19 18 17 15 14 13 13 13 11 11 10 9 9 10 10 10 10 10 10 11 11 11 12 13 13 15 15 16 16 15 14 12 11 10
14 15 18 18 16 15 16 17 19 20 19 18 17 16 16 16 17 16 16 15 14 14 14 14 14 14 14 14 16 16 16 16 16 16 16 17 16 17 16 15 13 12 10
14 14 17 18 19 19 17 17 18 20 21 21 20 19 19 20 20 21 21 20 20 19 18 18 18 17 16 17 18 19 20 20 21 18 17 18 19 19 17 15 14 13 12
19 18 18 18 20 21 21 21 21 21 22 23 23 23 23 23 23 23 25 25 25 24 24 22 23 21 20 20 20 21 21 22 24 21 19 19 19 19 18 16 15 13 11
24 23 22 22 21 21 22 23 22 23 23 22 23 24 26 28 27 26 26 27 27 28 28 27 27 26 25 24 24 24 24 24 25 24 22 21 21 21 20 17 16 14 12
27 27 26 24 22 23 22 24 26 25 26 25 25 25 25 26 27 28 29 28 28 30 31 31 30 30 30 28 28 28 27 26 27 29 24 23 22 21 21 19 18 17 15
27 28 30 27 26 26 25 26 27 28 29 28 27 29 30 30 30 31 33 31 30 30 29 30 31 31 32 32 32 31 31 31 29 29 29 25 24 23 23 21 20 19 17
32 31 31 33 33 29 30 31 29 30 32 33 31 32 33 33 33 34 34 35 32 33 32 33 33 31 32 32 32 33 34 34 32 31 30 29 26 24 24 22 22 22 21
35 33 35 37 38 38 36 35 35 34 36 37 37 38 34 35 34 33 32 33 36 35 35 35 35 34 33 33 34 36 35 36 33 33 31 31 30 27 25 25 24 24 24
36 35 34 34 37 39 38 39 41 41 38 40 40 41 40 38 38 35 34 33 40 37 35 36 37 36 35 35 35 35 35 35 35 34 34 33 31 30 27 25 26 26 26
34 35 35 35 37 38 41 41 42 44 44 41 40 40 41 43 42 42 40 38 39 43 39 39 38 37 36 37 36 34 37 37 36 35 35 35 32 31 32 27 28 27 28
33 34 34 34 34 35 36 38 39 41 44 43 39 36 37 42 46 46 46 47 43 42 45 41 40 38 37 37 36 36 40 40 37 36 36 35 34 33 32 32 30 30 29
31 30 30 31 32 32 33 34 35 37 38 39 40 36 33 33 35 40 45 47 48 45 45 47 44 43 41 40 39 38 39 41 40 38 36 35 34 35 35 34 33 32 33
27 28 28 27 28 28 28 30 32 35 36 37 38 38 37 36 36 37 37 40 47 48 49 50 50 50 48 46 45 43 42 42 42 40 38 34 35 38 39 36 34 34 34
23 25 25 26 27 28 28 28 29 30 31 33 34 36 37 38 39 35 37 37 39 42 44 49 54 55 55 53 51 48 46 45 42 43 41 43 41 39 40 40 38 35 36

GFSSE_700_spd_039.txt.gz
Wind_Speed
13 12 11 10 11 10 9 9 9 9 8 9 9 9 9 8 7 8 8 8 6 8 9 9 8 8 7 7 6 7 7 6 4 6 6 5 5 4 4 4 4 5 6
13 11 11 10 10 9 11 10 11 12 12 12 11 10 10 9 9 9 9 9 9 10 10 10 9 8 6 6 4 4 3 2 1 2 3 3 4 4 4 5 6 6 6
15 12 11 11 10 8 8 10 12 14 16 14 13 12 12 11 10 10 9 10 10 10 10 10 9 8 8 7 5 3 2 1 2 2 3 4 4 5 5 6 6 7 7
16 14 13 12 10 7 6 8 13 16 17 16 14 14 14 13 13 11 10 10 10 10 10 9 8 7 7 6 5 4 3 3 2 3 2 4 4 5 6 6 6 6 6
17 16 14 13 10 7 4 6 9 13 15 17 15 14 14 14 14 13 13 12 11 10 9 9 8 7 7 6 6 5 5 5 5 5 4 5 5 6 6 7 7 8 7
16 18 17 15 12 9 5 4 5 8 11 14 15 13 12 13 13 14 14 13 12 12 11 10 10 9 8 8 7 7 7 7 7 7 7 6 6 7 8 8 9 8 9
13 17 19 17 14 12 9 6 5 3 6 9 11 13 11 10 11 12 12 12 12 12 12 12 11 11 10 10 9 8 8 8 7 7 7 8 8 8 9 9 9 8 8
15 17 18 19 16 14 13 10 8 7 2 4 6 7 9 9 8 9 9 10 10 10 10 11 10 10 9 9 9 8 8 8 8 8 9 9 10 10 10 10 10 11 11
15 15 17 18 17 16 15 14 12 10 8 3 0 2 4 5 6 6 6 6 7 8 9 9 10 10 10 9 9 9 8 9 9 9 10 11 11 12 12 12 11 11 11
12 13 15 17 18 18 18 16 16 14 12 9 6 3 2 1 1 3 4 5 5 5 5 5 5 6 7 8 8 9 9 11 12 13 13 13 13 13 13 12 11 10 11
12 11 13 15 17 18 18 18 17 16 14 13 11 9 8 6 6 5 5 4 4 5 6 6 5 5 7 8 8 9 11 11 12 13 15 16 16 15 14 12 12 11 10
14 14 13 13 14 15 17 18 18 17 16 15 15 13 12 11 11 10 10 9 8 9 9 9 9 9 10 11 12 12 12 13 14 14 15 16 18 18 17 15 13 12 11
11 13 14 15 15 15 15 16 17 17 17 16 17 17 16 15 13 13 14 14 15 15 14 15 14 13 13 14 15 16 16 16 15 17 16 17 18 18 18 17 15 13 12
12 13 12 11 13 15 17 15 15 16 17 18 19 19 20 19 17 16 17 17 19 20 20 20 19 18 18 17 18 19 20 20 19 19 19 18 19 19 19 18 17 15 14
15 14 14 14 14 14 15 17 18 18 18 18 19 21 21 20 20 19 20 21 22 23 23 24 23 23 23 22 22 22 23 24 21 22 23 22 21 21 21 19 18 16 15
21 18 19 18 17 19 19 20 20 20 20 21 22 22 23 24 24 25 24 25 25 25 25 25 25 26 26 26 25 25 25 27 24 23 24 24 22 21 22 21 19 18 16
26 24 23 22 23 24 21 20 20 21 22 23 23 23 24 25 26 26 27 26 25 27 28 29 28 28 28 28 28 28 27 29 29 25 25 26 25 23 22 22 20 19 18
29 28 27 26 27 25 24 23 23 22 24 25 25 25 25 25 26 28 29 28 29 30 29 30 29 29 28 27 28 29 29 29 32 29 28 28 27 25 24 23 22 21 21
28 29 29 29 25 25 26 27 27 28 27 27 28 27 28 30 31 32 30 28 29 31 31 31 32 32 31 29 30 30 30 30 31 34 32 30 29 28 27 25 23 22 23
32 32 31 31 30 30 30 30 31 31 31 31 31 32 32 33 34 33 33 33 31 30 31 31 32 32 32 31 32 33 33 33 33 33 35 32 30 30 29 27 26 24 24
32 35 33 32 34 35 34 35 33 33 33 34 36 36 36 37 38 38 35 35 37 35 33 33 34 35 33 31 34 36 36 34 34 33 34 34 31 30 30 29 29 27 26
34 32 32 33 33 33 35 37 38 38 37 36 37 39 40 41 41 41 41 38 39 41 39 40 39 39 36 35 36 36 38 36 35 33 34 34 34 34 32 31 31 30 29
32 29 30 32 33 33 34 35 36 38 37 37 37 35 34 35 37 40 42 41 42 42 43 42 43 40 41 39 39 40 40 40 36 33 34 35 35 36 34 33 32 33 32
30 29 29 30 31 31 31 32 32 34 36 36 37 37 34 32 32 34 36 39 41 40 41 42 43 44 43 44 43 43 42 42 41 41 37 36 36 35 34 33 32 33 33
30 29 29 28 28 27 27 27 29 31 31 32 33 34 32 31 32 32 33 36 39 40 38 39 41 44 46 46 48 46 45 45 46 45 45 41 40 37 39 37 40 36 38
27 27 26 26 26 27 27 28 29 29 30 31 30 31 32 33 33 33 33 34 34 35 36 35 37 40 41 42 47 47 49 48 47 47 47 46 44 42 41 44 40 39 42

GFSSE_700_spd_042.txt.gz
Wind_Speed
14 14 13 11 11 12 12 12 12 11 9 9 8 8 8 8 7 8 9 8 7 9 9 8 7 7 5 5 6 8 7 7 5 5 6 6 6 5 4 4 4 5 6
14 13 13 12 10 11 13 15 10 10 10 9 9 9 10 9 9 9 11 10 10 10 10 9 8 6 5 4 3 2 1 1 2 1 2 3 4 4 4 5 5 5 5
17 13 14 12 10 9 10 11 14 12 11 11 11 11 11 11 10 11 11 11 10 10 10 9 8 7 7 6 5 4 4 3 4 3 3 3 5 5 5 5 6 6 6
17 14 14 13 11 9 8 7 10 15 16 14 13 13 13 13 13 12 11 10 10 9 9 8 8 7 7 6 6 5 5 6 5 6 6 5 5 5 6 6 7 7 7
18 15 14 14 13 10 8 6 6 10 15 17 16 14 13 14 13 13 13 12 12 11 10 10 9 9 8 8 7 7 7 7 5 4 5 5 6 7 8 8 8 8 8
18 16 16 15 13 12 9 5 3 6 11 16 17 17 14 12 11 12 13 13 13 13 12 12 12 11 11 10 10 9 8 7 7 7 7 8 9 9 9 8 8 9 8
19 19 19 17 16 14 11 7 5 2 6 11 15 16 16 14 12 11 11 11 11 12 12 12 12 12 11 11 11 10 10 11 10 11 10 10 10 11 11 11 10 11 10
17 20 21 20 18 16 14 10 7 4 1 4 10 12 13 14 13 13 11 10 10 10 10 11 11 11 11 11 11 11 11 11 11 11 12 13 13 13 12 12 12 12 12
18 20 22 22 20 17 14 13 10 7 6 3 0 8 6 9 10 8 9 10 9 8 8 9 9 10 10 11 12 12 12 13 13 14 15 15 15 14 14 13 12 13 12
19 20 19 22 20 18 16 14 13 11 10 9 7 4 5 6 7 7 2 2 3 5 6 6 7 8 9 10 10 11 12 12 12 13 14 15 16 16 15 14 13 13 13
18 17 17 18 18 17 16 16 15 15 13 13 12 11 9 7 5 6 5 5 5 4 4 5 5 6 8 9 10 11 12 13 14 15 15 16 17 17 18 16 14 13 13
13 12 12 13 14 15 15 16 16 15 15 15 16 15 15 13 10 10 10 10 10 10 10 10 10 9 10 11 11 11 12 13 14 15 16 18 19 19 19 19 17 15 13
11 10 10 12 13 13 14 15 15 15 15 16 17 17 17 16 14 13 13 13 14 14 15 15 15 15 15 16 16 16 15 14 15 16 17 18 18 19 20 19 19 17 15
12 11 11 10 11 13 14 14 13 14 16 16 17 18 17 17 16 16 16 16 16 17 17 18 19 19 20 21 21 20 21 19 18 18 18 19 19 19 19 20 19 18 17
13 14 13 12 12 11 12 13 16 17 16 17 18 19 19 19 18 18 17 18 19 19 20 21 22 23 23 24 25 25 25 23 22 22 21 21 21 22 21 20 20 18 17
17 17 16 16 15 16 16 17 18 18 19 19 20 20 21 21 21 21 21 21 21 21 22 23 23 24 25 26 26 27 27 27 26 25 24 24 24 23 23 23 21 20 19
22 22 20 20 20 20 21 20 19 19 19 20 21 22 22 22 22 23 23 23 23 25 26 26 26 26 25 25 26 26 28 29 28 27 26 26 26 25 25 25 24 22 20
29 27 26 25 24 25 25 24 22 21 21 22 22 22 22 23 24 25 25 25 26 26 27 28 29 30 30 28 27 28 28 29 29 28 28 27 27 28 27 27 26 25 23
30 29 29 28 28 28 28 28 26 25 25 25 25 24 23 25 27 28 29 29 28 28 28 28 29 29 29 29 30 30 30 31 32 31 30 30 29 29 29 28 27 26 26
26 27 29 29 29 30 31 31 30 29 29 28 27 29 29 29 30 31 30 30 30 31 30 29 30 31 32 30 33 33 32 32 34 33 32 32 31 29 28 29 29 28 28
27 28 29 29 30 31 32 32 31 30 30 31 31 30 32 33 33 34 35 36 36 36 34 34 34 35 35 34 35 37 37 35 35 34 34 33 31 29 29 29 30 30 30
31 30 31 33 33 34 35 35 36 35 33 31 31 32 33 35 36 38 38 38 39 38 38 38 38 38 38 38 39 38 42 41 38 35 35 35 33 32 31 30 31 32 32
34 33 32 32 34 35 36 36 36 37 36 34 32 31 32 34 36 37 36 39 39 38 39 38 38 38 39 40 40 42 45 46 43 39 36 36 36 35 32 32 33 32 33
33 32 32 31 32 33 35 35 35 35 35 35 34 34 34 34 34 35 35 36 37 38 38 39 39 38 39 40 42 42 44 46 47 47 45 40 39 40 39 36 34 35 33
34 34 33 33 32 32 32 32 32 32 33 33 34 34 32 30 31 31 33 32 34 37 37 38 40 41 41 40 41 41 44 46 46 49 50 50 44 43 42 41 39 37 39
34 34 34 33 32 31 30 29 30 31 32 31 31 32 32 32 31 31 32 32 33 35 33 35 36 37 37 38 39 39 40 41 48 45 48 54 55 44 43 45 45 42 43

GFSSE_700_spd_045.txt.gz
Wind_Speed
10 12 13 13 14 16 16 13 13 13 12 11 10 10 10 10 10 10 9 10 12 12 10 9 7 5 3 2 5 7 6 6 7 6 5 6 7 7 7 7 7 8 8
10 8 12 11 12 13 15 19 16 14 13 12 12 11 11 10 10 11 12 12 12 12 11 10 8 7 6 5 4 3 3 3 4 5 5 6 6 7 7 8 8 7 7
15 9 11 10 11 10 11 15 19 18 13 12 12 11 11 12 12 12 13 12 12 11 12 11 10 10 9 8 7 7 7 6 7 7 7 7 7 8 7 7 7 7 7
16 12 11 9 10 9 8 10 14 17 19 15 13 12 13 14 14 14 13 12 12 12 12 11 11 10 10 9 9 9 8 7 8 8 9 9 8 8 8 8 8 9 9
16 14 12 11 10 7 6 7 10 13 16 19 17 16 15 15 15 15 16 15 15 14 14 13 13 13 13 13 12 11 11 11 10 11 11 10 10 10 10 10 11 11 11
18 15 13 13 12 8 5 4 5 7 11 16 18 18 18 17 15 15 15 15 15 15 15 15 15 15 15 14 13 13 12 12 12 12 12 12 13 13 12 13 12 12 12
19 17 14 15 14 12 9 7 4 2 5 10 15 17 18 17 17 16 14 13 13 14 14 14 14 14 13 12 12 12 12 12 12 12 13 14 14 15 15 14 14 14 13
21 19 17 17 16 14 12 9 7 4 0 3 10 14 15 16 15 15 15 15 14 12 12 12 12 12 13 13 13 13 14 14 15 15 15 16 16 17 16 16 15 14 13
22 23 20 20 19 17 15 13 10 8 5 3 1 6 10 12 11 11 12 11 11 12 12 12 12 11 11 11 11 12 12 13 14 15 16 17 18 17 17 16 16 15 14
19 19 21 23 21 19 16 15 13 11 10 8 6 5 2 1 7 8 8 8 6 6 6 6 7 8 10 10 11 12 11 12 13 14 15 16 17 19 18 17 17 16 15
23 20 19 22 23 20 18 16 14 13 13 12 11 10 9 8 6 5 6 7 6 7 7 7 7 7 8 8 9 11 11 11 11 13 14 14 16 17 19 18 19 18 16
17 17 19 20 21 19 17 15 15 14 13 13 14 14 14 13 12 12 10 10 10 11 11 12 12 12 13 13 13 13 13 14 13 14 14 15 16 17 18 19 19 19 18
14 13 12 13 14 14 14 14 14 14 14 15 15 15 16 16 15 15 14 13 13 14 14 15 16 16 17 17 18 18 17 17 18 18 17 17 17 19 19 20 20 19 19
13 13 11 10 10 11 11 12 12 12 13 14 16 16 16 16 16 16 16 15 15 15 17 18 19 19 19 20 21 21 21 21 22 21 21 21 21 20 20 21 21 21 20
14 12 11 10 9 10 10 11 13 14 14 15 16 17 17 17 18 17 17 17 18 18 20 20 20 20 21 22 23 23 23 23 24 24 23 23 23 22 22 21 21 21 22
16 14 13 12 12 12 12 12 14 15 16 17 18 19 19 19 19 19 19 19 19 19 20 22 22 23 23 23 23 24 24 24 25 25 25 25 26 25 24 23 23 22 22
19 19 17 17 18 17 17 18 17 18 19 19 17 18 19 20 21 21 21 21 21 22 22 24 25 26 26 26 25 26 26 26 27 26 26 27 27 27 27 26 25 24 23
23 22 22 22 22 21 21 22 22 22 21 20 20 20 20 20 22 22 23 24 25 26 27 27 27 27 26 26 27 27 28 29 29 29 28 28 27 27 28 29 28 27 26
26 26 27 26 26 26 26 26 26 27 25 23 23 23 23 23 25 27 27 27 28 29 29 28 28 28 28 27 29 30 31 31 31 30 29 29 29 29 29 30 30 29 27
26 27 26 27 28 29 29 30 30 30 28 27 25 25 26 27 29 30 31 30 30 31 31 31 32 31 32 31 32 33 34 35 34 31 31 31 31 31 31 30 29 30 30
31 28 27 28 29 30 30 30 31 30 30 29 29 29 29 30 30 32 33 33 34 36 36 36 35 35 34 34 36 37 38 37 39 36 34 33 33 32 32 31 31 31 31
31 30 30 30 30 30 31 32 33 32 33 33 32 32 32 32 33 35 35 36 37 39 39 39 39 38 37 36 37 39 43 42 39 37 35 35 35 34 33 32 32 32 33
31 31 32 31 33 33 34 34 34 35 35 35 34 32 31 34 34 36 37 39 38 39 39 38 38 37 36 37 35 37 42 45 45 44 39 37 38 37 36 35 35 37 36
30 32 33 33 33 33 32 32 34 35 34 34 34 34 32 32 33 34 35 36 37 38 38 37 38 38 38 38 38 37 39 43 46 49 44 44 41 40 42 39 41 43 40
33 33 34 35 35 35 34 34 35 34 34 33 33 33 33 32 32 31 31 32 32 32 33 34 34 34 35 37 37 36 37 38 41 39 47 46 41 42 41 41 42 51 48
34 35 37 37 36 36 36 35 34 34 33 33 32 32 32 32 32 32 33 32 33 33 34 35 35 34 34 33 34 35 36 38 40 42 45 46 46 45 43 44 45 48 43

GFSSE_700_spd_048.txt.gz
Wind_Speed
10 13 15 16 17 20 20 16 15 14 13 13 13 13 13 13 14 14 14 17 16 14 13 12 9 6 3 1 2 2 4 5 7 7 7 7 7 8 9 10 10 10 9
8 9 12 13 14 17 20 23 19 16 16 16 16 16 15 15 15 15 15 16 16 16 16 15 13 11 10 9 9 8 7 7 8 9 9 9 9 10 10 10 9 9 9
11 9 10 12 12 13 15 19 22 22 19 17 17 16 16 16 16 16 16 16 16 16 16 16 15 14 14 13 12 10 10 9 10 11 11 12 12 11 10 10 9 10 9
14 10 11 11 10 10 10 14 18 21 23 21 17 16 16 17 17 18 17 17 17 17 17 17 16 16 15 14 13 12 12 13 13 13 13 13 12 12 11 11 11 10 11
18 14 11 9 9 8 8 10 13 17 21 22 19 19 18 17 17 17 18 18 19 19 18 18 17 17 16 16 15 15 15 15 15 15 15 14 14 13 13 13 13 13 12
19 17 12 9 9 6 6 6 8 12 15 18 20 19 18 19 18 17 17 17 17 17 16 16 15 15 15 15 14 15 14 14 14 14 14 14 15 14 14 13 13 13 13
20 19 14 11 11 8 6 5 5 6 9 11 14 17 18 17 19 20 20 18 17 16 16 15 15 15 15 15 15 14 14 15 14 15 15 16 16 17 17 16 15 13 13
21 18 15 14 13 11 9 6 5 3 3 5 8 11 13 15 16 16 16 16 16 18 18 18 17 15 15 14 13 13 13 13 14 14 15 16 17 17 17 18 17 16 14
23 20 17 16 15 14 13 10 8 6 4 1 1 3 6 9 11 12 12 12 12 12 11 12 13 15 14 14 13 12 13 14 14 14 15 15 16 16 16 17 18 18 17
23 22 22 20 18 18 16 13 11 9 8 7 5 3 2 0 3 7 9 9 9 10 10 9 8 8 8 9 10 10 10 11 12 13 14 15 16 16 17 16 16 17 17
21 21 23 22 21 19 18 16 14 13 12 11 10 9 8 7 7 5 4 5 8 8 8 9 9 9 10 11 11 12 12 12 12 12 13 14 16 17 17 18 17 16 16
21 21 20 21 21 21 20 17 15 13 13 12 13 12 12 12 11 10 9 9 9 9 10 11 12 12 13 14 14 14 15 16 16 16 16 16 17 16 18 18 18 17 17
19 20 19 20 21 20 19 16 14 13 12 13 13 13 13 13 13 12 12 12 12 12 13 13 14 16 16 17 18 18 18 18 18 18 18 18 19 19 20 20 19 18 17
15 16 16 15 15 16 15 14 13 13 13 14 14 14 14 13 13 13 14 14 14 15 15 15 17 18 19 20 20 20 19 19 19 20 20 21 21 21 21 21 21 20 19
16 15 14 14 13 13 12 13 12 13 13 14 14 14 15 14 15 15 16 16 16 17 19 20 20 20 21 22 22 22 22 21 21 21 22 23 24 24 24 23 23 22 21
16 14 14 13 13 11 11 11 12 12 13 13 15 17 17 17 17 16 17 18 18 19 20 21 21 22 23 24 24 24 23 22 23 23 23 24 24 25 26 26 25 24 24
17 16 15 14 14 13 14 14 15 16 16 16 17 18 18 18 18 18 19 19 20 22 23 23 23 24 25 25 23 24 24 25 24 25 25 25 25 25 25 26 26 26 26
22 19 18 16 16 18 18 18 19 20 19 20 19 18 19 19 20 20 20 21 23 25 26 26 27 27 26 26 26 26 26 25 25 25 25 26 26 26 26 26 28 28 27
23 23 22 21 22 22 22 23 24 24 23 23 22 21 21 21 22 24 24 25 27 28 29 29 30 30 30 29 30 29 30 31 29 28 26 26 27 27 27 27 28 29 29
23 25 27 28 27 26 26 26 25 25 26 26 24 23 23 24 26 28 29 29 31 31 31 32 34 34 35 34 33 33 33 33 33 33 31 29 29 29 29 29 29 30 31
23 24 23 25 26 28 27 27 27 28 28 28 27 27 27 27 28 30 30 31 32 34 34 36 37 37 36 36 38 38 38 37 36 35 33 33 30 29 31 31 31 32 32
28 29 28 27 28 28 27 26 27 28 28 29 29 30 31 31 31 32 32 33 35 37 37 38 39 40 39 36 36 36 40 37 35 35 34 34 33 34 34 34 34 34 35
28 28 28 28 29 29 28 29 30 32 32 31 32 33 33 33 33 34 35 35 36 38 38 38 37 38 38 36 35 36 40 42 40 38 38 36 36 37 34 35 37 39 39
29 31 32 31 31 31 31 30 31 32 32 32 32 33 33 34 33 34 35 35 36 37 37 37 36 36 36 35 35 34 36 39 40 42 41 38 38 34 36 36 36 37 38
25 26 27 29 31 32 32 32 33 33 33 33 33 32 32 33 33 33 33 32 32 33 33 33 31 33 33 35 35 36 35 33 34 38 44 43 42 42 42 41 37 36 37
30 30 31 32 33 34 35 36 36 36 35 34 32 32 31 32 33 33 33 34 34 35 35 33 34 34 34 35 33 34 33 35 37 38 42 44 44 42 39 36 35 35 36

GFSSE_700_spd_051.txt.gz
Wind_Speed
13 15 17 20 22 23 20 18 17 17 17 16 15 15 14 16 17 17 19 19 18 17 16 13 10 9 6 4 4 3 6 8 9 9 9 8 8 9 9 9 9 9 8
10 12 16 19 21 22 24 23 20 19 18 18 17 17 17 18 18 18 19 19 19 19 18 16 15 14 12 11 10 10 10 10 10 10 10 10 11 10 10 10 10 9 9
12 12 15 17 18 19 21 23 24 21 19 18 18 18 19 19 18 18 18 19 19 18 17 17 16 15 14 13 13 12 12 12 12 13 13 13 12 11 11 10 10 10 9
14 13 14 15 15 16 17 18 21 23 21 19 18 18 19 19 19 19 20 21 20 19 18 18 18 17 16 16 15 15 14 14 15 15 15 14 13 12 12 12 11 11 10
16 14 14 13 13 12 12 14 16 20 23 21 20 20 20 19 18 18 19 19 19 19 18 18 18 17 17 17 16 15 14 14 14 14 13 13 12 11 12 12 13 13 12
18 16 13 12 11 10 9 10 12 15 19 19 21 19 21 22 21 20 19 19 19 18 18 18 17 17 16 15 15 15 15 15 15 15 14 14 14 14 15 14 13 12 11
20 21 16 12 11 10 8 7 7 10 13 14 16 18 19 17 19 19 20 21 21 21 20 19 18 17 17 16 16 15 15 14 14 14 15 15 16 17 16 15 14 13 12
22 22 20 14 12 11 10 7 6 5 7 9 11 14 14 16 16 15 15 15 15 16 16 17 17 17 16 15 14 14 14 13 13 13 14 14 14 14 14 15 14 14 13
25 23 21 18 14 12 11 10 7 6 5 5 4 5 6 8 10 10 11 11 11 11 12 12 12 11 11 10 11 11 11 11 11 12 12 13 13 14 15 15 15 15 14
27 24 22 19 17 15 14 13 10 8 7 6 4 3 2 1 2 4 6 8 8 9 9 9 8 7 8 8 8 9 10 10 11 11 12 12 13 12 13 15 15 15 16
27 26 25 23 21 19 17 15 14 12 11 9 8 7 6 5 5 5 4 4 3 5 6 7 8 8 9 10 11 11 12 13 13 14 14 15 15 16 15 14 14 15 15
26 27 27 24 22 20 19 18 16 14 13 12 11 11 10 10 9 9 8 8 9 8 8 8 10 11 13 13 14 14 15 15 16 16 17 18 18 18 18 17 16 15 15
22 22 22 23 22 22 21 19 17 16 14 13 13 12 12 12 12 12 12 11 11 11 11 11 12 13 15 17 17 18 18 18 18 18 19 19 20 20 20 20 19 18 17
23 24 23 22 21 21 20 19 17 16 15 14 13 13 12 12 13 13 13 13 12 12 13 14 15 17 18 19 20 21 21 21 21 21 22 22 21 21 22 21 21 21 21
18 20 20 19 19 18 17 17 16 15 14 14 13 12 13 13 14 14 14 14 14 15 17 18 18 19 20 20 21 22 23 23 22 22 23 23 22 22 22 23 22 22 21
17 18 17 17 17 17 17 16 16 15 15 14 13 13 15 16 16 17 16 16 17 19 20 20 21 21 22 22 23 23 23 24 23 23 24 23 23 24 24 24 24 24 23
17 18 18 18 18 17 17 16 14 14 13 13 14 14 15 17 18 18 18 19 19 21 21 22 23 23 25 25 25 25 25 26 24 24 23 22 22 24 25 26 26 26 25
22 20 20 19 17 16 16 16 16 16 16 16 17 18 17 17 18 19 20 20 22 22 24 24 26 27 27 28 27 28 29 28 27 26 25 24 25 25 25 26 27 28 28
23 23 21 20 18 18 19 20 19 19 19 20 20 20 20 20 20 21 22 22 24 26 27 28 29 31 31 31 32 32 33 32 31 31 29 27 26 27 27 28 29 29 29
22 21 21 21 21 22 23 23 23 23 23 23 23 24 25 24 23 24 24 25 28 29 30 31 32 34 35 35 36 36 34 34 35 34 33 32 31 30 30 29 30 31 31
22 22 22 23 24 25 25 26 26 25 26 26 27 27 26 27 27 27 27 28 29 31 32 33 35 36 37 37 41 39 37 34 33 33 33 32 32 32 31 31 32 33 34
20 20 22 24 24 24 25 25 24 25 25 26 27 27 28 29 30 30 31 30 31 32 34 34 36 38 39 38 40 39 40 35 33 33 31 31 31 31 32 34 35 36 36
21 21 23 24 25 27 27 27 26 27 27 28 28 29 30 31 31 32 32 32 32 35 35 36 36 38 39 38 37 37 38 38 36 33 31 31 29 28 29 32 32 32 33
26 24 25 27 27 27 27 28 29 29 28 29 29 30 31 32 33 34 34 34 34 35 35 35 36 36 36 35 34 32 34 37 38 39 35 31 29 31 32 33 33 33 34
28 28 26 26 28 29 30 30 30 30 31 31 31 32 33 33 33 33 34 34 33 33 33 33 33 33 33 33 33 34 35 36 34 37 37 36 34 32 35 34 32 31 30
26 25 25 26 27 28 29 31 32 33 34 34 34 34 34 33 34 34 34 34 34 33 34 34 34 34 33 34 34 35 34 32 36 34 36 35 34 32 28 28 26 24 23

GFSSE_700_spd_054.txt.gz
Wind_Speed
13 14 17 20 20 19 18 17 16 16 16 16 15 15 16 16 17 18 19 18 16 15 13 12 10 8 4 2 4 6 7 8 8 8 8 8 8 8 8 8 8 8 7
11 14 17 21 24 24 21 18 17 17 18 18 17 17 17 17 18 19 19 18 17 17 15 13 12 10 8 9 9 10 9 9 9 9 9 9 10 9 10 10 9 9 8
12 15 17 21 22 24 24 21 20 18 19 19 19 18 18 18 18 18 18 17 17 16 16 15 14 13 12 11 11 11 11 11 11 11 11 11 11 11 11 10 9 9 8
14 14 16 18 20 21 22 23 22 20 20 19 19 18 19 19 19 19 19 19 18 18 17 16 15 14 14 14 14 13 13 12 12 11 12 11 10 9 8 8 8 8 7
16 15 16 16 16 17 19 19 20 22 21 20 20 19 19 18 18 18 18 18 18 18 18 17 16 15 15 14 13 13 13 13 13 13 12 12 11 10 11 10 9 8 8
18 17 16 14 13 13 15 16 17 17 19 21 18 19 21 20 20 19 19 18 19 19 19 18 17 17 16 15 15 14 14 14 13 13 13 13 13 13 13 12 12 11 11
21 19 17 15 12 11 11 12 13 14 15 16 18 18 17 18 19 19 19 19 20 19 19 18 18 16 16 15 14 14 14 14 14 13 13 13 14 14 13 13 13 13 12
23 22 19 16 13 11 10 9 8 11 11 11 12 14 15 15 14 13 12 13 13 14 14 13 13 12 12 11 11 10 10 11 11 11 11 12 13 14 14 15 14 14 13
26 24 22 19 16 13 12 11 8 7 8 7 7 7 8 9 9 9 9 10 9 9 8 8 7 6 7 7 8 8 9 9 9 10 10 10 11 11 12 13 14 14 13
29 26 24 22 18 15 13 13 12 10 9 9 6 4 3 3 3 2 3 4 4 5 5 5 5 5 6 7 8 9 10 11 12 12 12 12 13 13 11 11 12 13 14
31 29 26 24 22 19 17 16 14 12 11 10 9 8 8 6 5 5 5 5 5 5 4 5 6 7 8 9 10 11 13 14 15 16 15 15 16 16 15 14 14 14 14
31 30 29 27 25 23 20 18 17 16 14 13 13 12 11 10 10 10 10 10 10 10 10 9 10 10 11 13 14 16 17 18 18 18 19 19 19 20 20 18 17 16 16
27 29 28 28 27 25 22 20 20 19 17 16 15 14 14 14 13 13 13 13 13 13 13 13 13 13 13 16 17 18 19 21 21 21 22 22 22 22 22 21 21 20 19
19 23 27 30 28 27 24 22 21 20 18 16 16 15 15 15 15 14 14 15 15 15 15 15 16 16 18 19 20 20 21 22 22 23 24 25 24 23 23 23 23 22 21
23 23 24 25 27 27 25 22 21 21 19 17 16 15 15 15 15 15 15 16 16 17 17 18 19 19 20 21 21 21 22 24 24 24 24 25 25 25 25 25 25 24 24
22 23 25 27 27 26 24 23 22 21 19 17 16 15 15 16 17 18 18 18 19 20 20 20 21 22 22 23 23 24 25 25 24 25 25 25 24 25 26 26 27 27 27
23 21 19 22 24 24 23 22 20 19 18 17 16 14 15 16 17 18 19 20 21 22 22 22 23 23 24 25 26 27 28 27 27 28 28 27 27 27 27 27 28 29 28
26 22 20 21 22 22 21 21 19 18 18 17 16 16 17 17 17 17 19 21 22 23 23 24 26 27 27 29 29 30 31 31 31 32 31 29 29 30 30 31 31 32 32
27 26 23 21 21 22 21 20 19 19 18 18 18 19 20 21 20 21 21 22 24 25 26 27 29 30 31 32 33 32 34 35 34 34 34 34 32 32 32 32 33 34 34
29 28 25 23 22 23 21 21 21 20 20 22 23 24 25 25 25 25 25 25 27 28 29 30 32 33 33 35 36 36 37 36 37 36 35 33 32 32 33 35 35 34 34
28 28 26 24 23 24 24 23 23 23 25 27 27 28 27 28 28 28 28 29 30 31 32 32 34 34 36 36 39 39 40 38 35 33 33 31 32 32 32 33 34 35 35
27 25 24 25 27 25 24 23 23 25 26 27 28 28 28 28 29 30 31 32 33 34 33 33 35 36 37 38 39 39 40 37 37 31 30 29 28 29 30 31 32 33 34
29 27 25 24 24 23 23 24 25 25 26 27 29 30 30 31 31 32 33 33 34 34 34 34 35 37 38 37 36 36 37 36 35 34 30 29 29 30 27 26 28 30 32
31 28 27 26 26 25 24 25 26 28 28 29 31 32 32 32 32 33 34 35 35 35 34 34 35 36 36 36 34 33 33 35 35 38 33 27 28 27 29 30 30 31 32
33 31 28 28 28 29 29 32 31 31 32 32 32 33 34 34 34 35 35 35 34 33 32 31 32 33 33 34 34 34 33 34 34 36 34 34 28 25 28 29 29 26 25
37 39 34 32 31 31 32 33 32 32 32 33 33 35 36 37 37 37 36 35 34 33 33 33 33 34 34 34 34 34 35 34 34 34 34 35 33 26 25 25 24 23 23

GFSSE_700_spd_057.txt.gz
Wind_Speed
10 10 11 14 15 15 15 16 15 14 14 15 16 16 17 17 17 16 16 15 16 16 13 11 7 4 1 4 5 6 7 8 8 8 8 8 9 9 9 8 7 7 6
10 12 13 17 17 17 16 17 17 16 15 16 17 17 17 17 17 17 16 15 14 13 11 9 7 5 6 8 8 8 9 9 9 9 10 10 10 10 9 8 7 6 6
11 14 15 19 20 20 19 19 18 17 17 17 18 18 18 17 17 17 16 16 15 14 13 11 11 10 10 9 10 11 11 11 11 10 9 11 10 10 9 9 9 9 9
13 15 16 18 20 22 22 21 20 19 18 18 19 19 20 19 19 18 18 17 16 15 14 14 13 13 13 13 12 12 11 11 11 10 12 12 11 10 9 9 9 9 10
16 16 17 17 17 18 21 23 22 20 19 19 18 19 19 18 18 18 18 18 17 17 16 15 15 14 13 13 13 12 12 12 13 13 13 13 13 12 12 12 12 11 11
18 18 17 16 15 15 16 18 19 21 21 19 19 19 18 18 18 18 18 17 17 16 16 16 15 15 14 13 13 13 13 14 13 14 14 14 14 14 14 14 13 13 13
20 19 18 16 16 13 13 13 15 16 16 18 19 16 16 17 18 18 18 18 17 17 16 15 15 14 13 13 12 12 12 12 12 13 14 14 15 15 15 15 15 15 14
23 20 19 16 16 14 12 11 10 12 13 12 14 14 15 15 13 11 12 12 12 11 11 10 10 9 9 9 9 9 10 10 10 11 11 12 12 13 14 14 15 15 15
26 22 20 17 16 15 13 11 8 7 8 9 9 9 9 9 9 9 9 8 7 7 6 6 6 6 6 7 8 9 10 11 12 12 12 13 13 13 14 15 15 15 15
29 25 22 20 17 15 13 12 11 8 6 6 6 4 1 3 3 3 2 2 2 2 2 3 4 5 7 8 9 10 12 13 14 15 16 16 16 15 14 15 16 17 16
31 28 25 23 21 19 16 14 13 12 10 8 8 8 7 6 6 5 5 5 6 6 6 6 6 7 9 11 12 13 14 15 17 18 19 20 21 21 19 18 18 18 18
35 32 29 26 24 22 20 17 16 15 14 13 11 11 12 11 11 11 10 11 11 11 11 11 11 12 12 13 15 16 17 18 19 20 21 22 23 23 23 21 22 21 20
33 32 31 28 26 25 23 20 19 18 17 16 15 14 15 15 14 14 14 14 14 14 14 14 14 14 15 16 18 19 19 20 21 21 22 24 24 24 25 25 25 24 23
28 29 29 28 28 27 25 23 22 21 20 18 17 16 16 16 15 16 16 16 16 16 16 16 17 17 18 20 20 21 21 21 22 23 23 23 24 25 26 26 27 26 26
25 27 29 29 29 28 27 26 25 23 20 19 18 17 17 16 15 16 16 17 18 18 18 19 19 20 21 21 21 21 23 23 24 24 24 25 25 26 27 27 27 27 26
26 24 24 24 27 30 29 28 26 24 21 20 19 18 16 15 16 17 18 18 19 20 20 21 22 22 22 22 23 24 25 26 26 26 26 28 27 29 29 29 29 30 29
28 26 25 26 26 27 27 27 26 25 22 20 19 17 15 15 16 17 18 19 20 21 22 22 23 23 24 25 26 27 28 29 30 29 30 30 31 30 31 32 32 32 32
30 29 28 30 27 27 29 28 26 23 21 20 17 15 15 17 18 19 19 20 21 22 23 23 24 25 26 27 29 31 31 32 33 32 32 33 33 33 34 32 34 35 34
31 28 27 26 23 23 25 25 24 22 20 18 17 17 18 20 22 22 22 23 24 25 26 26 28 28 29 29 31 33 34 34 36 35 34 35 35 33 31 34 32 34 35
33 31 27 26 24 23 23 22 21 20 19 19 20 21 22 24 25 26 26 26 27 27 28 29 29 29 31 33 35 36 37 37 37 36 34 32 32 32 32 31 33 31 32
32 31 29 28 26 25 22 22 22 20 21 22 24 25 27 27 28 28 28 29 29 30 31 31 33 35 35 36 36 36 38 37 38 35 32 29 28 29 29 29 29 30 32
33 32 31 31 29 28 27 25 25 24 25 26 28 28 29 30 30 30 29 30 31 33 34 35 35 36 36 36 37 37 39 35 36 35 28 28 28 29 30 28 28 29 29
34 33 32 33 31 29 30 30 29 28 27 27 29 28 29 30 31 32 32 33 34 35 35 35 36 37 38 38 36 36 38 34 34 34 32 29 29 29 29 29 28 29 30
36 34 33 30 30 29 27 27 27 27 28 30 29 30 32 32 34 34 35 35 35 36 36 36 36 36 36 36 34 31 31 33 33 34 33 30 27 25 30 30 30 30 30
36 32 34 30 30 29 27 27 27 29 30 30 31 33 34 35 36 36 37 37 37 38 37 36 34 33 33 33 33 34 32 32 32 34 35 31 30 27 30 32 29 30 28
39 44 48 40 35 34 32 30 33 34 34 34 33 34 35 36 37 38 38 39 39 38 36 35 34 33 33 33 32 33 35 34 33 31 32 33 34 32 29 30 27 26 26

GFSSE_700_spd_060.txt.gz
Wind_Speed
9 10 10 11 12 12 13 13 13 14 14 15 16 17 18 18 17 16 16 17 17 16 12 8 6 4 6 8 9 9 10 9 10 9 10 10 10 10 10 9 8 8 8
8 11 12 13 14 15 15 15 15 15 16 16 16 17 18 18 18 17 15 14 13 11 9 7 7 8 9 10 10 11 11 11 12 12 12 12 12 12 12 11 10 10 10
10 13 14 16 17 17 17 17 17 17 16 17 16 18 18 18 18 17 16 14 13 12 11 11 11 11 11 12 12 12 12 12 12 11 9 13 13 12 12 11 11 11 11
13 15 16 18 19 19 18 18 18 18 18 18 18 20 19 19 19 18 17 16 16 15 14 13 13 13 13 13 12 12 12 12 13 12 15 15 14 14 14 13 13 13 13
15 16 17 19 20 22 21 19 18 18 19 19 18 18 19 19 18 17 17 17 17 16 15 15 14 13 13 13 13 13 13 14 14 15 16 16 16 16 16 16 16 15 15
18 18 17 18 20 20 21 22 22 20 18 19 19 18 18 18 18 17 17 16 16 16 15 15 14 14 14 14 15 14 14 14 14 15 16 16 17 16 17 17 17 17 16
20 19 18 17 18 18 17 18 18 19 20 20 19 17 17 18 18 18 18 17 16 16 15 14 14 13 12 12 12 11 11 12 12 13 14 15 16 16 16 16 17 17 17
23 21 20 17 17 16 16 15 14 15 15 16 17 18 17 16 14 12 12 12 11 11 10 10 9 9 9 9 9 10 11 12 12 13 14 15 15 16 17 17 17 17 16
26 23 21 18 16 16 15 13 12 11 11 12 12 12 12 12 11 11 11 11 10 9 8 8 7 8 8 9 10 10 12 13 14 15 15 16 16 16 18 19 19 19 18
28 26 23 20 16 14 13 13 11 8 7 6 7 5 6 5 5 5 4 4 4 3 4 4 5 7 8 10 11 12 13 14 15 16 17 18 18 18 16 18 21 21 20
32 29 25 23 20 16 14 12 10 9 7 5 4 3 2 1 3 2 3 4 5 6 7 8 8 9 9 11 12 14 15 16 17 18 18 18 19 20 20 19 19 20 21
34 30 28 24 23 20 16 15 13 12 10 9 8 8 8 7 7 8 9 9 10 10 10 11 11 12 12 13 14 17 17 18 18 18 18 20 20 21 22 22 22 21 21
34 31 29 26 25 23 20 17 15 14 13 12 11 11 11 11 11 11 12 13 12 13 13 13 13 13 14 16 17 18 18 19 19 19 19 20 20 22 23 24 24 24 23
34 33 30 29 26 23 21 20 19 19 17 15 14 14 13 14 13 13 13 14 14 14 15 14 14 16 17 18 19 20 20 19 20 21 21 22 22 24 24 25 25 24 24
30 31 32 31 29 26 24 23 21 22 20 18 17 16 15 15 14 13 14 14 15 15 17 17 18 19 19 20 20 20 21 22 23 23 24 24 25 27 27 28 27 26 26
32 32 30 29 29 29 28 26 24 23 22 21 20 17 16 14 13 13 14 16 16 17 18 19 19 20 20 21 21 23 24 25 26 25 26 27 27 28 29 30 30 29 29
25 26 29 28 27 28 28 28 27 25 25 23 21 19 16 14 13 13 15 15 17 17 18 19 20 21 21 23 24 26 27 27 27 29 28 31 32 29 29 30 30 30 30
27 26 27 26 26 26 25 25 25 25 25 23 21 19 16 14 14 15 17 18 19 19 20 21 22 23 24 25 26 26 27 30 32 34 34 34 34 34 31 28 27 28 28
28 26 26 27 27 28 26 26 25 26 24 23 21 18 16 16 16 18 20 21 21 22 24 23 24 25 27 27 28 29 30 33 32 32 33 33 32 32 30 28 26 25 27
29 29 28 26 27 28 30 26 25 24 22 21 19 18 18 18 19 21 22 24 24 26 26 26 27 28 30 30 33 33 32 34 34 33 33 31 30 27 26 27 26 26 26
31 31 31 28 26 26 24 22 21 20 20 19 20 20 20 21 23 24 26 26 27 27 27 28 30 32 32 33 34 34 33 32 33 33 34 29 27 27 25 27 27 27 28
32 31 32 30 28 26 24 23 22 22 23 21 22 22 22 24 27 27 27 27 28 29 30 31 32 33 35 35 36 38 39 34 34 32 29 28 26 27 29 28 26 27 26
33 32 31 31 31 30 28 28 27 26 24 25 25 24 25 24 27 28 28 30 31 33 33 33 33 35 37 37 35 35 37 36 32 32 32 28 26 28 31 29 26 28 28
35 34 33 32 32 34 33 31 30 29 27 28 28 26 26 28 30 31 31 33 34 35 35 35 36 37 38 36 34 31 31 33 33 34 30 31 30 27 30 31 29 29 28
36 35 34 33 32 32 34 33 30 28 27 27 29 29 30 30 30 32 33 34 34 36 37 38 38 37 36 35 34 33 32 32 32 34 34 30 31 30 28 30 29 28 27
43 37 36 35 34 30 29 29 28 28 28 28 31 33 33 34 34 34 33 34 36 36 37 38 37 36 35 35 33 32 33 33 32 32 32 30 29 27 28 27 28 26 27

GFSSE_700_spd_063.txt.gz
Wind_Speed
10 11 9 10 10 10 11 12 13 13 14 14 14 17 17 17 18 19 21 18 16 13 10 7 6 8 11 11 12 11 12 13 13 13 12 12 13 12 12 11 11 11 10
8 11 10 10 11 12 14 14 14 15 15 14 16 18 18 18 17 17 17 16 14 11 8 8 10 12 12 12 13 13 13 13 13 13 12 12 13 13 13 13 13 12 11
11 12 12 12 13 14 16 16 15 16 15 15 16 17 18 18 18 16 14 13 12 11 12 13 13 14 13 13 13 13 13 14 14 12 13 14 15 16 16 15 15 14 13
14 15 16 16 16 16 17 17 17 17 16 16 17 17 18 17 17 17 16 15 15 14 14 14 14 14 12 12 13 13 14 15 15 14 15 17 17 18 17 17 16 15 15
19 19 19 19 19 19 18 18 18 18 18 17 17 18 19 18 18 17 17 16 15 15 14 14 13 13 13 14 14 14 15 16 16 16 17 17 17 18 18 18 18 18 17
21 20 20 20 22 22 22 20 19 19 18 19 17 18 18 18 18 17 16 15 15 15 15 15 14 14 14 14 14 14 14 14 15 16 16 16 16 16 17 17 17 18 18
23 22 20 19 21 22 22 22 23 22 20 20 18 19 19 19 18 18 17 16 16 15 15 14 13 12 12 11 11 11 12 12 13 14 14 15 16 16 16 17 17 17 17
24 23 21 20 20 21 21 20 20 20 20 20 20 20 20 19 17 15 14 13 12 11 11 10 10 9 9 9 10 10 11 12 13 14 15 15 15 16 17 17 17 17 17
28 24 22 19 19 19 19 18 17 16 16 16 15 16 16 16 15 14 13 13 12 11 11 10 10 10 10 10 11 12 12 13 14 14 14 14 14 15 16 17 17 18 18
31 28 23 19 17 17 17 16 15 13 12 12 11 10 10 9 9 8 7 6 6 5 5 5 6 6 7 9 10 11 14 14 15 15 15 15 16 16 15 15 16 17 18
33 31 28 23 19 15 13 12 12 11 9 7 7 5 4 4 4 3 3 4 4 6 6 7 8 9 10 11 12 13 15 15 14 15 15 16 17 16 17 17 17 17 17
32 33 32 29 23 17 15 14 11 8 7 5 4 3 1 1 3 4 5 7 8 9 9 10 10 11 11 11 14 15 17 16 15 15 16 17 17 18 19 19 19 18 18
27 31 34 31 28 23 18 16 15 12 10 8 7 6 4 6 7 7 7 8 9 11 12 12 12 12 12 13 14 16 16 16 17 17 17 18 19 20 21 22 21 20 19
27 25 31 32 29 26 23 20 18 16 14 13 12 11 9 9 9 9 9 9 9 10 12 13 13 14 15 16 16 17 16 16 17 19 20 21 21 22 23 24 23 23 22
26 30 28 29 29 27 24 23 21 20 18 16 15 14 13 12 12 10 10 10 10 11 12 13 14 14 15 15 16 17 17 19 20 21 21 22 23 25 26 26 26 25 24
30 28 37 31 32 28 25 24 22 23 20 20 18 17 15 14 14 12 12 11 11 12 13 14 14 15 15 17 17 19 20 21 21 20 24 23 24 25 25 26 28 27 25
27 34 27 30 27 31 28 27 25 23 24 23 21 18 18 16 15 13 12 12 13 14 15 15 16 18 19 20 21 23 23 23 23 27 29 28 27 29 28 25 24 25 25
23 20 25 29 30 29 27 28 27 26 27 26 23 20 19 18 16 14 14 13 15 16 17 18 20 20 21 22 22 24 25 28 28 28 29 29 30 29 29 28 24 24 23
27 25 23 23 24 24 25 25 25 23 25 24 21 21 19 19 17 15 15 16 18 19 20 20 21 22 22 23 25 26 27 28 28 26 27 28 29 30 28 24 23 23 23
27 28 27 27 26 26 27 27 27 27 26 24 24 21 20 19 18 17 17 18 20 22 22 23 22 24 26 27 28 29 29 29 30 29 29 30 32 27 25 27 24 25 25
27 26 26 25 25 24 23 22 23 22 22 22 22 21 21 20 20 19 18 21 23 23 24 25 26 28 29 30 32 31 32 31 28 27 28 30 28 28 28 26 26 27 24
26 26 26 25 25 25 23 22 22 21 21 22 22 23 22 20 19 20 22 23 23 24 25 27 29 31 32 31 35 36 36 33 28 28 27 26 27 29 31 28 27 27 25
28 28 28 26 27 28 26 26 26 26 26 24 23 23 21 20 22 23 24 25 25 26 28 29 32 33 34 34 35 36 37 36 31 29 29 29 29 29 32 31 27 25 24
34 27 30 31 30 30 30 31 31 27 27 25 26 26 26 24 23 24 25 27 27 30 31 32 34 34 36 36 36 34 33 33 33 33 30 29 31 31 33 31 27 24 23
36 36 29 34 33 31 30 31 32 30 29 30 30 28 27 26 26 26 28 28 30 32 34 34 35 35 36 36 35 33 31 31 32 33 33 28 33 33 33 32 28 25 24
33 34 34 31 34 33 33 32 34 34 36 28 27 26 25 27 28 30 32 32 32 33 34 35 36 36 36 36 34 33 31 32 31 32 33 30 29 29 32 27 28 26 23

GFSSE_700_spd_066.txt.gz
Wind_Speed
11 13 11 10 9 8 10 10 11 11 12 12 13 14 16 20 22 19 15 15 13 10 9 5 7 10 11 12 13 13 13 14 14 14 12 12 12 12 12 12 12 12 11
8 12 12 11 10 10 12 12 13 14 13 15 14 15 16 18 20 19 16 15 13 9 7 8 10 12 13 13 13 13 14 14 15 13 12 14 14 14 14 14 14 13 13
12 12 13 12 12 14 13 14 15 15 16 16 15 16 16 16 17 16 14 13 11 10 11 12 12 13 14 13 13 15 16 16 15 15 15 16 15 16 16 16 16 15 15
13 13 14 14 15 15 15 15 15 16 16 16 17 16 16 17 16 16 15 15 15 14 14 13 13 13 13 13 14 15 16 16 16 16 16 17 17 17 17 17 17 17 17
16 16 16 17 17 17 17 17 16 17 17 17 17 18 18 18 17 17 17 16 16 15 14 13 13 14 14 14 14 15 15 14 15 15 15 15 16 16 16 16 16 16 16
20 20 20 20 19 19 19 18 18 17 18 17 17 18 18 18 18 17 16 15 15 15 14 14 14 13 13 13 13 13 13 13 13 13 13 14 14 13 14 14 14 14 14
24 23 23 23 22 22 22 21 20 19 19 18 18 18 18 18 18 18 17 16 15 14 13 12 12 11 11 10 10 10 11 11 12 12 13 13 13 13 13 13 13 13 13
26 27 25 25 24 24 24 25 25 24 23 21 21 20 20 19 18 17 16 15 14 13 12 11 10 10 10 11 11 11 12 12 12 12 13 13 13 13 13 14 13 13 13
30 28 26 25 25 24 23 22 22 22 21 19 19 19 19 19 18 17 15 14 13 11 10 9 9 9 9 10 10 11 13 12 12 12 13 12 13 13 14 14 14 14 14
31 29 27 26 24 23 22 20 19 19 18 16 15 14 13 13 12 11 10 9 8 7 6 6 7 7 8 9 10 11 13 14 13 13 13 13 14 13 14 15 15 15 14
34 32 30 27 25 23 21 19 17 15 14 12 11 9 9 7 6 5 3 2 2 3 4 6 7 8 9 10 11 13 14 15 13 13 14 14 15 15 16 17 17 17 15
32 34 32 30 27 24 21 19 16 13 10 9 7 6 5 3 1 1 2 4 5 5 6 7 7 8 10 11 13 13 14 15 14 14 15 16 16 17 17 17 17 17 17
25 30 33 32 30 27 24 22 19 15 10 7 5 4 3 4 4 4 5 6 7 7 8 8 9 10 11 12 14 14 15 14 15 15 16 17 18 18 19 20 20 19 19
24 24 31 34 32 29 27 24 22 19 16 13 10 7 7 8 8 8 8 7 8 8 9 10 10 11 13 14 14 14 14 15 16 17 17 18 20 21 21 22 21 21 21
26 23 26 29 31 30 29 26 25 22 19 17 15 12 10 11 11 11 10 9 9 9 9 10 11 12 13 13 14 14 15 16 17 17 17 20 22 23 22 23 23 23 21
16 17 27 32 26 30 28 28 26 23 21 20 18 17 15 14 14 13 12 11 9 9 9 10 11 12 13 14 15 16 17 18 17 17 18 22 21 22 22 21 20 23 22
19 17 19 32 24 25 27 26 25 24 23 22 21 20 19 18 17 15 13 13 12 11 11 12 13 14 15 16 17 18 19 21 22 23 23 23 24 24 24 28 25 22 21
24 22 16 14 24 30 23 29 29 26 24 24 24 22 21 20 20 17 16 14 13 13 14 15 15 16 17 17 19 20 22 23 24 24 25 26 26 26 25 26 25 23 22
24 23 22 19 23 23 34 23 32 26 25 26 26 23 23 23 22 20 18 16 15 15 16 17 17 18 18 20 21 24 24 24 25 26 26 28 29 28 26 23 24 23 22
26 27 24 22 25 25 27 27 26 25 24 24 25 22 23 25 24 22 20 18 17 18 19 19 19 20 21 24 25 26 26 26 27 25 27 28 28 27 25 23 23 22 21
28 27 26 25 23 25 26 26 26 24 24 25 27 28 28 26 24 22 20 19 18 20 21 21 22 23 24 26 29 29 30 31 31 27 25 26 27 26 27 25 23 24 23
26 26 25 24 24 24 23 24 24 24 23 23 25 25 24 25 25 23 21 21 21 21 21 24 25 26 27 28 32 34 35 33 32 29 26 24 25 27 26 25 26 27 27
26 25 23 24 24 26 29 28 26 25 25 25 25 25 25 24 23 23 23 22 23 22 24 26 26 29 31 30 32 35 38 37 35 32 29 27 28 29 28 28 28 28 26
30 24 23 24 26 26 26 28 26 24 24 22 21 21 22 23 22 23 23 23 25 25 24 27 29 30 33 32 33 34 36 37 35 34 29 29 30 30 30 30 31 29 27
31 29 29 28 26 26 27 28 28 27 28 25 23 26 27 24 25 27 25 24 25 26 27 30 30 32 34 34 35 34 34 34 33 34 33 28 31 32 32 32 31 29 22
42 36 30 25 31 31 27 29 32 31 34 37 36 32 31 37 37 30 23 24 29 28 27 31 33 35 36 37 36 36 34 34 31 33 34 31 30 33 32 31 28 28 23

GFSSE_700_spd_069.txt.gz
Wind_Speed
13 12 11 10 9 8 8 7 7 7 9 10 12 19 21 18 17 16 15 14 13 11 7 6 8 10 12 13 14 14 13 14 14 14 14 15 14 13 13 13 13 12 12
10 12 11 11 10 9 10 9 9 10 11 13 14 19 19 20 16 15 13 12 9 8 7 9 10 12 13 13 13 13 15 16 16 16 16 16 16 16 16 15 14 15 15
12 12 12 12 12 11 12 11 12 10 14 14 16 18 18 20 16 15 13 11 9 9 10 12 13 13 13 14 14 15 16 16 16 17 16 16 16 16 16 16 16 16 16
13 13 13 13 12 13 13 13 13 14 15 15 16 17 16 16 15 13 12 12 13 13 13 13 13 13 14 14 14 15 15 15 15 15 14 14 13 14 14 14 14 15 15
17 14 14 14 14 15 15 15 15 16 16 16 16 17 17 17 16 15 15 16 15 14 14 14 14 14 13 12 12 13 13 13 13 13 13 13 13 12 12 12 12 13 13
19 18 18 18 17 17 17 17 18 18 18 18 18 18 19 19 18 18 17 16 15 15 14 13 12 12 11 11 11 11 11 11 12 12 12 12 12 12 12 12 12 12 12
21 21 20 20 20 20 19 19 19 20 18 18 18 18 18 18 18 18 17 16 15 13 12 11 10 10 10 11 12 12 12 12 12 12 13 12 12 13 13 13 13 12 11
23 23 23 23 23 22 22 22 21 21 20 20 20 20 19 18 18 17 16 15 15 14 13 12 12 11 11 11 11 11 12 12 12 12 12 13 13 13 13 13 13 13 12
25 25 26 26 26 26 26 25 25 24 24 24 23 22 21 20 19 17 16 14 13 11 10 8 8 8 9 9 10 10 11 12 12 12 12 12 12 13 14 14 14 14 13
27 27 28 29 29 29 28 27 26 24 22 22 20 19 18 16 15 14 12 11 9 7 5 4 5 5 6 7 9 11 11 12 12 12 12 12 12 13 14 15 15 15 15
29 30 30 29 29 29 28 27 25 23 20 18 17 15 13 11 10 8 7 5 4 3 4 4 5 6 7 9 10 12 12 12 12 12 12 13 14 15 15 17 17 17 17
27 31 31 30 29 28 27 25 23 21 18 16 14 12 9 7 5 3 2 1 2 3 5 6 7 7 8 9 11 13 13 12 13 13 14 15 16 16 17 17 19 18 19
22 26 29 30 30 28 27 25 22 20 17 15 14 12 9 7 4 3 3 4 4 5 6 7 8 9 10 11 13 13 14 14 14 15 16 17 16 18 19 19 20 19 19
22 24 26 29 30 30 29 27 24 21 17 14 12 10 8 8 7 7 7 7 8 7 7 8 9 10 12 12 13 13 14 15 15 16 17 18 18 21 20 20 21 22 20
17 27 23 26 27 30 30 29 27 25 21 18 15 13 12 11 10 10 9 10 10 9 9 9 10 10 11 12 13 14 15 16 16 17 17 19 21 21 21 19 18 20 19
22 28 25 29 27 28 28 29 28 27 24 21 18 17 15 15 14 13 12 13 12 11 10 10 10 10 12 13 14 14 15 17 17 18 19 20 20 21 21 22 23 21 19
22 10 14 23 28 31 31 28 27 26 25 23 22 20 20 18 17 17 16 15 15 13 12 12 12 12 14 14 15 15 17 19 21 21 21 22 23 24 23 23 25 24 18
20 13 13 11 19 42 30 27 26 26 26 25 26 24 22 22 22 21 20 18 17 15 14 14 14 15 15 15 15 17 19 20 22 23 24 26 26 25 25 23 24 23 21
19 20 22 13 15 23 30 34 33 27 26 23 26 26 24 24 24 24 22 21 20 18 16 15 16 16 17 17 19 20 20 21 22 23 24 27 27 25 24 23 23 22 22
24 24 22 21 18 20 12 32 24 20 25 25 26 27 23 24 26 25 24 23 22 19 17 17 17 18 19 20 21 22 24 24 26 25 24 26 27 26 24 22 22 22 21
28 27 26 23 21 21 20 24 22 26 29 24 25 25 25 25 27 27 26 25 23 20 19 19 19 19 21 23 25 26 26 28 28 30 28 27 26 26 24 23 23 23 22
25 25 26 24 23 21 20 19 21 24 24 25 25 26 26 26 29 28 26 25 23 21 20 21 21 21 22 24 29 31 31 29 30 29 29 27 27 25 24 24 24 24 24
23 23 22 25 24 24 22 27 29 26 25 25 25 25 26 27 28 26 25 25 23 22 21 21 21 23 23 25 29 32 36 35 33 32 31 30 29 29 27 25 25 26 25
20 22 20 23 23 24 27 29 28 28 26 26 27 23 23 23 24 24 25 24 24 23 20 20 22 24 25 25 28 31 35 37 35 35 30 31 31 31 30 29 28 27 25
32 28 22 22 23 21 23 27 26 28 27 27 29 27 25 25 27 23 22 23 28 27 26 25 25 24 26 27 31 34 35 37 36 36 34 31 32 32 32 32 30 28 28
26 33 30 24 22 25 28 31 36 28 28 30 31 26 27 32 34 33 32 28 36 37 27 24 27 27 31 34 36 36 38 38 37 36 36 32 32 33 33 33 32 28 29

GFSSE_700_spd_072.txt.gz
Wind_Speed
15 12 11 11 9 7 7 7 6 6 7 8 12 19 19 19 18 16 15 14 13 11 7 8 9 11 12 13 13 14 15 15 16 15 16 16 15 15 15 14 13 13 13
12 12 11 11 10 8 8 8 7 7 10 12 19 20 17 16 16 15 14 13 10 8 9 10 12 13 13 13 14 15 15 15 15 15 16 16 15 15 15 14 15 15 15
13 12 13 12 11 11 9 8 9 10 13 15 20 21 19 15 14 13 11 10 9 10 12 13 13 14 14 14 14 14 14 14 14 14 14 14 14 13 13 13 13 13 14
14 13 13 12 11 11 11 11 11 14 15 16 19 21 20 15 14 14 13 12 13 13 13 14 14 14 13 13 13 12 12 12 12 12 12 12 12 12 12 12 11 11 11
18 15 14 13 13 13 13 14 14 15 16 18 19 19 20 16 15 14 15 16 15 15 14 15 14 13 11 11 10 11 11 11 11 12 12 12 12 12 11 11 11 11 11
19 17 16 16 16 16 16 16 16 16 16 18 19 19 19 18 18 18 17 17 16 16 15 14 12 10 9 10 10 11 10 10 11 11 11 12 12 12 12 12 11 11 11
22 20 19 18 18 18 18 19 20 19 19 19 20 20 20 19 19 18 17 17 16 14 13 12 11 11 11 11 11 10 11 11 11 11 12 12 12 12 12 12 12 12 12
23 21 21 21 21 22 22 21 22 21 20 20 20 20 20 19 19 18 16 15 14 13 13 12 11 11 10 10 10 10 11 11 11 10 10 11 12 12 13 14 14 14 13
24 23 23 23 23 24 24 23 24 23 23 22 22 21 20 19 18 18 16 15 13 11 10 9 8 7 7 7 8 9 10 10 9 10 10 10 11 13 14 14 14 14 14
24 24 24 25 25 25 25 25 25 25 26 25 25 24 22 21 19 17 15 13 11 8 6 5 4 5 5 6 6 9 10 11 10 10 10 11 12 13 14 14 15 16 15
27 25 27 27 28 28 28 28 29 29 28 26 24 22 20 18 15 13 11 8 6 4 2 2 3 4 6 7 8 9 10 11 11 12 12 13 14 14 15 17 17 18 15
28 28 28 29 30 30 31 30 29 27 26 23 21 19 16 14 11 9 7 5 3 1 2 3 4 5 7 8 9 11 11 11 12 13 14 15 15 14 17 17 18 18 17
25 25 29 30 31 31 31 30 28 27 24 21 19 16 14 11 8 6 4 4 4 4 4 5 6 7 7 9 10 11 11 11 12 13 15 16 16 16 20 19 19 19 18
25 22 25 28 30 30 30 29 28 26 24 21 19 16 13 11 9 7 7 6 7 7 7 7 8 9 9 9 10 10 12 12 13 15 16 18 19 19 20 20 18 17 20
32 32 23 24 26 29 30 29 28 27 25 23 20 18 14 12 11 10 9 9 9 9 9 8 9 9 9 10 11 12 13 14 15 15 17 19 20 20 20 20 19 18 18
19 29 11 27 26 26 28 29 29 28 27 24 22 20 17 15 14 13 12 12 12 12 11 9 9 10 10 11 12 13 14 15 16 17 18 19 19 20 20 20 21 20 18
12 14 13 7 30 26 28 28 27 27 28 26 24 22 21 19 18 18 17 15 15 15 14 12 11 11 12 12 13 13 14 16 17 18 19 20 22 22 21 20 22 21 19
15 14 13 10 28 31 26 32 31 29 27 27 24 24 24 23 23 21 20 19 19 18 16 14 13 12 13 13 13 14 15 17 18 18 19 21 23 24 22 21 22 22 19
14 11 17 23 14 19 27 41 33 32 30 30 24 22 22 25 26 25 23 23 22 22 19 17 15 15 14 14 14 15 16 18 19 20 22 23 23 24 22 22 21 22 20
17 19 23 20 14 8 14 35 26 38 38 31 25 23 23 26 27 27 26 26 25 24 22 20 18 17 16 15 16 16 17 19 21 23 24 24 24 23 21 21 21 23 23
21 25 26 24 17 10 14 12 16 34 26 32 25 26 24 24 27 26 26 27 26 25 25 24 20 18 17 17 17 19 20 21 23 24 26 27 26 24 22 22 22 24 24
27 27 26 27 22 19 16 16 20 14 12 19 27 28 27 28 27 28 28 27 26 27 26 24 21 19 18 18 21 22 23 22 24 27 27 28 28 26 24 23 23 23 24
20 20 23 23 23 26 27 25 27 21 21 24 22 23 25 26 27 26 28 28 27 26 24 22 22 21 19 17 20 24 28 27 29 30 30 30 31 30 28 27 24 24 24
14 15 16 19 25 23 26 27 27 27 28 27 26 26 24 20 23 24 24 26 24 22 22 23 23 23 20 18 21 22 27 31 33 34 31 32 32 31 30 29 27 26 25
24 22 19 18 19 21 21 24 28 27 23 29 28 24 23 21 21 20 21 24 27 29 30 28 22 27 27 33 26 27 28 32 36 38 35 34 34 33 31 30 30 29 28
23 28 32 25 20 21 22 22 23 20 23 23 23 24 29 28 29 29 25 28 33 34 31 25 33 38 33 28 30 36 39 36 35 38 42 36 36 35 34 32 30 30 29

GFSSE_700_spd_075.txt.gz
Wind_Speed
17 16 12 11 10 8 8 6 5 5 6 9 11 15 19 20 19 16 15 13 14 10 9 9 10 10 11 12 13 14 15 14 14 14 14 14 13 13 13 13 13 11 11
12 14 12 12 11 10 9 8 7 7 8 12 17 19 20 19 18 17 17 15 11 9 10 10 11 11 12 13 14 14 14 14 13 13 13 12 12 12 11 11 11 11 10
15 14 13 14 13 12 10 9 9 11 14 18 18 18 18 19 18 18 16 13 11 11 12 12 12 13 13 13 13 13 12 12 12 11 11 11 11 11 10 10 10 9 9
16 15 14 14 13 13 12 11 11 14 18 23 20 19 17 17 16 15 14 12 13 14 14 14 14 13 13 12 11 11 11 11 11 12 12 12 11 11 11 10 10 10 10
19 16 15 15 15 14 13 14 15 16 18 24 22 20 18 15 16 15 15 16 16 15 15 14 13 12 11 10 10 10 11 10 10 10 10 10 11 11 11 11 11 10 10
21 18 17 17 17 16 17 17 18 18 19 23 25 22 18 16 16 17 19 19 17 16 14 13 11 10 10 10 10 9 9 9 9 9 9 10 10 11 11 12 11 11 11
24 21 19 19 19 19 19 20 20 20 20 23 23 22 19 19 19 20 19 18 17 15 13 11 10 10 10 9 8 8 8 8 8 8 9 9 10 11 12 12 12 12 11
24 23 22 21 20 21 22 22 22 22 22 23 23 23 22 22 21 20 19 18 15 14 13 12 11 9 8 7 6 7 7 8 7 8 9 10 10 11 12 13 13 13 13
27 25 24 24 23 23 23 24 25 25 25 25 25 24 24 23 22 20 18 17 16 14 12 9 8 5 5 5 6 7 7 7 7 8 8 8 10 11 12 13 13 14 14
26 24 25 26 26 26 26 26 26 26 26 26 26 26 24 23 22 20 18 16 13 11 9 6 3 3 2 2 4 6 7 8 7 6 7 9 10 11 11 14 15 16 15
31 27 27 27 28 28 28 28 28 28 28 27 27 26 25 24 22 19 16 13 10 7 4 3 0 1 2 3 5 6 7 7 6 7 8 9 11 12 13 16 16 16 16
32 29 28 29 29 30 30 29 29 31 30 30 29 27 24 22 18 15 12 9 6 4 2 2 3 3 5 6 6 7 7 7 8 9 10 11 11 13 15 16 17 17 17
30 28 29 30 31 31 31 31 31 32 32 30 28 25 22 18 15 12 9 7 6 5 5 4 5 5 6 6 7 7 7 8 9 10 11 11 13 14 16 15 15 16 16
31 22 26 29 31 33 33 33 33 32 30 28 26 23 21 18 16 14 11 10 8 8 7 7 6 6 6 7 7 7 8 9 10 12 13 14 15 17 18 18 18 17 17
32 31 25 26 29 32 34 34 34 33 30 27 25 23 20 19 17 15 13 13 12 11 11 10 7 6 6 7 8 9 10 10 11 12 14 15 16 17 18 18 18 16 16
34 32 34 28 26 27 31 32 33 33 31 29 26 24 22 20 18 16 15 14 13 13 13 12 10 8 7 8 8 9 9 10 11 13 14 15 16 16 17 18 17 18 16
41 29 36 32 29 26 25 30 30 31 32 31 28 27 25 23 21 20 18 17 17 16 15 15 13 11 9 9 10 10 10 11 12 13 15 16 18 19 20 20 18 18 18
16 39 30 33 26 25 27 31 28 31 31 29 28 29 28 26 24 23 21 20 20 19 19 18 17 15 13 11 11 12 11 12 13 14 15 17 18 20 21 22 20 20 20
4 15 10 16 31 22 29 39 31 29 30 31 33 32 28 26 26 25 25 24 23 22 22 22 21 18 16 15 14 13 12 12 13 15 16 18 20 21 22 22 22 21 21
15 5 2 6 9 7 27 44 31 33 32 30 29 28 29 25 23 27 26 26 26 25 26 25 24 22 20 18 16 14 14 13 14 15 17 19 20 21 22 22 22 23 23
20 16 12 11 13 14 15 36 41 41 42 43 38 31 29 26 24 24 24 26 27 26 28 28 27 25 23 22 19 17 16 15 15 16 18 20 22 22 21 21 21 22 23
21 13 22 20 20 23 16 20 11 26 20 43 55 42 41 29 25 26 27 28 28 29 29 29 29 27 25 23 21 21 19 16 15 17 20 23 25 26 25 24 22 22 23
15 18 20 20 19 17 17 24 23 25 22 13 19 42 36 32 31 26 28 30 30 31 29 27 28 25 24 22 20 21 22 23 22 22 21 25 27 27 27 27 26 24 24
15 18 19 22 20 23 24 27 29 27 31 31 27 27 37 39 27 26 23 24 29 27 24 25 26 26 25 23 21 18 24 26 29 30 31 34 29 30 30 28 27 27 26
13 14 15 14 16 17 20 22 23 25 18 22 22 28 21 26 27 28 24 25 26 28 28 29 30 35 31 30 35 30 29 28 32 35 35 32 32 33 32 31 29 29 29
21 24 24 20 19 19 20 19 18 17 16 15 13 16 13 14 17 21 26 21 22 26 28 30 32 36 37 38 30 33 31 32 34 35 35 30 32 32 33 32 31 30 30

GFSSE_700_spd_078.txt.gz
Wind_Speed
15 18 16 12 11 9 9 8 8 8 9 10 12 14 19 21 19 15 15 13 12 9 9 9 9 9 9 10 11 11 11 11 11 11 11 11 11 11 10 10 9 9 9
13 17 16 13 13 11 9 8 8 9 10 12 14 18 22 22 18 17 16 15 11 10 10 10 10 10 11 11 11 12 11 11 11 10 10 10 9 9 8 8 8 8 8
16 15 17 15 15 13 11 10 9 10 11 15 18 21 22 21 19 18 18 14 12 11 11 11 11 11 11 11 10 10 9 9 9 9 9 9 9 9 9 8 8 8 8
17 18 17 17 16 14 13 12 11 13 19 18 18 20 20 20 20 19 16 14 14 13 12 11 11 11 10 9 8 8 8 8 9 9 9 9 9 9 9 9 9 9 9
21 20 18 17 16 15 14 14 15 18 21 20 19 19 20 20 19 17 14 15 15 14 13 12 11 9 8 7 7 7 8 8 8 8 8 8 9 9 10 9 9 9 10
25 23 19 17 17 17 17 17 19 22 26 23 22 22 21 19 18 17 17 18 17 16 14 12 10 8 7 7 7 7 7 7 6 7 7 7 8 9 10 9 10 10 10
26 23 21 19 20 19 19 20 21 23 29 27 25 23 21 19 18 19 20 19 17 16 13 11 10 9 7 7 6 6 5 5 5 5 5 6 7 8 9 10 11 11 11
24 24 23 22 21 20 22 23 23 24 30 30 27 24 20 20 22 22 21 20 18 15 13 12 10 8 6 5 4 4 4 4 4 4 5 5 7 8 9 10 11 12 13
26 25 24 25 24 23 24 25 25 25 28 30 29 25 23 24 24 23 22 19 16 15 13 11 8 5 3 2 2 3 3 3 3 3 4 6 7 8 9 11 12 13 13
28 28 28 27 26 25 27 27 27 27 28 29 28 27 27 26 25 23 20 19 16 14 11 8 6 4 1 1 2 3 3 3 3 4 5 6 7 8 8 11 12 13 13
34 29 30 30 27 29 27 29 30 30 30 30 30 29 28 27 25 23 21 18 15 12 9 7 5 3 3 3 4 5 4 4 4 4 5 7 8 9 10 13 14 15 14
26 31 32 32 30 31 31 32 32 32 32 32 32 32 29 27 26 24 21 17 14 11 8 7 5 5 5 5 5 5 6 5 5 5 7 8 9 11 12 13 14 15 14
18 33 35 33 33 34 34 33 34 34 33 33 32 31 30 28 26 22 18 15 13 11 10 8 7 7 6 6 6 6 5 6 7 7 8 8 10 12 13 13 15 17 18
24 35 37 34 35 35 36 35 34 35 35 34 34 33 30 27 23 20 18 16 14 12 11 10 9 8 7 7 7 6 6 7 7 7 9 10 11 13 14 15 16 16 16
26 22 34 32 34 36 37 37 36 36 37 36 35 32 29 27 24 22 19 17 15 15 14 13 11 10 9 8 8 8 7 8 8 8 10 11 12 13 15 17 18 17 17
31 23 23 35 33 34 35 36 37 38 37 36 34 32 29 27 25 22 21 19 18 17 16 15 15 13 12 10 10 10 9 9 9 10 11 12 13 14 15 16 17 17 17
23 30 27 36 37 32 32 34 35 36 36 36 34 33 31 29 27 25 23 21 19 19 18 17 17 16 15 13 12 12 11 11 11 11 11 12 14 14 16 17 18 18 19
17 33 31 33 35 31 30 33 33 34 35 35 34 31 30 29 28 26 24 23 22 21 20 20 20 20 19 17 15 15 13 12 13 12 12 12 14 15 16 17 18 18 19
18 29 35 40 36 30 25 29 30 32 32 34 33 31 30 31 30 28 26 25 25 24 23 23 24 24 23 21 19 17 16 15 15 14 13 13 14 15 16 18 18 18 18
5 31 28 38 37 31 23 24 26 30 28 31 28 28 29 31 32 32 28 28 29 27 26 25 26 27 26 25 22 21 18 18 17 15 15 15 15 17 19 20 20 20 20
13 14 37 37 34 37 39 31 27 31 28 26 27 27 27 29 29 31 28 29 28 30 29 28 28 30 30 27 27 24 21 20 18 17 16 15 17 18 21 21 22 22 22
24 17 17 14 15 22 17 46 33 37 37 39 31 35 35 34 31 33 30 29 26 27 29 30 30 31 31 31 30 28 22 21 19 17 18 18 20 23 26 24 25 25 24
13 24 23 19 8 3 6 8 32 39 38 52 44 43 46 46 40 38 37 35 32 30 29 28 30 30 29 28 29 28 23 22 22 21 20 23 26 29 27 26 26 27 28
4 5 8 10 14 19 17 18 13 25 30 33 45 50 44 60 54 49 51 43 42 29 29 29 30 31 30 31 30 29 23 22 22 25 28 28 30 31 31 29 30 28 28
8 5 8 12 10 11 12 18 19 23 17 31 27 28 34 29 55 60 48 40 21 29 30 40 31 30 33 33 34 34 38 36 29 30 34 36 33 33 33 31 31 31 29
10 10 10 11 12 12 14 14 16 19 17 14 11 17 14 15 24 18 34 17 21 33 34 32 30 31 33 36 36 34 41 46 37 31 32 33 37 38 34 34 35 34 33

GFSSE_700_spd_081.txt.gz
Wind_Speed
10 15 18 15 13 11 10 10 10 10 12 13 14 16 20 21 17 15 16 12 9 8 8 7 6 7 6 7 8 8 8 8 9 9 9 9 9 9 9 10 10 9 9
24 13 17 16 14 13 11 11 11 11 12 15 15 16 20 21 18 16 15 13 11 10 10 8 8 7 7 7 8 7 8 8 8 8 8 8 9 9 9 9 9 8 8
23 22 14 16 16 15 12 12 11 11 12 14 16 17 21 22 18 17 16 14 12 11 10 10 9 8 8 7 7 7 7 7 7 8 7 9 9 9 8 8 8 8 8
23 20 18 18 16 15 13 12 12 12 12 15 17 21 21 21 18 18 17 14 13 12 11 11 9 9 8 7 6 6 6 7 7 8 8 9 9 8 8 8 8 8 8
23 20 21 19 17 16 15 14 13 14 17 18 20 21 21 20 19 19 16 15 14 13 12 11 10 8 7 7 6 6 6 6 6 6 8 8 7 7 7 8 9 9 9
26 24 22 20 18 17 17 16 16 20 20 19 20 21 22 22 21 19 16 15 16 15 13 11 10 8 6 6 6 6 5 5 5 6 6 6 6 6 7 7 8 9 9
25 25 22 19 19 18 19 18 19 24 21 22 20 23 24 22 20 18 17 17 17 15 13 11 8 7 6 5 4 4 4 4 4 4 4 4 5 6 7 7 8 9 10
20 23 22 23 21 20 19 21 22 27 25 24 24 25 25 22 20 19 20 19 18 15 13 10 8 7 6 4 3 2 2 2 2 2 2 3 4 6 6 8 10 11 11
29 26 25 25 24 22 21 23 25 29 30 27 27 27 25 23 21 22 22 20 18 15 12 11 9 6 4 2 1 1 1 1 0 0 2 3 6 7 7 10 12 11 11
31 32 25 26 25 23 24 26 27 29 34 32 30 27 24 23 24 24 23 21 17 15 14 11 8 5 4 2 1 1 2 2 2 2 4 5 6 7 9 11 12 12 13
37 32 24 26 26 24 25 28 29 30 35 36 32 27 24 26 27 26 24 21 19 17 14 11 8 6 5 4 3 4 4 3 3 4 3 5 7 8 10 12 13 14 15
32 30 29 21 28 26 27 27 31 31 34 37 34 30 28 29 28 28 24 22 19 16 13 10 9 8 7 6 5 5 5 5 4 4 5 6 7 9 10 12 14 15 15
60 33 24 35 29 32 33 31 33 33 34 36 34 33 34 33 30 27 26 23 19 16 13 11 9 9 8 7 7 7 7 6 6 6 5 6 8 10 11 12 14 15 17
46 53 35 31 23 38 36 35 33 35 34 36 36 36 35 33 30 29 26 23 19 16 14 12 11 10 10 9 9 8 8 8 8 7 6 8 9 9 10 13 13 14 16
31 48 42 21 31 44 41 38 36 36 36 35 37 36 34 32 31 28 26 23 20 17 16 14 13 13 12 11 10 10 10 9 9 9 9 8 10 10 12 13 15 15 15
25 38 47 30 31 36 42 41 38 36 37 38 38 37 37 35 33 30 26 24 21 19 18 16 16 15 15 14 13 12 12 11 11 11 11 11 10 11 13 15 16 18 18
22 22 22 35 29 22 38 41 38 37 37 38 39 38 37 35 33 30 27 25 23 20 19 18 18 18 18 17 16 15 14 13 12 13 12 12 13 12 14 16 17 17 18
20 13 26 25 24 28 34 36 39 39 37 38 38 37 36 34 31 29 27 25 24 22 21 21 20 21 21 21 19 18 16 14 15 14 13 13 14 14 15 14 16 17 18
20 14 27 18 19 30 28 32 33 35 35 36 36 35 34 32 31 29 28 27 25 25 23 23 23 23 24 24 23 22 21 17 17 16 15 15 14 15 15 18 17 19 20
25 14 16 26 25 31 28 27 28 32 34 35 35 34 33 32 31 31 30 30 28 27 27 26 25 26 26 26 27 26 24 21 21 18 17 17 15 15 16 18 19 20 22
26 21 20 29 37 41 35 28 27 29 29 29 31 32 33 33 33 32 32 31 31 31 28 29 29 28 28 29 30 30 28 25 25 21 19 18 17 17 18 21 26 26 25
14 11 21 28 39 42 37 32 32 27 29 31 33 32 29 28 29 28 29 31 31 32 28 29 30 30 31 32 31 30 31 29 26 22 20 19 19 20 22 24 26 29 27
16 19 17 19 40 39 25 33 36 32 29 28 33 35 31 28 32 33 31 34 34 34 31 34 29 30 31 32 30 30 29 29 28 25 21 21 21 23 26 26 29 29 28
8 21 24 23 24 26 36 32 16 31 32 30 32 41 41 43 37 41 42 43 43 40 40 44 38 33 33 33 32 31 29 33 29 26 29 27 25 27 29 31 31 30 29
9 11 10 9 4 4 2 8 25 16 20 41 39 43 45 40 47 50 53 50 52 50 50 50 37 38 35 38 33 34 35 32 32 36 34 38 39 36 30 33 33 34 31
10 10 8 3 6 6 5 7 10 14 21 15 15 14 24 39 17 46 65 48 49 52 53 52 62 31 28 33 32 32 34 37 33 30 36 36 33 29 33 30 30 31 30

GFSSE_700_spd_084.txt.gz
Wind_Speed
7 8 17 17 14 12 12 12 12 13 13 14 15 16 18 18 18 16 14 13 9 7 7 6 6 6 6 7 7 8 8 7 8 8 9 9 9 8 8 8 8 8 8
22 18 10 16 14 12 12 12 12 13 13 15 16 17 20 20 17 17 16 14 10 9 7 6 5 5 7 8 8 8 8 7 7 7 7 8 8 8 8 8 8 8 8
24 24 21 14 16 14 14 13 13 13 14 16 17 17 19 21 18 16 16 14 12 11 9 7 6 7 7 7 7 7 7 6 6 7 7 8 7 7 7 7 7 7 7
27 28 22 18 16 16 15 14 13 13 14 16 18 17 21 22 20 17 16 14 13 11 10 9 8 7 7 6 6 6 6 6 6 7 5 7 7 7 7 8 8 8 8
24 28 23 21 19 17 17 15 15 14 15 17 19 20 22 22 20 18 17 15 13 12 10 10 9 8 7 5 5 5 5 5 5 6 6 6 6 7 7 8 8 9 9
19 21 22 22 18 18 18 17 16 15 16 18 20 23 23 23 20 19 17 15 14 12 11 9 8 7 6 6 5 5 4 4 4 4 5 5 6 6 6 7 8 9 11
24 28 23 20 19 18 19 17 17 18 19 19 21 22 23 24 22 20 17 16 15 14 12 11 8 7 6 6 5 4 3 3 3 2 3 3 4 5 6 8 9 10 11
25 34 22 23 24 20 19 18 19 22 20 20 22 23 25 26 24 21 18 17 17 15 13 11 9 8 7 5 4 4 3 2 2 2 1 2 3 4 5 7 9 10 10
30 31 27 26 26 23 21 20 22 26 24 23 23 26 26 27 24 21 20 20 19 17 14 11 10 8 6 4 3 2 2 2 2 2 1 1 3 5 6 8 9 10 10
33 37 43 24 25 21 21 21 24 28 29 26 26 28 28 27 24 23 22 22 20 17 14 12 10 8 6 4 3 2 2 2 3 3 2 2 4 5 6 8 9 9 10
40 44 24 32 29 24 21 23 26 29 34 29 29 29 28 26 24 25 24 23 21 18 16 13 10 8 6 4 4 4 4 4 4 3 4 3 4 5 7 8 9 10 10
42 47 24 23 27 25 22 25 28 32 36 37 32 30 28 26 26 28 26 24 21 19 16 13 10 8 7 6 6 6 6 6 5 4 4 5 5 6 7 9 10 11 12
33 42 70 56 5 30 29 27 31 34 36 41 39 33 29 28 30 29 27 25 22 20 17 14 11 10 8 8 8 8 8 7 6 6 6 6 7 8 9 9 11 14 15
40 39 57 64 58 25 31 34 38 37 38 40 43 37 33 32 32 30 29 26 24 21 17 14 12 11 10 10 9 9 9 8 9 7 6 7 8 8 9 11 11 13 14
35 28 41 57 62 30 42 22 41 37 39 37 39 40 39 34 34 32 30 27 25 21 18 16 14 13 12 12 11 11 10 10 10 9 8 7 9 9 9 10 12 13 14
22 20 25 25 39 31 34 22 40 36 38 37 37 40 39 34 33 31 30 28 25 22 18 17 16 15 14 14 13 12 12 11 11 11 10 9 9 9 10 11 13 15 16
19 16 21 19 32 25 26 22 31 32 32 34 35 37 36 36 36 34 31 28 25 23 21 19 18 17 16 16 16 15 14 14 13 13 13 13 10 10 11 13 14 15 16
21 16 18 16 34 39 35 30 30 29 28 30 34 36 37 36 35 34 32 29 26 24 22 20 19 18 18 18 19 18 18 17 15 15 15 14 13 12 12 13 15 16 17
21 20 18 19 15 25 21 28 30 30 31 30 31 34 35 36 36 34 32 30 28 25 23 22 21 21 19 20 21 21 22 22 19 17 17 16 15 14 14 15 14 16 18
21 20 15 20 20 20 26 29 35 32 29 30 29 32 33 34 34 34 32 30 29 28 26 24 23 22 22 22 22 23 26 27 21 23 21 19 18 17 17 17 17 19 21
22 22 20 18 20 11 15 33 28 30 34 32 31 30 33 33 33 34 32 30 30 29 28 28 26 26 24 25 26 27 29 28 26 25 24 22 21 19 18 19 19 20 22
23 26 24 22 28 19 30 30 33 32 32 30 30 34 33 34 34 32 34 32 32 31 31 30 27 29 28 29 28 29 31 28 29 28 26 24 23 22 21 21 23 23 23
20 15 20 18 22 32 34 39 33 36 33 32 29 29 31 33 32 30 27 26 26 27 28 32 32 32 29 28 26 27 30 33 31 32 28 26 25 24 23 21 23 25 28
21 21 12 21 23 31 36 25 26 32 37 29 33 32 31 41 34 33 32 35 34 33 33 31 34 36 45 33 40 29 35 34 34 34 29 27 27 27 26 25 31 31 31
7 16 18 15 12 19 35 20 24 17 27 35 36 33 36 44 34 38 35 39 39 40 47 52 44 43 45 45 43 41 47 38 34 32 29 31 32 35 36 39 41 40 29
11 6 13 12 8 10 3 2 11 32 15 40 42 39 24 26 37 44 42 36 36 46 51 51 56 54 55 51 54 52 39 40 40 40 36 32 26 29 28 19 22 24 22

GFSSE_700_spd_087.txt.gz
Wind_Speed
11 12 13 15 16 13 11 12 12 12 13 14 15 15 17 18 18 17 15 14 10 8 7 5 3 4 5 6 7 7 8 8 8 8 8 8 7 7 7 6 7 7 7
17 15 12 9 16 14 12 12 12 12 14 14 16 16 18 19 19 18 15 14 11 9 7 5 4 5 6 6 6 6 6 7 7 7 6 6 7 7 7 7 7 7 7
15 18 23 20 17 17 14 14 13 13 14 15 16 18 20 20 19 19 17 16 12 11 8 5 6 6 7 6 6 5 5 6 6 6 6 6 7 7 7 7 7 8 8
13 15 21 23 20 20 17 16 15 15 15 16 18 19 20 21 20 18 18 17 14 12 9 7 6 7 7 6 5 5 5 6 6 6 5 6 7 7 7 7 7 8 8
12 22 24 27 23 22 19 18 16 16 16 17 19 20 21 22 22 19 18 16 14 12 9 8 8 8 6 6 5 5 4 6 7 5 4 5 5 6 6 7 8 9 8
18 15 20 27 25 24 20 19 17 17 17 18 20 21 22 22 22 21 18 17 15 13 12 10 9 8 7 6 6 5 5 5 6 4 3 3 4 5 6 7 7 8 8
24 23 20 21 25 19 18 18 18 17 17 18 21 22 24 23 23 22 19 17 16 14 13 12 10 8 7 6 6 5 5 5 5 2 2 1 2 3 4 6 7 7 8
25 23 28 20 22 22 19 19 19 18 16 17 20 23 24 25 25 23 21 19 18 16 14 12 10 8 8 7 6 5 5 5 5 3 2 1 1 2 2 4 6 6 7
28 21 23 28 29 27 23 20 19 20 16 19 20 24 27 28 27 25 23 22 20 17 15 13 11 10 9 7 6 5 5 4 4 3 3 2 1 2 3 4 5 7 8
27 23 23 27 33 33 28 23 19 21 24 23 25 27 29 29 28 27 24 24 21 19 16 14 12 11 9 6 5 4 4 4 4 4 4 3 2 2 4 6 7 8 9
32 25 27 29 32 37 32 27 23 21 28 27 27 29 30 29 30 27 25 24 23 20 17 14 13 11 9 7 6 5 5 5 4 4 4 3 3 4 5 6 7 9 9
31 29 28 31 32 36 42 29 25 26 27 33 27 31 32 32 30 26 27 25 24 21 18 16 14 11 9 7 7 7 6 5 5 4 5 4 4 5 6 6 7 8 9
34 31 38 41 41 47 30 25 25 28 30 36 31 31 32 31 31 28 28 27 26 22 19 17 14 12 10 8 8 8 7 7 5 6 5 5 5 5 5 6 8 9 11
37 31 36 42 47 60 52 34 17 20 36 37 42 34 36 34 32 29 29 29 26 23 21 19 16 13 11 10 10 9 9 9 7 6 7 6 5 6 6 6 8 10 11
30 37 36 43 48 50 60 49 37 27 42 41 42 44 38 36 34 31 32 31 28 25 23 20 16 13 12 11 10 11 10 10 9 8 8 6 6 7 6 7 8 10 12
37 32 30 37 34 46 55 61 52 30 45 45 42 44 46 38 34 32 33 32 29 27 24 21 18 16 14 13 12 12 11 10 11 10 9 8 7 8 7 7 8 10 11
26 19 24 28 26 34 38 60 49 43 50 41 40 42 47 43 35 34 35 34 30 27 26 23 20 18 16 15 14 14 14 13 12 12 12 10 9 9 9 8 9 10 11
20 20 22 25 21 25 21 40 32 29 42 36 37 39 39 42 37 36 37 34 32 30 28 25 22 19 17 16 16 16 15 16 16 15 14 13 12 10 11 11 10 11 12
30 26 24 25 21 18 17 21 31 27 34 33 30 33 34 37 38 39 38 36 35 32 29 26 23 21 19 17 17 16 18 18 19 19 18 17 16 15 14 14 14 13 15
30 24 25 23 19 25 17 17 31 22 27 29 33 30 33 35 37 38 38 38 36 33 30 27 25 23 21 19 19 17 18 21 24 22 21 22 19 18 18 18 18 17 16
28 29 30 23 18 19 15 11 16 22 34 32 32 26 30 33 36 37 37 37 35 33 30 28 26 24 22 22 22 23 24 24 25 25 27 27 23 22 22 21 21 20 21
26 28 27 25 23 18 21 20 20 24 29 29 31 29 32 30 32 33 34 34 33 32 30 29 28 27 24 23 24 26 26 27 27 25 28 27 26 26 27 25 23 22 19
22 27 32 30 24 24 21 23 24 26 39 37 29 29 30 31 33 32 32 31 32 31 29 28 31 28 25 25 26 25 26 26 25 26 30 29 28 27 27 28 27 26 24
17 26 21 16 17 26 28 27 28 31 33 36 26 34 26 30 32 39 30 31 31 29 24 26 29 33 32 23 26 29 35 35 30 27 30 37 36 33 31 30 28 29 30
16 19 25 17 8 23 27 25 24 36 30 29 35 30 34 28 28 32 37 29 31 28 32 31 34 37 37 46 47 39 42 39 37 40 41 39 39 36 34 32 31 35 30
20 5 25 14 9 18 28 20 31 10 26 30 26 30 34 37 34 33 34 36 35 37 43 46 36 36 39 55 52 55 59 52 46 48 47 41 40 37 35 36 33 26 18

GFSSE_700_spd_090.txt.gz
Wind_Speed
11 11 10 14 13 12 11 11 11 11 12 12 14 14 15 16 17 16 13 11 11 7 6 4 3 3 4 4 5 5 6 6 7 7 7 7 6 6 6 5 6 5 6
17 15 10 6 6 11 13 13 12 12 12 13 14 14 14 16 17 16 15 14 12 9 7 5 3 4 4 5 5 5 6 6 6 5 6 6 6 6 6 6 6 5 6
14 15 15 11 13 12 13 15 14 13 12 13 14 15 16 17 18 18 16 15 13 10 8 6 4 4 5 5 5 5 5 5 5 6 5 5 6 5 6 6 6 6 6
9 13 15 14 16 17 17 17 17 15 14 14 15 17 18 19 19 19 17 16 14 12 10 8 6 6 6 5 5 5 5 5 6 6 5 5 5 5 5 6 6 6 6
10 14 15 16 17 19 19 20 19 17 16 16 16 16 19 20 20 19 18 18 16 14 12 10 8 8 7 5 5 6 6 5 5 4 4 4 4 4 4 4 5 6 6
18 15 13 14 18 21 20 22 20 18 17 17 17 19 19 21 22 21 19 18 17 15 13 12 10 9 7 6 5 6 7 7 5 4 3 3 3 3 3 4 4 6 6
19 20 18 15 15 21 23 23 22 19 18 18 18 19 20 23 22 23 20 19 18 17 15 12 11 10 8 7 6 7 8 8 7 4 3 1 0 1 2 3 5 6 6
24 23 21 24 19 21 23 23 22 20 17 17 19 20 21 23 22 24 22 21 20 18 16 14 12 10 9 8 7 7 7 6 6 5 4 3 1 1 2 4 5 6 7
28 26 29 26 29 31 25 26 26 24 19 16 17 20 22 25 26 25 24 22 21 19 17 15 13 11 10 9 8 7 7 6 6 5 4 3 2 2 2 3 5 5 6
26 26 28 25 29 27 32 29 27 25 24 19 17 21 26 28 29 27 25 24 23 21 19 16 14 13 11 10 8 7 6 6 6 6 5 4 3 2 3 3 4 5 6
26 27 28 30 28 26 31 32 33 29 26 24 22 26 29 32 31 28 27 26 25 23 21 18 15 14 12 10 8 7 6 5 6 6 6 5 4 3 3 3 4 5 7
24 27 27 31 27 27 29 32 37 34 32 31 24 27 30 31 32 30 30 28 26 25 23 20 17 15 13 11 9 7 7 6 5 7 5 6 5 4 4 3 4 5 6
28 27 28 30 32 31 28 25 34 33 35 37 33 27 32 33 34 31 34 30 28 27 25 22 19 16 14 12 10 8 7 7 6 7 7 8 6 5 5 4 4 5 6
30 30 29 34 36 35 39 40 45 39 37 37 40 36 31 34 37 43 37 30 29 28 25 23 20 18 15 12 11 10 9 9 8 8 8 8 6 5 5 5 5 4 6
29 34 37 37 40 43 45 44 47 50 48 34 36 40 35 42 39 43 32 30 31 30 27 25 22 18 16 14 13 11 10 10 9 10 9 8 8 7 6 6 5 5 6
25 33 35 36 33 36 43 48 48 49 51 32 29 37 48 40 43 35 30 30 34 32 29 26 23 20 17 16 14 13 13 12 11 10 9 9 10 9 9 7 6 6 7
28 35 36 35 43 40 37 38 46 50 61 62 32 38 51 47 35 36 36 34 35 34 31 29 27 23 21 18 16 15 15 14 13 12 11 10 10 10 10 9 9 8 9
32 32 25 35 39 35 28 33 36 40 46 59 48 40 52 52 46 35 32 34 37 36 34 31 29 25 22 19 18 18 17 16 17 15 14 12 11 11 11 12 12 12 12
31 31 31 31 32 28 27 29 30 30 29 50 38 44 52 47 50 41 38 37 40 38 35 34 31 27 25 22 20 20 19 18 18 19 18 16 15 13 14 15 16 15 16
34 36 34 39 35 27 29 26 21 26 24 25 33 48 45 45 40 44 39 33 40 40 38 37 33 30 26 24 23 22 20 19 19 18 20 19 17 19 18 19 20 19 20
37 29 29 34 28 29 28 28 26 24 19 26 34 36 44 35 37 37 42 40 42 41 39 37 34 31 28 27 25 23 22 21 22 24 26 23 22 23 23 24 24 23 22
28 25 25 26 29 24 32 26 22 24 20 26 35 34 43 42 37 37 39 41 42 42 41 38 35 31 30 28 27 25 24 23 22 24 27 25 25 26 26 26 28 25 25
27 26 24 25 29 26 31 27 26 27 20 26 27 33 37 38 33 33 35 37 38 39 38 36 34 32 32 29 27 26 25 21 19 19 20 25 27 27 28 28 29 29 30
23 21 24 25 26 29 32 35 29 28 33 36 26 37 33 37 41 38 35 36 37 36 36 36 35 35 33 32 31 26 24 22 22 30 28 31 33 35 35 31 36 34 33
15 15 17 21 25 28 34 26 17 30 31 34 32 38 34 34 37 38 39 40 39 38 34 33 32 31 31 34 38 38 40 42 44 41 36 40 45 38 40 42 36 37 36
14 14 15 18 19 20 23 22 21 17 25 21 25 30 26 35 31 31 38 43 36 38 32 40 35 35 36 36 42 40 38 41 50 50 53 53 51 55 51 39 49 41 42

GFSSE_700_spd_093.txt.gz
Wind_Speed
18 15 15 9 9 9 8 8 10 11 11 11 11 12 11 12 14 15 13 10 8 7 5 4 5 5 3 1 2 3 3 4 4 5 5 5 5 5 5 4 5 4 5
13 15 15 14 8 8 9 9 11 12 12 12 12 12 13 12 13 14 13 11 10 9 6 6 5 4 3 2 2 3 4 4 4 4 4 4 5 5 4 5 4 4 5
8 15 16 12 11 9 9 9 12 13 14 13 13 13 13 12 14 14 14 13 12 11 8 7 6 4 4 3 2 3 4 4 4 4 4 4 5 5 5 5 5 5 5
10 10 16 15 13 12 12 13 13 13 14 12 13 13 13 13 14 15 15 14 13 13 9 9 7 5 4 3 3 3 4 4 4 3 3 3 4 4 5 5 5 6 5
13 11 12 13 15 15 15 15 16 16 15 14 14 14 12 14 15 16 16 15 14 14 12 11 8 7 5 4 4 4 4 4 4 4 3 2 3 3 4 4 4 5 5
12 13 13 16 17 17 18 19 19 18 18 16 15 15 15 16 16 17 17 17 17 15 14 12 10 8 7 5 5 5 5 5 4 3 2 1 2 2 2 3 3 4 5
14 14 14 14 16 19 18 21 22 21 20 18 18 17 17 18 19 19 18 18 18 17 16 14 11 10 8 7 6 7 7 6 5 4 3 0 1 2 2 3 4 5 6
17 20 18 17 19 18 21 20 24 23 22 20 19 18 17 18 21 20 21 19 19 18 17 15 13 11 10 8 8 8 8 7 6 5 4 3 3 2 2 3 4 5 6
19 20 21 19 22 23 25 25 21 23 24 25 21 18 19 21 22 23 23 21 20 20 19 17 15 13 11 10 9 9 9 8 7 6 6 5 4 4 3 3 3 4 5
21 18 21 21 22 24 27 25 24 25 26 25 23 20 22 25 25 26 24 22 23 22 21 19 17 15 13 11 10 9 8 8 8 7 7 6 6 5 5 4 4 3 4
20 20 21 23 23 23 25 25 27 29 28 26 24 22 24 27 28 30 24 24 24 24 23 21 19 17 15 13 11 10 8 7 8 7 8 7 7 6 5 5 4 3 4
20 21 22 25 24 28 24 24 28 29 29 27 28 26 27 30 30 30 26 26 27 26 25 23 22 19 16 14 11 10 9 8 8 9 9 8 7 7 6 5 4 4 4
21 23 23 23 27 29 31 28 25 27 28 28 30 30 29 29 32 32 31 29 31 30 29 27 24 20 17 14 12 11 9 9 9 9 9 8 8 8 7 6 5 4 4
20 24 26 27 27 28 29 30 30 29 25 28 29 36 32 33 34 34 35 34 35 33 31 28 25 22 20 16 14 12 11 10 10 10 10 9 10 9 8 7 6 5 4
26 26 26 28 31 32 32 31 32 34 37 39 40 38 38 33 36 36 38 36 43 35 34 30 27 24 21 18 15 13 12 12 10 11 11 10 10 10 9 8 8 7 6
27 25 22 26 30 33 33 37 37 37 38 43 42 41 42 44 35 38 42 42 44 37 35 33 28 26 23 21 18 15 14 13 12 12 12 12 12 12 11 10 9 9 8
29 31 28 25 29 36 40 42 45 46 43 40 44 39 51 49 46 39 44 42 40 42 37 36 32 30 28 25 21 17 16 15 15 15 14 13 13 14 12 12 11 11 11
24 33 31 29 29 31 34 38 42 47 44 41 40 45 50 54 56 45 44 43 45 37 42 37 35 32 29 26 22 19 18 18 18 18 17 15 14 13 12 12 14 14 14
23 26 23 28 32 34 37 33 35 44 42 41 43 37 44 54 45 42 49 46 43 43 42 40 39 34 31 28 25 23 21 21 21 21 20 18 18 16 13 14 15 16 18
24 21 25 32 35 32 39 38 32 38 40 36 33 30 27 54 49 54 54 47 36 40 43 42 38 36 33 30 28 26 25 24 24 22 22 21 18 18 19 17 19 20 20
26 27 30 31 31 34 35 34 33 36 36 35 32 32 26 24 47 46 48 52 40 40 42 42 39 39 36 33 32 30 28 27 25 24 24 23 22 23 24 22 23 25 23
27 30 33 32 33 34 29 31 34 36 34 37 30 24 23 23 36 46 47 44 36 36 37 37 41 39 36 36 34 31 31 29 26 26 27 25 24 24 24 23 27 26 26
31 33 34 31 29 30 26 29 34 31 31 33 34 31 28 28 32 48 48 38 34 35 38 41 43 39 36 37 35 34 34 33 29 28 27 24 22 22 24 27 25 30 29
34 30 28 29 28 24 26 28 29 29 31 32 40 39 28 23 39 49 53 41 39 37 36 37 36 36 38 37 37 36 35 32 31 31 26 23 30 29 30 29 32 30 36
23 22 23 24 24 22 24 27 27 32 39 40 31 28 22 29 32 38 43 49 40 36 36 37 38 39 39 41 39 38 37 36 33 34 32 43 37 41 41 42 45 44 43
24 20 19 14 12 16 18 22 16 32 18 26 36 25 30 23 32 34 44 44 41 40 43 43 43 44 43 40 41 44 41 41 36 40 41 45 48 49 50 49 47 45 42

GFSSE_700_spd_096.txt.gz
Wind_Speed
13 11 13 13 10 9 6 6 5 6 7 8 8 8 7 9 10 12 11 10 7 6 5 4 4 6 5 3 2 1 2 3 4 3 4 5 5 5 5 5 6 6 6
13 10 12 13 12 11 7 6 6 7 8 9 10 10 9 9 10 12 13 11 9 7 5 4 5 5 4 2 0 1 1 3 3 3 3 4 4 4 5 5 6 5 5
3 7 13 14 14 11 9 7 7 9 10 10 10 11 10 10 10 11 12 12 10 9 6 6 6 5 4 2 2 2 1 1 2 3 3 3 4 4 5 5 4 4 4
5 7 9 11 11 11 11 9 10 10 10 10 10 10 10 9 10 11 12 12 11 10 8 7 6 6 6 3 3 2 2 2 2 3 3 4 4 4 4 3 4 4 4
8 9 11 12 12 13 13 14 14 13 12 12 12 11 10 9 10 11 12 12 13 11 10 8 7 6 6 5 4 3 3 3 3 3 3 3 3 3 2 2 3 4 4
9 11 13 14 14 15 15 15 16 17 17 15 13 12 11 11 11 11 13 14 14 12 11 10 9 7 7 7 6 5 5 5 5 4 2 1 1 1 1 1 2 3 4
12 11 11 13 15 16 17 16 18 19 19 19 16 15 15 14 12 15 13 14 15 14 13 12 11 9 8 7 7 7 6 6 6 5 3 2 1 2 2 1 3 3 3
17 18 16 14 15 16 16 17 19 19 20 21 20 17 16 15 16 18 17 16 16 16 16 15 13 11 9 9 8 8 7 7 7 6 5 4 3 4 4 3 3 3 3
18 21 18 17 16 17 17 16 17 19 18 19 20 21 18 17 18 18 19 19 18 17 17 17 16 13 11 10 10 9 9 9 8 7 7 6 5 5 5 4 4 4 3
17 19 18 20 19 18 19 19 19 20 21 19 20 21 21 21 21 21 23 20 21 20 19 19 18 16 13 12 11 11 10 10 10 9 9 8 7 6 5 5 5 4 4
19 22 20 19 20 18 18 17 19 20 23 22 23 23 23 23 25 24 26 21 21 22 22 21 20 18 16 15 13 12 11 10 10 10 10 9 8 7 6 6 5 4 4
22 22 20 20 18 20 20 19 19 19 22 24 23 22 23 25 27 26 27 25 23 24 24 24 23 22 19 17 14 12 12 11 11 10 10 10 9 8 8 7 6 6 5
28 22 19 18 19 20 21 23 23 24 21 19 23 23 24 26 28 28 30 28 26 28 28 28 27 25 21 19 16 14 13 12 11 11 10 10 10 9 9 8 8 7 6
28 25 23 23 26 22 22 22 23 25 25 24 25 24 23 25 30 29 31 30 30 30 30 30 29 27 24 21 19 16 14 13 12 12 11 10 10 10 10 10 10 8 7
33 29 26 23 22 23 22 23 24 24 24 26 28 31 29 28 30 34 34 36 35 33 33 33 33 30 27 24 21 18 16 15 14 13 12 12 12 12 12 11 10 9 8
36 34 33 31 27 27 26 27 28 29 32 33 33 32 35 32 39 38 40 39 40 40 37 36 36 34 30 26 23 21 18 17 15 15 14 13 13 13 13 12 12 11 10
39 41 41 38 34 32 32 33 34 32 34 37 39 40 40 38 38 45 43 42 44 42 45 44 41 39 33 31 27 24 21 19 17 16 16 15 14 15 14 13 14 13 13
38 40 38 36 34 29 26 28 31 34 33 35 34 37 38 38 38 39 41 50 52 46 53 53 51 42 37 34 29 25 23 21 20 19 18 18 17 15 15 16 16 15 15
35 34 33 33 33 33 28 29 32 34 34 32 34 35 37 38 41 44 49 54 55 56 50 44 51 44 39 35 32 28 25 24 23 22 20 21 20 18 17 17 17 18 17
35 31 29 30 31 35 33 34 34 34 35 34 34 36 36 38 39 42 53 56 54 51 51 48 50 46 40 37 34 33 30 28 27 24 23 24 23 23 22 21 21 20 20
31 30 27 26 23 28 33 36 33 34 38 35 34 34 36 36 37 37 47 55 55 53 54 47 51 44 43 41 39 36 35 32 30 27 26 26 25 24 22 24 23 22 25
29 29 28 27 27 29 35 38 37 35 36 36 34 35 38 38 37 35 34 47 52 53 50 54 54 54 45 39 41 37 38 35 32 29 29 28 27 27 26 25 23 23 21
28 25 25 24 25 28 34 35 33 34 32 33 34 34 34 37 36 33 29 39 51 47 52 47 48 40 38 40 41 40 40 38 32 32 33 31 30 29 28 26 24 22 24
29 27 26 28 30 33 33 31 32 34 33 31 34 35 39 37 35 38 34 31 34 37 34 50 50 46 44 42 40 43 41 38 37 37 35 34 34 32 28 23 24 25 28
25 27 30 34 33 32 30 32 32 31 31 30 36 39 44 38 40 41 33 33 35 39 32 27 33 43 41 43 46 43 41 39 38 38 38 36 35 32 29 32 33 36 40
19 22 27 22 22 20 23 22 21 24 20 26 21 27 29 37 36 31 38 41 41 42 36 32 36 42 41 41 40 41 42 40 40 39 41 36 34 35 43 43 41 42 46

GFSSE_700_spd_099.txt.gz
Wind_Speed
10 7 6 6 9 8 7 5 4 3 2 3 2 2 4 6 8 10 9 8 7 4 3 2 3 7 9 6 4 4 3 3 4 4 5 5 5 5 5 5 5 5 6
9 10 8 8 11 8 10 6 5 5 4 5 5 3 4 6 7 9 11 10 9 6 4 2 3 5 8 6 3 2 2 1 3 3 4 4 4 4 4 5 5 5 5
5 8 10 10 12 12 11 7 4 6 7 7 7 7 6 6 7 8 10 11 9 6 5 3 3 4 5 6 4 1 1 1 2 3 3 3 3 4 5 5 4 4 4
6 3 6 8 12 11 9 8 7 8 9 9 8 8 7 7 6 7 9 10 9 7 7 5 4 3 4 4 4 3 1 2 3 3 3 3 3 3 3 3 3 2 2
8 8 7 8 11 12 12 12 10 11 11 10 10 9 9 8 6 8 8 9 9 8 7 6 6 5 5 5 4 4 3 3 4 4 4 3 3 2 1 1 1 2 1
10 12 11 11 13 13 12 13 14 14 13 13 12 12 9 8 9 8 8 11 12 11 8 8 8 7 6 6 6 5 4 5 5 5 4 3 2 2 0 1 2 2 2
13 12 15 16 16 16 16 16 16 16 14 15 14 14 14 12 11 11 10 11 13 13 11 10 10 9 8 7 8 6 6 6 6 6 6 4 3 2 2 2 2 2 2
16 16 16 17 17 17 17 16 15 13 12 13 16 16 15 15 14 13 14 13 13 14 14 12 12 11 10 9 9 8 7 7 8 8 7 6 5 4 3 3 3 2 2
23 19 19 18 17 16 16 15 14 13 12 13 15 16 16 15 16 17 17 16 17 16 15 15 14 13 12 11 11 9 9 9 9 9 9 8 7 6 5 5 4 3 2
24 23 21 22 20 20 19 18 15 15 15 16 16 17 17 17 17 20 19 20 18 19 16 17 16 15 14 13 13 12 11 11 11 11 11 10 9 8 7 6 6 5 4
29 29 25 21 21 19 19 18 16 18 16 17 18 19 18 19 19 21 23 21 22 20 20 18 18 18 17 16 14 13 13 12 12 12 12 11 11 10 9 7 6 6 5
30 31 32 27 24 20 20 18 17 16 14 14 20 21 20 19 20 22 25 26 23 23 23 21 21 21 21 19 16 15 14 14 14 13 12 12 12 11 10 9 8 7 6
32 32 30 30 27 24 23 21 19 15 17 20 18 20 19 19 17 19 23 28 28 26 25 25 24 25 24 21 19 17 16 15 15 14 13 13 13 13 12 11 10 9 7
35 33 33 32 30 29 27 21 19 19 18 19 20 21 16 19 16 17 22 28 29 28 29 28 28 27 27 24 22 20 18 17 16 16 15 13 13 14 13 12 11 10 9
39 37 36 35 33 30 30 27 22 21 21 21 19 21 23 21 21 18 24 27 31 30 31 31 31 30 31 28 26 23 20 19 18 17 16 15 14 14 14 14 13 12 11
41 40 40 37 34 34 33 29 25 23 24 26 25 25 28 25 28 27 28 26 34 34 34 34 35 35 35 33 30 26 24 22 20 19 18 17 16 16 15 14 15 15 13
44 41 42 40 39 37 34 31 28 27 29 28 27 27 30 32 33 32 30 34 31 39 40 38 39 42 39 38 35 30 30 25 23 21 20 19 18 18 17 15 16 16 16
46 44 42 43 42 39 36 34 33 31 29 27 27 27 29 33 34 35 35 34 34 39 41 47 49 42 44 39 38 36 32 30 26 24 23 21 20 19 18 16 18 18 18
44 46 43 44 43 40 36 33 33 32 31 31 33 35 32 32 35 37 38 36 36 38 44 51 52 53 44 50 47 41 37 36 29 28 25 24 23 22 21 19 18 20 20
39 48 44 41 38 36 35 34 34 31 28 31 32 35 36 34 32 37 38 37 37 41 45 51 57 54 45 41 53 60 48 40 36 33 29 27 26 25 25 23 22 22 22
34 47 41 38 35 33 33 34 34 34 34 33 33 38 37 34 34 37 36 34 36 41 44 52 58 56 51 40 48 56 54 41 40 36 31 28 28 26 27 25 25 24 24
32 43 34 33 32 32 29 26 28 33 38 37 37 37 35 36 36 38 37 35 37 41 42 48 54 55 46 42 46 54 50 44 42 39 33 30 28 29 28 27 27 26 24
29 35 31 32 33 33 29 30 32 34 36 36 35 35 32 36 40 38 37 36 38 38 43 43 48 55 51 46 52 53 50 52 42 38 34 35 32 31 30 30 31 30 28
23 29 26 28 28 29 28 30 35 36 35 32 32 31 33 37 38 38 35 33 33 37 37 46 46 50 49 49 56 55 55 48 42 44 40 38 36 34 33 33 32 33 28
21 24 24 29 29 27 31 34 34 33 33 32 30 31 35 38 41 42 41 34 36 34 37 36 47 51 55 46 57 57 51 45 43 41 39 38 36 33 35 41 38 34 31
17 21 23 26 28 30 30 31 32 33 30 30 25 23 27 30 29 27 28 33 36 37 38 31 38 29 34 43 51 49 49 44 42 39 42 40 40 42 42 40 39 38 38

GFSSE_700_spd_102.txt.gz
Wind_Speed
10 7 6 4 4 5 6 6 5 3 3 3 4 2 3 4 5 7 8 8 6 5 2 3 3 4 7 6 4 2 2 4 5 6 5 4 3 3 3 4 5 5 6
14 11 8 8 7 7 5 7 6 4 3 4 4 3 4 6 6 6 9 9 7 6 3 2 3 5 6 5 4 4 2 2 4 4 4 4 3 3 2 2 3 4 4
12 12 10 10 9 9 8 9 6 3 4 5 5 6 5 6 7 7 9 9 8 5 4 4 2 3 4 5 4 2 2 1 2 4 4 3 3 3 2 2 2 2 2
10 9 10 10 12 12 11 9 7 6 7 8 7 6 6 6 6 6 7 8 7 6 6 5 4 4 2 3 4 3 2 2 2 2 3 3 3 3 2 2 2 2 1
10 10 9 8 10 11 11 11 10 8 9 9 9 8 8 7 4 4 5 6 7 7 7 7 5 6 5 4 3 4 4 3 3 3 3 3 3 2 2 2 1 0 0
13 11 10 11 11 12 14 14 13 10 10 11 11 11 10 8 7 5 5 7 8 9 8 7 7 7 6 6 6 5 4 5 5 5 5 4 3 3 3 2 1 1 1
16 18 15 16 15 15 16 15 14 14 14 12 12 12 12 11 10 9 8 9 10 11 11 10 9 9 8 7 7 7 6 6 7 7 7 6 5 4 4 3 3 3 3
19 17 17 19 19 19 19 18 17 17 14 12 11 11 13 12 12 12 12 12 12 12 12 11 12 11 10 9 8 8 8 8 9 9 9 8 7 6 6 6 5 4 5
22 21 19 20 19 19 18 17 15 14 13 14 15 14 13 13 13 14 15 15 16 15 14 14 13 13 13 12 11 9 9 9 10 10 11 10 10 9 8 7 7 6 6
24 25 24 24 23 22 22 19 16 16 16 16 17 16 16 15 14 15 16 17 17 17 16 16 15 15 16 15 14 12 11 11 11 12 13 13 12 11 10 10 9 8 7
28 28 26 26 26 25 25 24 23 22 20 20 19 19 19 17 16 16 18 19 20 20 18 19 19 18 19 18 17 15 13 13 13 14 14 14 14 13 12 11 10 9 9
31 31 30 30 29 27 27 25 24 22 21 19 19 23 22 20 18 17 19 21 23 22 22 21 22 22 22 22 20 17 15 15 15 15 15 16 16 15 14 13 12 11 10
33 33 32 32 33 31 30 26 25 22 21 16 16 13 17 24 23 20 20 19 22 23 24 24 26 24 25 24 23 20 18 18 17 17 16 16 16 16 16 14 13 13 12
35 35 35 35 34 34 33 33 30 27 26 23 17 18 13 17 18 20 19 19 20 22 24 25 28 28 27 27 27 25 22 20 20 19 19 17 16 16 17 16 15 14 13
40 39 39 38 36 36 36 34 33 31 28 25 26 26 25 15 18 17 21 18 21 23 23 27 26 31 32 30 30 29 27 24 23 22 20 19 19 17 17 16 16 16 15
38 41 43 43 40 39 37 36 35 33 31 29 25 24 25 23 23 22 23 27 25 22 26 28 30 31 32 35 34 33 32 29 26 26 24 22 20 20 19 17 18 18 17
41 40 45 46 45 43 41 40 38 36 34 30 27 28 26 27 26 26 27 29 31 28 31 29 33 37 36 39 36 39 36 34 31 30 27 25 23 22 21 20 19 20 20
39 44 43 46 47 46 44 42 40 37 36 34 31 28 26 25 27 28 31 32 35 35 35 37 37 38 39 43 47 40 47 39 35 33 31 29 26 25 23 22 20 20 22
32 39 43 47 49 48 47 45 42 39 38 35 33 30 28 29 31 34 37 34 37 39 38 39 39 40 45 44 49 46 46 44 42 39 37 34 30 28 26 24 23 23 23
31 33 39 48 50 49 48 46 43 41 38 35 32 30 31 33 35 37 38 35 36 39 40 41 44 44 46 47 47 47 46 48 44 47 45 40 34 32 29 28 26 25 25
32 34 38 45 50 47 47 45 43 40 35 33 31 31 36 39 38 41 41 39 38 39 38 39 41 45 47 48 50 51 55 50 47 46 49 51 44 35 31 31 29 28 28
27 30 37 40 45 41 40 39 39 37 35 34 33 35 37 38 41 43 43 42 39 37 39 41 42 43 44 47 51 57 55 50 52 53 50 59 52 44 33 33 32 30 30
22 23 28 34 37 36 35 36 35 33 32 32 36 40 40 41 44 44 43 43 41 40 39 38 40 38 45 43 48 52 56 56 46 51 51 60 58 38 35 37 35 33 33
10 12 21 29 31 29 32 33 34 34 34 36 36 39 38 36 40 40 40 38 39 42 41 38 35 41 38 43 41 46 52 52 50 49 56 65 43 45 43 36 38 36 35
5 11 17 23 26 26 29 29 31 32 34 36 38 35 34 36 36 38 38 39 43 45 45 40 39 34 36 44 42 43 51 53 58 57 55 52 52 52 38 41 45 40 37
10 13 16 19 24 23 27 27 30 34 38 38 31 29 31 28 28 29 36 37 38 38 39 37 37 32 35 40 44 46 48 57 62 56 45 48 54 37 38 36 39 40 42

GFSSE_700_spd_105.txt.gz
Wind_Speed
12 11 9 7 7 5 3 3 4 3 2 2 5 5 4 5 5 6 6 5 5 4 3 3 3 3 6 6 4 4 3 4 2 3 4 4 4 3 2 1 2 4 4
14 12 10 10 9 7 6 5 5 5 3 4 5 5 5 6 7 7 7 7 5 4 4 3 3 4 5 5 4 3 2 1 0 1 2 3 3 2 2 2 2 3 2
14 15 12 11 11 10 9 7 7 5 3 5 6 6 5 6 7 7 7 7 6 3 3 4 3 3 4 4 4 3 2 1 1 2 2 1 1 2 3 3 2 2 1
11 15 14 12 12 12 10 9 8 7 5 6 7 7 6 7 7 6 5 5 5 5 6 5 5 4 3 3 4 3 2 2 2 2 2 2 2 2 2 2 1 1 1
11 11 12 12 15 14 14 13 12 10 8 8 7 8 8 8 6 5 4 4 6 7 7 6 6 5 5 3 3 4 4 3 3 3 3 3 3 3 3 2 2 2 2
12 12 12 11 13 15 16 16 14 13 12 11 10 9 9 8 6 7 6 5 6 8 7 7 7 7 6 5 5 4 4 4 4 5 5 5 4 4 4 4 4 3 3
17 16 15 13 14 15 16 17 17 16 14 13 13 12 10 9 9 10 9 9 9 10 11 10 9 9 9 8 7 6 5 5 6 6 7 7 6 6 6 6 6 5 5
18 18 19 20 20 20 19 19 18 17 16 15 14 14 13 12 11 12 12 12 11 12 12 12 11 11 11 10 9 9 7 7 7 8 9 10 9 8 8 8 8 7 7
20 20 20 20 21 23 23 22 20 19 18 17 16 16 15 13 13 13 13 14 14 14 14 14 14 13 13 13 12 11 10 10 10 10 11 12 11 11 10 10 9 9 8
21 23 24 23 21 21 22 23 23 22 21 20 20 19 18 18 16 15 14 14 16 15 16 15 16 16 16 16 15 13 12 11 12 12 13 13 13 13 13 12 11 11 10
25 25 27 26 25 25 25 24 24 24 25 24 25 23 22 20 20 18 17 16 17 17 18 17 18 18 19 19 18 17 15 13 13 14 16 14 15 15 14 14 13 13 11
28 29 30 30 30 29 29 28 27 28 29 29 27 24 28 25 24 20 19 19 18 19 20 19 19 21 21 21 21 20 18 17 16 15 16 16 17 17 16 15 14 13 13
30 30 32 33 33 33 33 32 31 31 30 29 28 29 23 25 27 25 21 21 20 20 22 21 21 21 21 23 24 23 22 21 20 19 18 17 18 18 17 17 15 14 13
32 32 34 35 34 35 36 36 34 32 31 30 29 29 19 12 18 22 25 22 24 21 19 21 23 23 23 24 25 27 26 25 24 23 22 19 19 19 19 18 17 16 15
35 34 35 38 37 37 38 37 37 35 34 32 33 32 34 35 28 19 20 20 23 22 23 25 24 27 27 27 28 28 30 29 27 27 26 23 21 21 20 19 19 18 16
37 38 37 40 42 41 40 39 39 38 37 35 34 32 29 27 26 27 25 25 25 25 25 22 25 27 29 28 30 32 31 34 32 31 29 29 25 24 22 21 20 19 19
35 39 40 42 42 46 45 42 41 40 38 36 33 32 29 28 26 26 26 26 24 25 26 30 33 29 31 31 34 34 38 35 36 35 35 33 31 28 25 24 21 21 21
32 33 37 42 45 47 50 47 45 44 43 40 38 35 33 29 30 30 28 26 24 27 29 30 34 36 36 35 36 38 39 40 36 41 40 37 37 32 30 27 25 22 23
34 35 36 37 43 47 50 50 48 47 46 43 40 37 35 32 31 32 30 29 32 34 35 35 35 38 42 42 42 42 44 43 46 43 44 46 40 35 34 32 30 26 25
31 34 37 37 38 43 47 51 49 49 46 44 41 37 34 34 33 33 34 36 36 38 41 38 39 38 41 43 46 46 47 46 45 46 45 42 48 44 38 38 35 32 27
31 34 36 38 40 41 44 51 50 47 45 43 41 38 36 34 33 36 37 41 42 42 42 42 40 40 41 41 43 46 50 51 50 50 49 51 49 45 43 43 40 35 34
29 32 33 35 38 41 40 50 45 43 43 43 42 37 35 34 35 39 43 44 43 45 45 43 42 38 40 41 42 42 48 52 54 51 52 54 52 47 52 45 46 43 39
26 26 26 27 27 29 36 36 40 40 39 41 36 36 35 37 39 43 46 47 48 49 48 43 42 41 41 40 41 44 47 52 50 54 52 55 53 50 50 50 50 51 48
21 21 19 13 17 22 28 31 33 36 32 37 35 37 37 40 44 45 47 47 46 47 46 42 41 44 44 43 41 45 43 45 50 57 50 45 47 49 53 55 56 53 57
18 13 13 9 7 14 20 25 28 29 28 33 35 37 41 43 43 45 44 42 43 43 43 44 43 44 45 44 44 42 45 45 47 53 45 45 47 47 47 59 56 54 64
17 13 11 10 9 13 14 23 29 27 24 33 35 38 40 44 45 32 34 35 35 36 41 41 42 43 44 44 44 46 41 40 47 48 44 52 53 52 55 51 62 54 41

GFSSE_700_spd_108.txt.gz
Wind_Speed
9 13 12 9 8 8 5 3 2 2 1 1 4 4 4 4 4 5 5 4 3 2 2 3 4 4 7 6 6 5 7 4 3 1 1 1 2 2 2 3 5 8 7
12 12 12 11 10 9 7 4 3 4 2 2 2 3 4 4 6 6 5 5 4 3 2 2 3 4 5 6 5 4 3 2 1 2 1 1 1 1 1 1 3 3 3
15 13 13 13 13 11 9 8 6 6 5 3 3 3 4 5 6 6 5 4 4 3 3 2 2 3 4 4 4 3 2 1 1 1 2 2 1 2 2 2 1 2 1
14 14 16 15 14 14 11 11 10 10 7 5 5 3 4 4 5 5 3 2 4 5 5 3 3 4 3 3 3 2 2 2 2 3 3 2 2 2 2 2 2 2 2
11 12 12 15 14 15 15 14 12 11 10 7 7 7 6 6 4 4 4 2 6 7 8 6 5 6 5 4 4 3 3 3 3 4 3 3 2 2 3 3 3 3 3
12 11 10 12 15 18 17 16 15 14 13 12 9 8 8 8 7 7 5 4 6 8 9 8 7 7 7 6 5 6 5 5 5 5 5 4 4 4 4 4 4 4 4
16 14 13 12 14 15 16 16 17 17 15 14 11 10 10 10 10 10 9 7 8 9 10 11 10 9 9 8 7 7 7 8 7 7 7 5 6 6 6 6 6 6 6
18 20 19 19 17 16 16 17 18 19 17 15 15 15 14 14 14 13 12 11 10 11 13 13 13 12 11 10 10 9 8 8 9 9 9 7 8 7 7 8 8 8 8
17 19 20 21 21 20 21 22 21 20 20 19 19 19 18 16 14 15 15 14 13 14 15 14 15 14 13 12 12 12 11 10 10 10 11 10 11 11 10 9 9 10 10
19 20 21 22 22 23 22 23 24 25 24 23 23 22 22 20 19 16 17 16 15 15 15 15 16 16 15 15 15 14 13 12 13 12 12 10 13 13 13 13 12 11 10
22 22 22 24 25 25 24 23 23 25 26 25 24 25 25 24 22 20 20 18 17 18 18 16 17 18 18 17 17 17 16 15 15 15 14 12 13 13 14 15 14 13 12
21 22 25 26 28 28 28 29 27 26 26 26 27 28 27 27 28 27 26 22 20 20 19 19 19 19 18 18 18 19 18 18 18 18 16 15 16 15 15 15 15 15 14
23 23 24 26 29 31 33 33 31 31 30 29 30 30 30 30 29 26 26 23 23 21 21 20 21 22 20 19 19 20 20 21 21 21 19 18 18 17 16 16 16 16 16
28 28 27 29 29 31 34 35 35 35 35 33 31 30 29 28 29 19 12 17 26 24 23 21 20 20 22 22 23 22 21 23 24 25 23 21 20 19 19 18 17 17 16
31 31 33 33 34 34 35 34 36 36 37 36 35 33 30 27 27 26 30 30 25 23 21 22 25 23 23 24 24 25 27 24 24 27 28 26 23 23 22 21 19 18 17
32 32 33 36 37 37 39 38 36 37 38 39 38 35 33 32 33 31 27 27 31 30 30 27 26 26 25 24 25 26 25 27 28 28 30 30 30 25 26 25 23 21 20
29 29 30 34 37 40 41 43 41 39 41 41 40 39 38 36 34 31 29 28 27 26 24 24 27 28 29 28 29 29 34 32 32 31 32 33 30 32 29 29 27 25 23
30 30 31 32 33 37 38 45 45 44 43 43 42 41 38 34 33 31 30 28 27 29 27 26 26 28 29 31 33 33 35 32 36 36 34 36 36 35 32 32 30 29 27
31 33 33 33 33 34 37 40 47 46 46 44 43 43 39 36 35 34 34 30 30 29 30 29 30 34 35 36 37 36 39 42 42 41 41 38 38 39 38 36 42 33 31
31 30 33 33 34 34 35 39 42 48 46 46 45 43 42 40 38 36 35 33 34 35 35 34 36 37 40 41 40 41 42 45 47 48 48 46 43 42 43 41 39 38 32
30 31 33 33 33 35 36 37 40 41 46 45 40 42 43 39 37 38 36 36 37 36 37 40 42 42 42 41 44 44 43 44 48 50 52 50 48 44 47 44 43 45 40
30 30 29 29 30 33 36 37 38 38 40 40 40 40 40 38 36 37 38 37 38 39 42 44 43 44 46 43 43 43 46 46 46 45 46 48 50 49 50 49 46 44 45
26 31 31 25 24 26 29 28 27 31 30 32 35 38 34 42 39 35 36 37 41 44 46 48 48 47 48 46 43 44 45 46 45 44 44 47 46 45 48 47 48 49 47
29 29 27 25 22 19 15 21 21 21 24 28 29 34 31 36 42 35 38 43 45 48 50 50 50 47 45 46 44 45 46 45 47 48 48 43 39 42 45 44 48 50 48
26 25 22 18 15 14 10 6 9 15 21 25 25 28 30 32 33 36 41 44 46 47 51 49 47 49 46 45 46 44 44 44 45 48 48 48 46 44 47 48 42 44 46
21 26 18 16 15 14 13 12 9 13 21 27 32 24 26 31 36 40 43 44 47 51 45 44 45 42 42 46 45 46 48 49 49 47 49 49 46 48 52 46 38 37 43

GFSSE_700_spd_111.txt.gz
Wind_Speed
4 11 11 9 8 8 7 5 3 4 3 3 2 2 3 3 3 3 3 4 4 3 2 1 3 4 6 6 7 9 5 4 3 3 4 3 3 2 1 2 4 5 7
9 11 12 12 11 10 10 8 7 6 6 5 2 1 1 2 3 4 3 3 4 4 3 2 1 3 5 5 4 3 1 1 2 3 3 3 3 3 3 1 2 2 2
12 11 14 14 13 13 12 11 9 9 8 6 4 4 3 3 4 4 3 3 4 4 4 3 1 3 4 5 4 3 2 2 2 2 3 3 4 4 3 4 4 3 3
10 11 14 15 16 15 14 13 12 11 10 9 7 5 4 4 5 4 3 3 5 6 6 4 2 2 4 4 5 5 4 4 3 3 3 3 4 4 4 4 4 4 5
8 9 10 15 16 16 15 14 13 12 12 10 8 7 6 6 6 5 4 4 5 7 7 6 4 3 5 5 5 6 6 6 6 4 4 4 5 4 3 4 4 4 4
10 10 10 12 17 17 17 16 16 15 15 13 10 9 9 9 9 8 7 5 6 9 10 8 8 6 6 6 7 7 7 7 7 7 5 5 5 5 5 4 5 5 5
14 13 12 13 13 16 18 18 18 18 17 15 13 12 12 11 12 11 10 9 9 9 11 12 11 9 8 8 8 8 7 8 8 8 8 6 7 6 6 6 6 6 6
16 18 17 16 15 15 17 17 18 18 18 17 16 17 16 15 15 14 14 13 12 11 13 14 15 13 11 11 11 10 9 8 7 8 9 9 10 9 8 8 7 8 8
15 17 21 22 21 21 21 21 21 20 20 21 21 21 19 18 17 15 15 16 16 15 15 15 16 14 13 12 12 13 12 10 9 8 8 8 11 11 11 11 10 10 10
17 18 20 21 23 23 22 22 23 24 25 24 24 23 23 22 20 19 19 18 18 18 18 17 16 16 16 15 14 14 14 14 12 11 11 9 12 12 13 13 13 12 12
15 17 21 23 24 25 24 25 24 25 25 26 26 26 26 24 23 23 21 20 21 20 20 19 19 18 17 16 15 15 16 16 16 14 13 12 12 13 14 15 14 14 13
16 17 17 21 25 26 27 28 27 26 25 26 27 27 27 26 26 25 24 24 22 22 22 21 21 21 20 17 16 16 16 18 19 18 16 15 14 15 14 15 16 16 15
22 22 22 22 23 26 29 31 31 32 31 30 29 28 28 29 28 29 28 27 21 21 22 22 22 21 21 21 20 18 18 19 19 20 19 17 16 17 16 16 16 17 16
25 26 26 28 28 28 29 32 34 35 36 35 33 32 33 29 28 29 27 26 21 12 20 21 22 21 21 22 22 22 21 22 21 21 22 21 19 20 19 18 18 17 18
26 26 28 30 31 32 33 33 34 36 38 38 38 35 35 32 31 30 31 27 25 25 22 23 20 23 21 24 24 24 23 23 23 24 24 24 23 22 22 21 20 20 20
28 28 29 31 33 34 35 37 36 35 38 40 40 37 37 34 33 32 32 29 32 27 26 26 27 25 24 24 26 25 25 26 25 26 26 27 26 26 24 23 23 23 21
27 28 29 30 31 33 34 35 38 38 38 41 41 39 38 36 35 35 36 35 33 31 30 30 27 27 26 26 26 29 26 26 28 31 29 28 27 29 28 27 26 28 25
31 31 31 32 33 35 35 35 35 37 39 41 43 41 39 39 36 37 39 37 32 32 31 31 30 29 29 26 27 28 30 31 31 33 34 33 29 32 33 32 33 31 28
33 32 33 34 35 35 36 37 37 39 39 40 42 44 42 41 39 37 36 35 33 34 34 34 34 33 31 30 32 33 34 36 36 37 38 39 38 39 38 38 35 34 35
30 32 33 34 36 36 35 35 35 36 40 40 40 42 43 44 41 39 39 36 37 37 36 35 34 35 34 34 36 40 42 41 41 42 42 43 45 46 43 42 40 40 40
29 29 31 30 31 35 35 36 37 37 36 39 35 33 37 42 43 42 40 40 40 36 35 35 37 40 40 40 45 45 46 46 47 45 45 46 47 50 50 49 47 46 41
28 28 25 29 29 32 32 31 32 33 32 33 29 28 35 33 38 41 39 37 36 36 36 37 38 41 44 45 47 47 51 52 50 46 45 47 47 46 47 47 49 48 49
22 24 28 31 29 28 24 24 23 21 22 22 23 26 33 36 35 37 34 36 34 34 36 37 39 43 48 48 51 52 53 52 50 47 44 44 41 42 43 43 43 45 47
21 25 28 28 24 22 20 21 14 12 13 14 19 22 25 30 32 31 39 39 36 36 38 40 44 47 49 52 52 51 51 51 51 52 49 48 46 44 41 42 42 42 42
19 22 25 22 17 18 14 14 15 9 5 10 15 19 16 33 32 31 35 40 38 35 40 43 46 49 53 54 52 49 48 47 49 51 53 51 49 46 43 40 41 40 37
16 19 22 21 16 15 14 15 11 11 11 12 17 19 25 28 25 23 25 28 33 38 41 44 48 52 54 52 47 47 47 45 50 51 53 53 53 51 48 45 44 42 40

GFSSE_700_spd_114.txt.gz
Wind_Speed
7 11 11 9 9 9 8 7 7 6 6 6 4 3 3 3 3 4 4 5 5 4 3 2 2 4 7 7 7 4 2 2 1 2 3 4 5 5 4 4 5 4 4
8 8 14 12 11 11 12 10 9 8 8 7 6 4 4 4 3 4 5 5 5 5 4 3 2 2 5 8 6 3 4 3 1 2 2 2 3 4 4 3 5 5 4
9 9 12 14 14 13 14 13 11 10 9 8 7 6 6 5 5 6 6 5 6 4 4 3 3 3 4 6 7 6 6 5 4 4 3 4 4 4 4 4 5 5 5
6 10 12 14 15 15 15 15 14 12 12 11 9 8 7 7 7 6 5 5 6 5 5 5 5 3 4 5 6 7 7 5 4 5 5 5 5 5 5 5 5 5 5
7 6 10 14 16 18 16 16 16 15 14 14 12 10 9 8 8 8 8 6 6 8 8 10 6 5 5 6 6 7 7 7 4 3 6 6 6 6 6 6 6 6 6
10 9 8 11 17 17 19 18 17 17 15 15 14 13 12 11 9 9 9 8 8 8 10 11 10 8 8 8 8 8 7 7 6 4 4 7 6 7 7 6 6 7 7
14 13 12 11 13 16 20 20 19 19 18 18 17 16 15 14 13 12 11 11 11 10 11 12 13 11 10 10 11 10 10 8 6 4 4 6 8 8 8 8 7 8 8
15 17 17 16 15 15 15 17 20 21 20 20 19 19 19 17 16 15 15 14 14 14 13 14 15 15 14 13 13 12 11 10 9 8 6 6 7 9 10 10 9 9 9
14 17 19 21 21 20 20 18 18 19 20 21 22 22 21 20 19 19 17 16 15 16 17 16 17 17 16 15 14 13 13 12 11 10 8 8 9 9 11 12 12 11 11
15 17 19 21 22 25 26 26 25 24 24 24 24 24 24 23 22 21 21 20 19 18 17 18 19 19 18 18 16 16 15 14 14 13 11 10 10 10 11 12 13 13 13
12 14 18 21 23 24 26 27 27 28 27 26 26 26 27 27 26 24 24 23 22 21 19 20 19 20 20 20 19 18 18 16 17 16 15 13 12 12 12 13 14 14 14
17 18 17 19 22 24 25 26 28 29 30 30 28 26 26 27 27 27 26 25 25 24 23 22 21 20 21 20 20 20 20 20 19 19 18 16 15 14 13 14 13 14 15
21 22 23 23 24 26 27 28 29 30 32 32 32 32 30 28 29 29 28 28 28 28 27 25 23 22 21 21 22 23 23 22 21 21 21 20 18 17 16 15 15 14 14
23 24 25 27 28 29 30 31 32 33 33 34 36 36 35 34 32 31 29 30 28 27 25 21 25 24 24 23 23 24 24 24 23 23 23 23 21 21 20 18 18 16 15
22 24 25 26 28 29 31 34 35 36 37 38 39 39 39 38 36 35 33 32 29 28 26 23 24 24 22 22 22 23 24 25 25 25 25 26 25 23 23 22 21 20 18
22 23 23 25 26 27 29 31 34 37 39 41 42 41 41 40 38 38 36 33 33 30 32 31 24 27 27 26 24 24 25 25 26 27 26 27 29 27 26 26 25 24 22
25 25 27 27 28 29 29 30 31 33 36 39 43 45 44 42 38 38 37 35 33 33 35 35 31 30 29 27 27 27 25 25 27 27 27 29 30 29 30 28 28 27 27
28 30 30 30 31 31 32 34 34 34 35 37 37 42 46 44 39 39 38 37 35 36 37 40 36 34 34 33 32 30 31 30 30 30 31 31 33 31 31 32 30 31 29
29 28 27 28 29 31 32 34 36 38 36 37 38 38 41 45 43 40 40 40 39 40 40 39 38 36 35 35 35 35 33 32 32 33 34 36 38 38 37 34 40 34 33
28 28 27 26 28 31 32 33 34 35 36 37 39 37 37 40 45 42 43 41 40 40 39 39 38 39 38 37 38 38 38 37 37 39 41 41 41 42 44 43 43 42 40
29 28 27 24 25 28 31 33 33 33 33 35 39 40 37 37 41 46 42 42 42 38 42 43 41 40 39 39 41 40 43 45 46 47 46 46 47 47 45 46 47 47 46
28 25 22 23 25 28 30 28 28 25 27 32 34 35 32 31 33 39 42 43 44 42 41 41 42 41 39 37 40 43 51 54 54 54 53 51 50 51 51 48 47 47 48
22 20 20 22 26 27 22 18 19 19 16 16 20 23 22 25 29 32 25 29 47 29 44 38 40 43 40 35 39 44 50 55 55 54 52 52 51 48 47 47 46 44 44
20 21 21 24 23 24 17 16 16 18 13 13 13 15 17 19 21 25 33 31 19 34 39 27 31 32 35 42 42 44 48 52 58 61 55 52 49 50 48 46 46 44 43
20 21 21 24 26 20 16 15 14 15 13 12 11 13 16 16 17 24 28 33 42 35 26 31 30 29 37 42 46 50 51 53 53 55 61 54 51 51 50 47 45 46 44
20 19 21 21 16 13 14 14 14 14 11 10 14 16 16 17 19 15 24 28 36 36 31 31 34 37 40 43 47 51 53 48 41 41 46 53 51 50 52 52 49 47 46

GFSSE_700_spd_117.txt.gz
Wind_Speed
8 10 9 10 9 9 9 8 8 7 7 8 8 7 7 7 7 7 7 7 6 5 4 3 3 4 7 10 10 6 5 4 3 2 1 2 3 4 5 5 6 5 3
9 8 10 12 11 11 11 10 10 10 9 9 8 7 7 7 8 8 9 8 7 5 4 4 3 3 5 8 10 9 7 5 4 3 3 3 3 4 4 3 3 3 2
9 7 8 13 13 12 12 11 12 11 10 10 10 9 8 7 7 8 8 8 7 6 4 3 4 4 6 7 8 10 9 7 5 4 4 4 4 5 5 5 5 5 5
3 6 10 11 14 15 14 14 14 14 13 12 12 11 11 11 10 8 7 8 7 6 5 5 7 6 5 6 7 8 9 8 6 5 5 5 5 5 6 7 6 6 7
6 5 7 11 12 15 15 15 16 16 15 14 14 13 12 13 12 11 10 9 8 8 8 10 8 7 8 7 7 8 7 7 7 7 6 5 6 6 7 7 8 7 7
12 10 7 9 11 15 17 17 17 18 17 16 15 15 14 14 14 13 13 11 10 9 10 10 12 10 9 9 9 9 8 6 6 6 7 6 7 7 8 8 8 8 8
13 13 12 12 13 13 17 18 19 20 20 19 18 19 19 17 16 15 14 14 13 12 12 12 13 14 13 12 12 12 11 9 7 6 7 8 8 8 9 9 9 9 9
14 15 15 16 16 15 16 16 18 21 22 21 22 22 21 20 19 18 17 16 16 15 15 15 15 15 16 15 15 15 14 12 9 8 8 8 8 9 10 10 10 10 10
15 16 17 17 18 21 19 20 19 19 19 21 21 21 22 22 21 21 20 19 17 16 16 17 17 18 18 18 17 17 16 15 13 12 10 10 9 9 10 11 12 12 12
14 16 18 19 20 21 22 25 26 26 26 25 25 25 24 24 24 24 24 22 22 21 19 19 19 20 20 20 20 19 19 17 16 16 14 12 12 11 11 11 12 13 13
11 12 15 18 20 22 23 24 26 29 30 31 30 30 30 30 28 27 27 26 25 24 23 22 21 21 22 22 21 21 21 19 19 19 17 17 15 14 13 12 12 13 13
15 16 17 19 21 22 24 24 26 28 30 31 32 32 31 30 28 28 27 27 27 26 24 24 25 24 25 24 23 22 21 22 22 21 20 19 19 18 16 14 13 13 13
19 20 21 22 23 25 27 28 29 30 30 31 33 35 35 34 32 31 30 29 30 29 28 27 27 27 27 26 26 25 25 25 24 24 23 23 22 21 20 18 17 15 14
20 21 23 24 25 26 28 30 32 33 34 34 36 36 37 38 37 36 35 33 32 32 33 30 28 28 27 27 28 27 26 27 26 26 25 25 24 24 23 22 21 19 18
21 23 24 25 26 27 27 29 32 34 36 38 39 40 41 40 40 41 39 38 37 34 31 29 27 26 25 26 28 28 28 27 26 27 27 28 27 26 25 25 25 24 22
22 23 23 25 25 26 26 27 28 31 33 36 39 42 44 45 45 43 42 41 41 38 35 33 30 30 29 29 28 27 26 28 28 28 27 29 29 29 27 27 28 28 28
25 25 25 25 26 27 27 28 29 31 33 34 36 38 40 44 47 47 45 41 39 38 38 37 35 35 34 32 32 32 31 31 31 30 28 26 29 31 29 28 29 30 31
24 26 27 26 25 25 25 26 28 30 32 34 37 39 41 42 44 46 46 44 39 39 39 39 37 39 38 34 34 35 35 36 34 36 35 33 34 31 30 31 33 31 31
24 23 24 25 26 26 26 27 29 30 31 34 37 39 41 42 43 45 45 45 42 40 39 40 41 41 42 39 38 38 38 38 37 36 34 32 32 33 33 33 35 37 37
26 26 26 26 25 25 27 29 30 32 32 34 34 36 37 38 40 40 43 45 43 43 38 40 42 42 43 44 43 40 39 40 39 38 37 36 36 38 39 40 39 39 41
30 28 25 22 22 23 26 29 31 26 26 28 30 30 32 34 35 36 36 40 41 32 41 35 40 41 43 41 40 42 43 42 41 40 38 40 43 45 47 49 51 50 47
28 22 21 20 21 22 25 29 24 21 20 22 22 22 22 25 28 29 29 32 38 44 42 32 47 47 44 46 44 44 47 45 43 43 44 46 50 53 56 56 56 57 54
22 18 19 20 21 23 23 24 21 22 21 20 21 20 18 18 19 21 24 28 29 31 41 45 30 28 39 35 42 42 46 47 47 49 48 51 52 52 53 52 51 52 53
20 17 19 21 22 24 22 19 19 17 17 17 18 14 15 17 17 19 20 24 30 28 28 36 48 39 35 33 34 32 38 37 43 50 50 52 55 55 54 53 52 50 48
18 19 21 21 22 20 14 15 17 17 17 18 17 13 12 15 14 14 20 24 25 23 25 22 31 35 37 35 33 34 35 39 43 51 58 59 57 56 55 53 50 46 46
15 16 16 16 14 12 14 14 14 15 17 17 17 14 14 13 14 18 16 16 19 29 28 25 24 23 25 29 33 36 37 40 41 48 55 55 53 47 44 40 43 40 40